<?xml version="1.0" encoding="UTF-8" standalone="no" ?>
<gpx xmlns="http://www.topografix.com/GPX/1/1" xmlns:xsi="http://www.w3.org/2001/XMLSchema-instance" xsi:schemaLocation="http://www.topografix.com/GPX/1/1 http://www.topografix.com/GPX/1/1/gpx.xsd" version="1.1" creator="VisuGPX - https://www.visugpx.com">
  <metadata>
    <name>Chambost Longessaigne</name>
    <desc><![CDATA[Superbe ballade relativement difficile.]]></desc>
  </metadata>
  <trk>
    <name><![CDATA[20190225203215-ge2m7]]></name>
    <trkseg>
      <trkpt lat="45.77309" lon="4.36749">
        <ele>605.408</ele>
        <time>2019-02-25T13:02:40Z</time>
      </trkpt>
      <trkpt lat="45.7731" lon="4.36751">
        <ele>604.045</ele>
        <time>2019-02-25T13:02:45Z</time>
      </trkpt>
      <trkpt lat="45.7731" lon="4.36751">
        <ele>590.881</ele>
        <time>2019-02-25T13:02:51Z</time>
      </trkpt>
      <trkpt lat="45.77314" lon="4.3675">
        <ele>602.07</ele>
        <time>2019-02-25T13:02:57Z</time>
      </trkpt>
      <trkpt lat="45.77314" lon="4.3675">
        <ele>606.189</ele>
        <time>2019-02-25T13:03:02Z</time>
      </trkpt>
      <trkpt lat="45.77314" lon="4.3675">
        <ele>605.348</ele>
        <time>2019-02-25T13:03:25Z</time>
      </trkpt>
      <trkpt lat="45.77314" lon="4.3675">
        <ele>605.345</ele>
        <time>2019-02-25T13:03:31Z</time>
      </trkpt>
      <trkpt lat="45.77314" lon="4.3675">
        <ele>605.373</ele>
        <time>2019-02-25T13:03:37Z</time>
      </trkpt>
      <trkpt lat="45.77314" lon="4.3675">
        <ele>605.381</ele>
        <time>2019-02-25T13:03:42Z</time>
      </trkpt>
      <trkpt lat="45.77314" lon="4.3675">
        <ele>605.34</ele>
        <time>2019-02-25T13:03:48Z</time>
      </trkpt>
      <trkpt lat="45.77314" lon="4.3675">
        <ele>605.252</ele>
        <time>2019-02-25T13:03:54Z</time>
      </trkpt>
      <trkpt lat="45.77314" lon="4.3675">
        <ele>605.126</ele>
        <time>2019-02-25T13:03:59Z</time>
      </trkpt>
      <trkpt lat="45.77314" lon="4.3675">
        <ele>605.001</ele>
        <time>2019-02-25T13:04:04Z</time>
      </trkpt>
      <trkpt lat="45.77314" lon="4.3675">
        <ele>604.919</ele>
        <time>2019-02-25T13:04:10Z</time>
      </trkpt>
      <trkpt lat="45.77314" lon="4.3675">
        <ele>604.804</ele>
        <time>2019-02-25T13:04:16Z</time>
      </trkpt>
      <trkpt lat="45.77314" lon="4.3675">
        <ele>604.427</ele>
        <time>2019-02-25T13:04:21Z</time>
      </trkpt>
      <trkpt lat="45.77314" lon="4.3675">
        <ele>603.913</ele>
        <time>2019-02-25T13:04:27Z</time>
      </trkpt>
      <trkpt lat="45.77314" lon="4.3675">
        <ele>603.449</ele>
        <time>2019-02-25T13:04:32Z</time>
      </trkpt>
      <trkpt lat="45.77314" lon="4.3675">
        <ele>602.762</ele>
        <time>2019-02-25T13:04:38Z</time>
      </trkpt>
      <trkpt lat="45.77314" lon="4.3675">
        <ele>602.278</ele>
        <time>2019-02-25T13:04:43Z</time>
      </trkpt>
      <trkpt lat="45.77307" lon="4.36771">
        <ele>601.743</ele>
        <time>2019-02-25T13:04:48Z</time>
      </trkpt>
      <trkpt lat="45.773" lon="4.36784">
        <ele>601.016</ele>
        <time>2019-02-25T13:04:54Z</time>
      </trkpt>
      <trkpt lat="45.77299" lon="4.36787">
        <ele>600.689</ele>
        <time>2019-02-25T13:05:00Z</time>
      </trkpt>
      <trkpt lat="45.77296" lon="4.36794">
        <ele>600.262</ele>
        <time>2019-02-25T13:05:05Z</time>
      </trkpt>
      <trkpt lat="45.77292" lon="4.368">
        <ele>599.417</ele>
        <time>2019-02-25T13:05:11Z</time>
      </trkpt>
      <trkpt lat="45.77287" lon="4.36803">
        <ele>599.063</ele>
        <time>2019-02-25T13:05:16Z</time>
      </trkpt>
      <trkpt lat="45.77283" lon="4.36809">
        <ele>598.407</ele>
        <time>2019-02-25T13:05:22Z</time>
      </trkpt>
      <trkpt lat="45.7728" lon="4.36815">
        <ele>597.84</ele>
        <time>2019-02-25T13:05:28Z</time>
      </trkpt>
      <trkpt lat="45.77274" lon="4.36818">
        <ele>597.14</ele>
        <time>2019-02-25T13:05:34Z</time>
      </trkpt>
      <trkpt lat="45.77272" lon="4.36821">
        <ele>597.574</ele>
        <time>2019-02-25T13:05:40Z</time>
      </trkpt>
      <trkpt lat="45.77271" lon="4.36824">
        <ele>598.52</ele>
        <time>2019-02-25T13:05:46Z</time>
      </trkpt>
      <trkpt lat="45.77269" lon="4.36826">
        <ele>599.559</ele>
        <time>2019-02-25T13:05:52Z</time>
      </trkpt>
      <trkpt lat="45.77267" lon="4.36828">
        <ele>600.12</ele>
        <time>2019-02-25T13:05:57Z</time>
      </trkpt>
      <trkpt lat="45.77268" lon="4.36831">
        <ele>600.971</ele>
        <time>2019-02-25T13:06:03Z</time>
      </trkpt>
      <trkpt lat="45.77266" lon="4.36832">
        <ele>600.605</ele>
        <time>2019-02-25T13:06:08Z</time>
      </trkpt>
      <trkpt lat="45.77264" lon="4.36834">
        <ele>599.669</ele>
        <time>2019-02-25T13:06:13Z</time>
      </trkpt>
      <trkpt lat="45.7726" lon="4.3684">
        <ele>598.753</ele>
        <time>2019-02-25T13:06:19Z</time>
      </trkpt>
      <trkpt lat="45.77257" lon="4.36849">
        <ele>598.738</ele>
        <time>2019-02-25T13:06:24Z</time>
      </trkpt>
      <trkpt lat="45.77254" lon="4.36857">
        <ele>599.405</ele>
        <time>2019-02-25T13:06:30Z</time>
      </trkpt>
      <trkpt lat="45.77249" lon="4.36863">
        <ele>599.682</ele>
        <time>2019-02-25T13:06:35Z</time>
      </trkpt>
      <trkpt lat="45.77248" lon="4.3687">
        <ele>599.172</ele>
        <time>2019-02-25T13:06:41Z</time>
      </trkpt>
      <trkpt lat="45.77249" lon="4.3688">
        <ele>598.954</ele>
        <time>2019-02-25T13:06:46Z</time>
      </trkpt>
      <trkpt lat="45.77246" lon="4.36892">
        <ele>598.978</ele>
        <time>2019-02-25T13:06:52Z</time>
      </trkpt>
      <trkpt lat="45.77243" lon="4.36899">
        <ele>598.727</ele>
        <time>2019-02-25T13:06:58Z</time>
      </trkpt>
      <trkpt lat="45.77241" lon="4.36903">
        <ele>598.661</ele>
        <time>2019-02-25T13:07:04Z</time>
      </trkpt>
      <trkpt lat="45.7724" lon="4.36903">
        <ele>598.667</ele>
        <time>2019-02-25T13:07:10Z</time>
      </trkpt>
      <trkpt lat="45.77239" lon="4.36902">
        <ele>598.451</ele>
        <time>2019-02-25T13:07:15Z</time>
      </trkpt>
      <trkpt lat="45.77237" lon="4.36903">
        <ele>598.344</ele>
        <time>2019-02-25T13:07:20Z</time>
      </trkpt>
      <trkpt lat="45.77231" lon="4.36902">
        <ele>597.879</ele>
        <time>2019-02-25T13:07:25Z</time>
      </trkpt>
      <trkpt lat="45.77224" lon="4.36899">
        <ele>597.153</ele>
        <time>2019-02-25T13:07:31Z</time>
      </trkpt>
      <trkpt lat="45.7722" lon="4.36899">
        <ele>595.884</ele>
        <time>2019-02-25T13:07:37Z</time>
      </trkpt>
      <trkpt lat="45.77216" lon="4.36895">
        <ele>594.801</ele>
        <time>2019-02-25T13:07:42Z</time>
      </trkpt>
      <trkpt lat="45.77209" lon="4.36889">
        <ele>593.737</ele>
        <time>2019-02-25T13:07:48Z</time>
      </trkpt>
      <trkpt lat="45.772" lon="4.36883">
        <ele>593.572</ele>
        <time>2019-02-25T13:07:54Z</time>
      </trkpt>
      <trkpt lat="45.77194" lon="4.36878">
        <ele>593.654</ele>
        <time>2019-02-25T13:07:59Z</time>
      </trkpt>
      <trkpt lat="45.77187" lon="4.36874">
        <ele>593.572</ele>
        <time>2019-02-25T13:08:05Z</time>
      </trkpt>
      <trkpt lat="45.77185" lon="4.36867">
        <ele>592.939</ele>
        <time>2019-02-25T13:08:11Z</time>
      </trkpt>
      <trkpt lat="45.77181" lon="4.36863">
        <ele>592.856</ele>
        <time>2019-02-25T13:08:16Z</time>
      </trkpt>
      <trkpt lat="45.77174" lon="4.36853">
        <ele>592.345</ele>
        <time>2019-02-25T13:08:22Z</time>
      </trkpt>
      <trkpt lat="45.77168" lon="4.36847">
        <ele>591.529</ele>
        <time>2019-02-25T13:08:28Z</time>
      </trkpt>
      <trkpt lat="45.77161" lon="4.3684">
        <ele>590.509</ele>
        <time>2019-02-25T13:08:34Z</time>
      </trkpt>
      <trkpt lat="45.77155" lon="4.36839">
        <ele>589.887</ele>
        <time>2019-02-25T13:08:40Z</time>
      </trkpt>
      <trkpt lat="45.77149" lon="4.36833">
        <ele>589.172</ele>
        <time>2019-02-25T13:08:46Z</time>
      </trkpt>
      <trkpt lat="45.77143" lon="4.36827">
        <ele>588.097</ele>
        <time>2019-02-25T13:08:52Z</time>
      </trkpt>
      <trkpt lat="45.77138" lon="4.3682">
        <ele>586.977</ele>
        <time>2019-02-25T13:08:58Z</time>
      </trkpt>
      <trkpt lat="45.77131" lon="4.36812">
        <ele>585.973</ele>
        <time>2019-02-25T13:09:04Z</time>
      </trkpt>
      <trkpt lat="45.77126" lon="4.36807">
        <ele>584.868</ele>
        <time>2019-02-25T13:09:09Z</time>
      </trkpt>
      <trkpt lat="45.77119" lon="4.368">
        <ele>583.475</ele>
        <time>2019-02-25T13:09:15Z</time>
      </trkpt>
      <trkpt lat="45.77113" lon="4.36792">
        <ele>582.161</ele>
        <time>2019-02-25T13:09:21Z</time>
      </trkpt>
      <trkpt lat="45.77109" lon="4.36787">
        <ele>581.288</ele>
        <time>2019-02-25T13:09:26Z</time>
      </trkpt>
      <trkpt lat="45.77103" lon="4.3678">
        <ele>580.36</ele>
        <time>2019-02-25T13:09:31Z</time>
      </trkpt>
      <trkpt lat="45.77099" lon="4.36775">
        <ele>579.608</ele>
        <time>2019-02-25T13:09:37Z</time>
      </trkpt>
      <trkpt lat="45.77094" lon="4.3677">
        <ele>579.018</ele>
        <time>2019-02-25T13:09:42Z</time>
      </trkpt>
      <trkpt lat="45.77088" lon="4.36766">
        <ele>578.302</ele>
        <time>2019-02-25T13:09:47Z</time>
      </trkpt>
      <trkpt lat="45.77082" lon="4.36759">
        <ele>577.525</ele>
        <time>2019-02-25T13:09:53Z</time>
      </trkpt>
      <trkpt lat="45.77077" lon="4.36751">
        <ele>577.033</ele>
        <time>2019-02-25T13:09:58Z</time>
      </trkpt>
      <trkpt lat="45.77069" lon="4.36743">
        <ele>576.286</ele>
        <time>2019-02-25T13:10:04Z</time>
      </trkpt>
      <trkpt lat="45.77064" lon="4.36737">
        <ele>575.708</ele>
        <time>2019-02-25T13:10:09Z</time>
      </trkpt>
      <trkpt lat="45.7706" lon="4.36731">
        <ele>575.543</ele>
        <time>2019-02-25T13:10:15Z</time>
      </trkpt>
      <trkpt lat="45.77056" lon="4.36723">
        <ele>575.122</ele>
        <time>2019-02-25T13:10:21Z</time>
      </trkpt>
      <trkpt lat="45.7705" lon="4.36713">
        <ele>574.672</ele>
        <time>2019-02-25T13:10:26Z</time>
      </trkpt>
      <trkpt lat="45.77046" lon="4.36707">
        <ele>574.385</ele>
        <time>2019-02-25T13:10:32Z</time>
      </trkpt>
      <trkpt lat="45.77042" lon="4.36701">
        <ele>574.378</ele>
        <time>2019-02-25T13:10:38Z</time>
      </trkpt>
      <trkpt lat="45.77041" lon="4.36696">
        <ele>574.346</ele>
        <time>2019-02-25T13:10:44Z</time>
      </trkpt>
      <trkpt lat="45.77037" lon="4.36692">
        <ele>574.63</ele>
        <time>2019-02-25T13:10:49Z</time>
      </trkpt>
      <trkpt lat="45.77032" lon="4.36689">
        <ele>574.758</ele>
        <time>2019-02-25T13:10:55Z</time>
      </trkpt>
      <trkpt lat="45.77026" lon="4.36682">
        <ele>574.631</ele>
        <time>2019-02-25T13:11:01Z</time>
      </trkpt>
      <trkpt lat="45.7702" lon="4.36676">
        <ele>575.068</ele>
        <time>2019-02-25T13:11:07Z</time>
      </trkpt>
      <trkpt lat="45.77015" lon="4.36672">
        <ele>574.918</ele>
        <time>2019-02-25T13:11:13Z</time>
      </trkpt>
      <trkpt lat="45.77011" lon="4.36666">
        <ele>574.5</ele>
        <time>2019-02-25T13:11:19Z</time>
      </trkpt>
      <trkpt lat="45.77007" lon="4.36662">
        <ele>574.174</ele>
        <time>2019-02-25T13:11:24Z</time>
      </trkpt>
      <trkpt lat="45.77" lon="4.36657">
        <ele>573.839</ele>
        <time>2019-02-25T13:11:30Z</time>
      </trkpt>
      <trkpt lat="45.76992" lon="4.36655">
        <ele>573.619</ele>
        <time>2019-02-25T13:11:36Z</time>
      </trkpt>
      <trkpt lat="45.76985" lon="4.36655">
        <ele>572.971</ele>
        <time>2019-02-25T13:11:42Z</time>
      </trkpt>
      <trkpt lat="45.76979" lon="4.36657">
        <ele>572.417</ele>
        <time>2019-02-25T13:11:47Z</time>
      </trkpt>
      <trkpt lat="45.76972" lon="4.36662">
        <ele>571.779</ele>
        <time>2019-02-25T13:11:53Z</time>
      </trkpt>
      <trkpt lat="45.76967" lon="4.36663">
        <ele>571.199</ele>
        <time>2019-02-25T13:11:58Z</time>
      </trkpt>
      <trkpt lat="45.76961" lon="4.36666">
        <ele>570.918</ele>
        <time>2019-02-25T13:12:03Z</time>
      </trkpt>
      <trkpt lat="45.76951" lon="4.36669">
        <ele>570.29</ele>
        <time>2019-02-25T13:12:09Z</time>
      </trkpt>
      <trkpt lat="45.76943" lon="4.3667">
        <ele>569.565</ele>
        <time>2019-02-25T13:12:14Z</time>
      </trkpt>
      <trkpt lat="45.76934" lon="4.3667">
        <ele>568.07</ele>
        <time>2019-02-25T13:12:20Z</time>
      </trkpt>
      <trkpt lat="45.76926" lon="4.36665">
        <ele>567.181</ele>
        <time>2019-02-25T13:12:25Z</time>
      </trkpt>
      <trkpt lat="45.76921" lon="4.36661">
        <ele>566.736</ele>
        <time>2019-02-25T13:12:31Z</time>
      </trkpt>
      <trkpt lat="45.76912" lon="4.36656">
        <ele>566.402</ele>
        <time>2019-02-25T13:12:36Z</time>
      </trkpt>
      <trkpt lat="45.76907" lon="4.36648">
        <ele>565.887</ele>
        <time>2019-02-25T13:12:41Z</time>
      </trkpt>
      <trkpt lat="45.76901" lon="4.36644">
        <ele>564.709</ele>
        <time>2019-02-25T13:12:47Z</time>
      </trkpt>
      <trkpt lat="45.76895" lon="4.36641">
        <ele>563.886</ele>
        <time>2019-02-25T13:12:53Z</time>
      </trkpt>
      <trkpt lat="45.7689" lon="4.36636">
        <ele>563.353</ele>
        <time>2019-02-25T13:12:59Z</time>
      </trkpt>
      <trkpt lat="45.76885" lon="4.36632">
        <ele>563.163</ele>
        <time>2019-02-25T13:13:04Z</time>
      </trkpt>
      <trkpt lat="45.76882" lon="4.36629">
        <ele>562.335</ele>
        <time>2019-02-25T13:13:10Z</time>
      </trkpt>
      <trkpt lat="45.76878" lon="4.36625">
        <ele>561.718</ele>
        <time>2019-02-25T13:13:16Z</time>
      </trkpt>
      <trkpt lat="45.76876" lon="4.36618">
        <ele>561.804</ele>
        <time>2019-02-25T13:13:21Z</time>
      </trkpt>
      <trkpt lat="45.7687" lon="4.3661">
        <ele>561.722</ele>
        <time>2019-02-25T13:13:26Z</time>
      </trkpt>
      <trkpt lat="45.76865" lon="4.366">
        <ele>561.756</ele>
        <time>2019-02-25T13:13:32Z</time>
      </trkpt>
      <trkpt lat="45.76862" lon="4.36592">
        <ele>561.758</ele>
        <time>2019-02-25T13:13:37Z</time>
      </trkpt>
      <trkpt lat="45.76859" lon="4.36581">
        <ele>561.894</ele>
        <time>2019-02-25T13:13:43Z</time>
      </trkpt>
      <trkpt lat="45.76855" lon="4.36572">
        <ele>561.743</ele>
        <time>2019-02-25T13:13:48Z</time>
      </trkpt>
      <trkpt lat="45.76851" lon="4.3656">
        <ele>561.067</ele>
        <time>2019-02-25T13:13:54Z</time>
      </trkpt>
      <trkpt lat="45.76847" lon="4.36552">
        <ele>560.054</ele>
        <time>2019-02-25T13:14:00Z</time>
      </trkpt>
      <trkpt lat="45.76844" lon="4.36543">
        <ele>558.923</ele>
        <time>2019-02-25T13:14:06Z</time>
      </trkpt>
      <trkpt lat="45.76841" lon="4.36536">
        <ele>558.751</ele>
        <time>2019-02-25T13:14:11Z</time>
      </trkpt>
      <trkpt lat="45.76834" lon="4.36526">
        <ele>558.645</ele>
        <time>2019-02-25T13:14:17Z</time>
      </trkpt>
      <trkpt lat="45.7683" lon="4.36519">
        <ele>558.405</ele>
        <time>2019-02-25T13:14:22Z</time>
      </trkpt>
      <trkpt lat="45.76824" lon="4.3651">
        <ele>558.301</ele>
        <time>2019-02-25T13:14:28Z</time>
      </trkpt>
      <trkpt lat="45.76818" lon="4.36501">
        <ele>558.177</ele>
        <time>2019-02-25T13:14:35Z</time>
      </trkpt>
      <trkpt lat="45.76813" lon="4.36495">
        <ele>557.645</ele>
        <time>2019-02-25T13:14:40Z</time>
      </trkpt>
      <trkpt lat="45.76808" lon="4.36492">
        <ele>556.69</ele>
        <time>2019-02-25T13:14:46Z</time>
      </trkpt>
      <trkpt lat="45.76803" lon="4.36486">
        <ele>555.879</ele>
        <time>2019-02-25T13:14:52Z</time>
      </trkpt>
      <trkpt lat="45.76796" lon="4.36478">
        <ele>555.735</ele>
        <time>2019-02-25T13:14:57Z</time>
      </trkpt>
      <trkpt lat="45.76788" lon="4.3647">
        <ele>555.523</ele>
        <time>2019-02-25T13:15:03Z</time>
      </trkpt>
      <trkpt lat="45.76783" lon="4.36461">
        <ele>554.915</ele>
        <time>2019-02-25T13:15:09Z</time>
      </trkpt>
      <trkpt lat="45.76778" lon="4.36453">
        <ele>554.219</ele>
        <time>2019-02-25T13:15:15Z</time>
      </trkpt>
      <trkpt lat="45.76773" lon="4.36448">
        <ele>554.123</ele>
        <time>2019-02-25T13:15:20Z</time>
      </trkpt>
      <trkpt lat="45.76766" lon="4.36443">
        <ele>553.916</ele>
        <time>2019-02-25T13:15:26Z</time>
      </trkpt>
      <trkpt lat="45.76759" lon="4.36437">
        <ele>553.669</ele>
        <time>2019-02-25T13:15:31Z</time>
      </trkpt>
      <trkpt lat="45.76754" lon="4.3643">
        <ele>553.72</ele>
        <time>2019-02-25T13:15:37Z</time>
      </trkpt>
      <trkpt lat="45.76749" lon="4.36425">
        <ele>553.746</ele>
        <time>2019-02-25T13:15:42Z</time>
      </trkpt>
      <trkpt lat="45.76744" lon="4.36417">
        <ele>553.771</ele>
        <time>2019-02-25T13:15:48Z</time>
      </trkpt>
      <trkpt lat="45.76739" lon="4.36411">
        <ele>553.676</ele>
        <time>2019-02-25T13:15:53Z</time>
      </trkpt>
      <trkpt lat="45.7673" lon="4.36404">
        <ele>553.615</ele>
        <time>2019-02-25T13:15:59Z</time>
      </trkpt>
      <trkpt lat="45.76725" lon="4.364">
        <ele>553.45</ele>
        <time>2019-02-25T13:16:05Z</time>
      </trkpt>
      <trkpt lat="45.76719" lon="4.36393">
        <ele>553.405</ele>
        <time>2019-02-25T13:16:11Z</time>
      </trkpt>
      <trkpt lat="45.76713" lon="4.36387">
        <ele>553.049</ele>
        <time>2019-02-25T13:16:17Z</time>
      </trkpt>
      <trkpt lat="45.76706" lon="4.36379">
        <ele>552.786</ele>
        <time>2019-02-25T13:16:23Z</time>
      </trkpt>
      <trkpt lat="45.76699" lon="4.36373">
        <ele>552.217</ele>
        <time>2019-02-25T13:16:29Z</time>
      </trkpt>
      <trkpt lat="45.76693" lon="4.36367">
        <ele>552.003</ele>
        <time>2019-02-25T13:16:34Z</time>
      </trkpt>
      <trkpt lat="45.76687" lon="4.3636">
        <ele>551.975</ele>
        <time>2019-02-25T13:16:40Z</time>
      </trkpt>
      <trkpt lat="45.76681" lon="4.36358">
        <ele>551.562</ele>
        <time>2019-02-25T13:16:46Z</time>
      </trkpt>
      <trkpt lat="45.76675" lon="4.36354">
        <ele>551.701</ele>
        <time>2019-02-25T13:16:52Z</time>
      </trkpt>
      <trkpt lat="45.76667" lon="4.3635">
        <ele>551.905</ele>
        <time>2019-02-25T13:16:58Z</time>
      </trkpt>
      <trkpt lat="45.76658" lon="4.36347">
        <ele>551.71</ele>
        <time>2019-02-25T13:17:04Z</time>
      </trkpt>
      <trkpt lat="45.76653" lon="4.36345">
        <ele>551.469</ele>
        <time>2019-02-25T13:17:09Z</time>
      </trkpt>
      <trkpt lat="45.76646" lon="4.36339">
        <ele>551.631</ele>
        <time>2019-02-25T13:17:15Z</time>
      </trkpt>
      <trkpt lat="45.7664" lon="4.36332">
        <ele>551.91</ele>
        <time>2019-02-25T13:17:20Z</time>
      </trkpt>
      <trkpt lat="45.76635" lon="4.36324">
        <ele>552.288</ele>
        <time>2019-02-25T13:17:26Z</time>
      </trkpt>
      <trkpt lat="45.76628" lon="4.36315">
        <ele>551.691</ele>
        <time>2019-02-25T13:17:32Z</time>
      </trkpt>
      <trkpt lat="45.76622" lon="4.3631">
        <ele>550.925</ele>
        <time>2019-02-25T13:17:38Z</time>
      </trkpt>
      <trkpt lat="45.76618" lon="4.36304">
        <ele>550.461</ele>
        <time>2019-02-25T13:17:43Z</time>
      </trkpt>
      <trkpt lat="45.76612" lon="4.36299">
        <ele>550.012</ele>
        <time>2019-02-25T13:17:49Z</time>
      </trkpt>
      <trkpt lat="45.76604" lon="4.36293">
        <ele>549.727</ele>
        <time>2019-02-25T13:17:55Z</time>
      </trkpt>
      <trkpt lat="45.76598" lon="4.36287">
        <ele>549.582</ele>
        <time>2019-02-25T13:18:00Z</time>
      </trkpt>
      <trkpt lat="45.76591" lon="4.36282">
        <ele>549.498</ele>
        <time>2019-02-25T13:18:06Z</time>
      </trkpt>
      <trkpt lat="45.76584" lon="4.36273">
        <ele>549.487</ele>
        <time>2019-02-25T13:18:12Z</time>
      </trkpt>
      <trkpt lat="45.76577" lon="4.3627">
        <ele>549.262</ele>
        <time>2019-02-25T13:18:18Z</time>
      </trkpt>
      <trkpt lat="45.76572" lon="4.36263">
        <ele>549.223</ele>
        <time>2019-02-25T13:18:24Z</time>
      </trkpt>
      <trkpt lat="45.76569" lon="4.36256">
        <ele>548.622</ele>
        <time>2019-02-25T13:18:30Z</time>
      </trkpt>
      <trkpt lat="45.76565" lon="4.3625">
        <ele>547.995</ele>
        <time>2019-02-25T13:18:36Z</time>
      </trkpt>
      <trkpt lat="45.76562" lon="4.36241">
        <ele>548.191</ele>
        <time>2019-02-25T13:18:41Z</time>
      </trkpt>
      <trkpt lat="45.76556" lon="4.36235">
        <ele>548.65</ele>
        <time>2019-02-25T13:18:47Z</time>
      </trkpt>
      <trkpt lat="45.7655" lon="4.36232">
        <ele>549.249</ele>
        <time>2019-02-25T13:18:53Z</time>
      </trkpt>
      <trkpt lat="45.76545" lon="4.36225">
        <ele>549.752</ele>
        <time>2019-02-25T13:18:59Z</time>
      </trkpt>
      <trkpt lat="45.76538" lon="4.36219">
        <ele>550.45</ele>
        <time>2019-02-25T13:19:04Z</time>
      </trkpt>
      <trkpt lat="45.76531" lon="4.36214">
        <ele>551.403</ele>
        <time>2019-02-25T13:19:10Z</time>
      </trkpt>
      <trkpt lat="45.76526" lon="4.36211">
        <ele>552.24</ele>
        <time>2019-02-25T13:19:16Z</time>
      </trkpt>
      <trkpt lat="45.76525" lon="4.3621">
        <ele>552.735</ele>
        <time>2019-02-25T13:19:22Z</time>
      </trkpt>
      <trkpt lat="45.76528" lon="4.36215">
        <ele>552.865</ele>
        <time>2019-02-25T13:19:27Z</time>
      </trkpt>
      <trkpt lat="45.7653" lon="4.36213">
        <ele>553.261</ele>
        <time>2019-02-25T13:19:33Z</time>
      </trkpt>
      <trkpt lat="45.76529" lon="4.36211">
        <ele>554.176</ele>
        <time>2019-02-25T13:19:39Z</time>
      </trkpt>
      <trkpt lat="45.76528" lon="4.36216">
        <ele>554.684</ele>
        <time>2019-02-25T13:19:44Z</time>
      </trkpt>
      <trkpt lat="45.76528" lon="4.36218">
        <ele>555.152</ele>
        <time>2019-02-25T13:19:50Z</time>
      </trkpt>
      <trkpt lat="45.76527" lon="4.36217">
        <ele>555.015</ele>
        <time>2019-02-25T13:19:56Z</time>
      </trkpt>
      <trkpt lat="45.76529" lon="4.36216">
        <ele>554.927</ele>
        <time>2019-02-25T13:20:01Z</time>
      </trkpt>
      <trkpt lat="45.76529" lon="4.36215">
        <ele>555.202</ele>
        <time>2019-02-25T13:20:07Z</time>
      </trkpt>
      <trkpt lat="45.76529" lon="4.36213">
        <ele>555.95</ele>
        <time>2019-02-25T13:20:12Z</time>
      </trkpt>
      <trkpt lat="45.7653" lon="4.36212">
        <ele>556.335</ele>
        <time>2019-02-25T13:20:17Z</time>
      </trkpt>
      <trkpt lat="45.76532" lon="4.36213">
        <ele>556.787</ele>
        <time>2019-02-25T13:20:23Z</time>
      </trkpt>
      <trkpt lat="45.76532" lon="4.36215">
        <ele>557.234</ele>
        <time>2019-02-25T13:20:28Z</time>
      </trkpt>
      <trkpt lat="45.76531" lon="4.36215">
        <ele>557.262</ele>
        <time>2019-02-25T13:20:34Z</time>
      </trkpt>
      <trkpt lat="45.76532" lon="4.36219">
        <ele>557.509</ele>
        <time>2019-02-25T13:20:40Z</time>
      </trkpt>
      <trkpt lat="45.76534" lon="4.36224">
        <ele>557.858</ele>
        <time>2019-02-25T13:20:45Z</time>
      </trkpt>
      <trkpt lat="45.76536" lon="4.36231">
        <ele>558.01</ele>
        <time>2019-02-25T13:20:50Z</time>
      </trkpt>
      <trkpt lat="45.76538" lon="4.3624">
        <ele>558.775</ele>
        <time>2019-02-25T13:20:56Z</time>
      </trkpt>
      <trkpt lat="45.76539" lon="4.36251">
        <ele>559.23</ele>
        <time>2019-02-25T13:21:02Z</time>
      </trkpt>
      <trkpt lat="45.76538" lon="4.36262">
        <ele>559.403</ele>
        <time>2019-02-25T13:21:08Z</time>
      </trkpt>
      <trkpt lat="45.76537" lon="4.36269">
        <ele>559.885</ele>
        <time>2019-02-25T13:21:14Z</time>
      </trkpt>
      <trkpt lat="45.76536" lon="4.36275">
        <ele>560.62</ele>
        <time>2019-02-25T13:21:20Z</time>
      </trkpt>
      <trkpt lat="45.76534" lon="4.36282">
        <ele>561.087</ele>
        <time>2019-02-25T13:21:25Z</time>
      </trkpt>
      <trkpt lat="45.76534" lon="4.36292">
        <ele>561.22</ele>
        <time>2019-02-25T13:21:31Z</time>
      </trkpt>
      <trkpt lat="45.76532" lon="4.36301">
        <ele>561.497</ele>
        <time>2019-02-25T13:21:36Z</time>
      </trkpt>
      <trkpt lat="45.76528" lon="4.36307">
        <ele>562.058</ele>
        <time>2019-02-25T13:21:41Z</time>
      </trkpt>
      <trkpt lat="45.76526" lon="4.36312">
        <ele>562.598</ele>
        <time>2019-02-25T13:21:47Z</time>
      </trkpt>
      <trkpt lat="45.7652" lon="4.36319">
        <ele>563.15</ele>
        <time>2019-02-25T13:21:53Z</time>
      </trkpt>
      <trkpt lat="45.76516" lon="4.36324">
        <ele>563.885</ele>
        <time>2019-02-25T13:21:59Z</time>
      </trkpt>
      <trkpt lat="45.76513" lon="4.36327">
        <ele>564.679</ele>
        <time>2019-02-25T13:22:05Z</time>
      </trkpt>
      <trkpt lat="45.76512" lon="4.36327">
        <ele>565.607</ele>
        <time>2019-02-25T13:22:11Z</time>
      </trkpt>
      <trkpt lat="45.76512" lon="4.36329">
        <ele>566.347</ele>
        <time>2019-02-25T13:22:17Z</time>
      </trkpt>
      <trkpt lat="45.76509" lon="4.36328">
        <ele>566.979</ele>
        <time>2019-02-25T13:22:22Z</time>
      </trkpt>
      <trkpt lat="45.76507" lon="4.36329">
        <ele>567.6</ele>
        <time>2019-02-25T13:22:27Z</time>
      </trkpt>
      <trkpt lat="45.76508" lon="4.36331">
        <ele>567.15</ele>
        <time>2019-02-25T13:22:33Z</time>
      </trkpt>
      <trkpt lat="45.76508" lon="4.36332">
        <ele>567.079</ele>
        <time>2019-02-25T13:22:38Z</time>
      </trkpt>
      <trkpt lat="45.76511" lon="4.36331">
        <ele>567.89</ele>
        <time>2019-02-25T13:22:43Z</time>
      </trkpt>
      <trkpt lat="45.76506" lon="4.36327">
        <ele>568.924</ele>
        <time>2019-02-25T13:22:49Z</time>
      </trkpt>
      <trkpt lat="45.76506" lon="4.36325">
        <ele>569.315</ele>
        <time>2019-02-25T13:22:54Z</time>
      </trkpt>
      <trkpt lat="45.76506" lon="4.36325">
        <ele>569.849</ele>
        <time>2019-02-25T13:23:00Z</time>
      </trkpt>
      <trkpt lat="45.76505" lon="4.36325">
        <ele>569.68</ele>
        <time>2019-02-25T13:23:05Z</time>
      </trkpt>
      <trkpt lat="45.76502" lon="4.36325">
        <ele>569.551</ele>
        <time>2019-02-25T13:23:11Z</time>
      </trkpt>
      <trkpt lat="45.765" lon="4.36326">
        <ele>569.522</ele>
        <time>2019-02-25T13:23:17Z</time>
      </trkpt>
      <trkpt lat="45.76497" lon="4.36331">
        <ele>570.066</ele>
        <time>2019-02-25T13:23:22Z</time>
      </trkpt>
      <trkpt lat="45.76494" lon="4.36335">
        <ele>570.579</ele>
        <time>2019-02-25T13:23:28Z</time>
      </trkpt>
      <trkpt lat="45.76493" lon="4.36336">
        <ele>570.875</ele>
        <time>2019-02-25T13:23:34Z</time>
      </trkpt>
      <trkpt lat="45.76493" lon="4.36336">
        <ele>571.523</ele>
        <time>2019-02-25T13:23:40Z</time>
      </trkpt>
      <trkpt lat="45.76492" lon="4.36336">
        <ele>573.644</ele>
        <time>2019-02-25T13:23:46Z</time>
      </trkpt>
      <trkpt lat="45.76492" lon="4.36336">
        <ele>574.265</ele>
        <time>2019-02-25T13:23:51Z</time>
      </trkpt>
      <trkpt lat="45.7649" lon="4.36339">
        <ele>574.2</ele>
        <time>2019-02-25T13:23:57Z</time>
      </trkpt>
      <trkpt lat="45.76489" lon="4.3634">
        <ele>574.993</ele>
        <time>2019-02-25T13:24:02Z</time>
      </trkpt>
      <trkpt lat="45.76488" lon="4.36338">
        <ele>575.304</ele>
        <time>2019-02-25T13:24:08Z</time>
      </trkpt>
      <trkpt lat="45.76485" lon="4.36338">
        <ele>575.945</ele>
        <time>2019-02-25T13:24:14Z</time>
      </trkpt>
      <trkpt lat="45.76483" lon="4.36339">
        <ele>576.178</ele>
        <time>2019-02-25T13:24:20Z</time>
      </trkpt>
      <trkpt lat="45.76479" lon="4.36339">
        <ele>576.414</ele>
        <time>2019-02-25T13:24:26Z</time>
      </trkpt>
      <trkpt lat="45.76476" lon="4.3634">
        <ele>576.425</ele>
        <time>2019-02-25T13:24:31Z</time>
      </trkpt>
      <trkpt lat="45.76472" lon="4.36342">
        <ele>576.414</ele>
        <time>2019-02-25T13:24:36Z</time>
      </trkpt>
      <trkpt lat="45.76468" lon="4.36344">
        <ele>576.591</ele>
        <time>2019-02-25T13:24:41Z</time>
      </trkpt>
      <trkpt lat="45.76464" lon="4.36342">
        <ele>576.882</ele>
        <time>2019-02-25T13:24:47Z</time>
      </trkpt>
      <trkpt lat="45.76459" lon="4.36341">
        <ele>577.483</ele>
        <time>2019-02-25T13:24:52Z</time>
      </trkpt>
      <trkpt lat="45.76454" lon="4.36342">
        <ele>577.877</ele>
        <time>2019-02-25T13:24:57Z</time>
      </trkpt>
      <trkpt lat="45.7645" lon="4.36342">
        <ele>578.085</ele>
        <time>2019-02-25T13:25:02Z</time>
      </trkpt>
      <trkpt lat="45.76447" lon="4.3634">
        <ele>578.472</ele>
        <time>2019-02-25T13:25:07Z</time>
      </trkpt>
      <trkpt lat="45.76441" lon="4.36332">
        <ele>578.711</ele>
        <time>2019-02-25T13:25:13Z</time>
      </trkpt>
      <trkpt lat="45.76438" lon="4.36327">
        <ele>579.226</ele>
        <time>2019-02-25T13:25:19Z</time>
      </trkpt>
      <trkpt lat="45.76435" lon="4.36323">
        <ele>579.932</ele>
        <time>2019-02-25T13:25:25Z</time>
      </trkpt>
      <trkpt lat="45.76432" lon="4.3632">
        <ele>580.588</ele>
        <time>2019-02-25T13:25:30Z</time>
      </trkpt>
      <trkpt lat="45.76426" lon="4.36317">
        <ele>581.057</ele>
        <time>2019-02-25T13:25:35Z</time>
      </trkpt>
      <trkpt lat="45.76418" lon="4.36314">
        <ele>582.139</ele>
        <time>2019-02-25T13:25:41Z</time>
      </trkpt>
      <trkpt lat="45.7641" lon="4.36314">
        <ele>583.016</ele>
        <time>2019-02-25T13:25:47Z</time>
      </trkpt>
      <trkpt lat="45.76405" lon="4.36316">
        <ele>583.475</ele>
        <time>2019-02-25T13:25:53Z</time>
      </trkpt>
      <trkpt lat="45.764" lon="4.3632">
        <ele>584.455</ele>
        <time>2019-02-25T13:25:59Z</time>
      </trkpt>
      <trkpt lat="45.76396" lon="4.36326">
        <ele>585.156</ele>
        <time>2019-02-25T13:26:04Z</time>
      </trkpt>
      <trkpt lat="45.76391" lon="4.36329">
        <ele>585.98</ele>
        <time>2019-02-25T13:26:10Z</time>
      </trkpt>
      <trkpt lat="45.76386" lon="4.36331">
        <ele>586.464</ele>
        <time>2019-02-25T13:26:15Z</time>
      </trkpt>
      <trkpt lat="45.76379" lon="4.36334">
        <ele>586.2</ele>
        <time>2019-02-25T13:26:21Z</time>
      </trkpt>
      <trkpt lat="45.76376" lon="4.36334">
        <ele>585.514</ele>
        <time>2019-02-25T13:26:26Z</time>
      </trkpt>
      <trkpt lat="45.76371" lon="4.36337">
        <ele>585.443</ele>
        <time>2019-02-25T13:26:32Z</time>
      </trkpt>
      <trkpt lat="45.76365" lon="4.36338">
        <ele>585.486</ele>
        <time>2019-02-25T13:26:37Z</time>
      </trkpt>
      <trkpt lat="45.76358" lon="4.36343">
        <ele>585.596</ele>
        <time>2019-02-25T13:26:43Z</time>
      </trkpt>
      <trkpt lat="45.76351" lon="4.36347">
        <ele>586.023</ele>
        <time>2019-02-25T13:26:48Z</time>
      </trkpt>
      <trkpt lat="45.76347" lon="4.36347">
        <ele>586.676</ele>
        <time>2019-02-25T13:26:54Z</time>
      </trkpt>
      <trkpt lat="45.76341" lon="4.36353">
        <ele>587.056</ele>
        <time>2019-02-25T13:27:00Z</time>
      </trkpt>
      <trkpt lat="45.76336" lon="4.36358">
        <ele>586.938</ele>
        <time>2019-02-25T13:27:06Z</time>
      </trkpt>
      <trkpt lat="45.76331" lon="4.36363">
        <ele>586.847</ele>
        <time>2019-02-25T13:27:12Z</time>
      </trkpt>
      <trkpt lat="45.76324" lon="4.36366">
        <ele>586.373</ele>
        <time>2019-02-25T13:27:18Z</time>
      </trkpt>
      <trkpt lat="45.76315" lon="4.36367">
        <ele>585.79</ele>
        <time>2019-02-25T13:27:24Z</time>
      </trkpt>
      <trkpt lat="45.7631" lon="4.36368">
        <ele>585.698</ele>
        <time>2019-02-25T13:27:30Z</time>
      </trkpt>
      <trkpt lat="45.76305" lon="4.36369">
        <ele>585.647</ele>
        <time>2019-02-25T13:27:35Z</time>
      </trkpt>
      <trkpt lat="45.76301" lon="4.36367">
        <ele>585.786</ele>
        <time>2019-02-25T13:27:41Z</time>
      </trkpt>
      <trkpt lat="45.76296" lon="4.36365">
        <ele>585.387</ele>
        <time>2019-02-25T13:27:47Z</time>
      </trkpt>
      <trkpt lat="45.7629" lon="4.36364">
        <ele>585.538</ele>
        <time>2019-02-25T13:27:52Z</time>
      </trkpt>
      <trkpt lat="45.76284" lon="4.36366">
        <ele>586.178</ele>
        <time>2019-02-25T13:27:58Z</time>
      </trkpt>
      <trkpt lat="45.76277" lon="4.36369">
        <ele>587.033</ele>
        <time>2019-02-25T13:28:04Z</time>
      </trkpt>
      <trkpt lat="45.76268" lon="4.3637">
        <ele>588.057</ele>
        <time>2019-02-25T13:28:09Z</time>
      </trkpt>
      <trkpt lat="45.76261" lon="4.36375">
        <ele>589.78</ele>
        <time>2019-02-25T13:28:15Z</time>
      </trkpt>
      <trkpt lat="45.76257" lon="4.36377">
        <ele>591.455</ele>
        <time>2019-02-25T13:28:21Z</time>
      </trkpt>
      <trkpt lat="45.76254" lon="4.36376">
        <ele>593.221</ele>
        <time>2019-02-25T13:28:27Z</time>
      </trkpt>
      <trkpt lat="45.76253" lon="4.36378">
        <ele>594.875</ele>
        <time>2019-02-25T13:28:33Z</time>
      </trkpt>
      <trkpt lat="45.76255" lon="4.3638">
        <ele>595.233</ele>
        <time>2019-02-25T13:28:38Z</time>
      </trkpt>
      <trkpt lat="45.76254" lon="4.36379">
        <ele>595.684</ele>
        <time>2019-02-25T13:28:44Z</time>
      </trkpt>
      <trkpt lat="45.76253" lon="4.36378">
        <ele>595.578</ele>
        <time>2019-02-25T13:28:49Z</time>
      </trkpt>
      <trkpt lat="45.76254" lon="4.36378">
        <ele>595.883</ele>
        <time>2019-02-25T13:28:55Z</time>
      </trkpt>
      <trkpt lat="45.76256" lon="4.36379">
        <ele>595.985</ele>
        <time>2019-02-25T13:29:01Z</time>
      </trkpt>
      <trkpt lat="45.76257" lon="4.36381">
        <ele>596.951</ele>
        <time>2019-02-25T13:29:07Z</time>
      </trkpt>
      <trkpt lat="45.76257" lon="4.36381">
        <ele>598.194</ele>
        <time>2019-02-25T13:29:13Z</time>
      </trkpt>
      <trkpt lat="45.76258" lon="4.36382">
        <ele>599.933</ele>
        <time>2019-02-25T13:29:18Z</time>
      </trkpt>
      <trkpt lat="45.76259" lon="4.36383">
        <ele>600.246</ele>
        <time>2019-02-25T13:29:23Z</time>
      </trkpt>
      <trkpt lat="45.76262" lon="4.36386">
        <ele>601.175</ele>
        <time>2019-02-25T13:29:29Z</time>
      </trkpt>
      <trkpt lat="45.76261" lon="4.36387">
        <ele>601.005</ele>
        <time>2019-02-25T13:29:34Z</time>
      </trkpt>
      <trkpt lat="45.76261" lon="4.36387">
        <ele>601.155</ele>
        <time>2019-02-25T13:29:40Z</time>
      </trkpt>
      <trkpt lat="45.76261" lon="4.36387">
        <ele>601.671</ele>
        <time>2019-02-25T13:29:45Z</time>
      </trkpt>
      <trkpt lat="45.76261" lon="4.36387">
        <ele>601.973</ele>
        <time>2019-02-25T13:29:51Z</time>
      </trkpt>
      <trkpt lat="45.76258" lon="4.36382">
        <ele>603.801</ele>
        <time>2019-02-25T13:29:57Z</time>
      </trkpt>
      <trkpt lat="45.76254" lon="4.3638">
        <ele>605.408</ele>
        <time>2019-02-25T13:30:03Z</time>
      </trkpt>
      <trkpt lat="45.76253" lon="4.36378">
        <ele>606.473</ele>
        <time>2019-02-25T13:30:08Z</time>
      </trkpt>
      <trkpt lat="45.7624" lon="4.36373">
        <ele>607.386</ele>
        <time>2019-02-25T13:30:14Z</time>
      </trkpt>
      <trkpt lat="45.76236" lon="4.36371">
        <ele>608.23</ele>
        <time>2019-02-25T13:30:20Z</time>
      </trkpt>
      <trkpt lat="45.76229" lon="4.3637">
        <ele>609.293</ele>
        <time>2019-02-25T13:30:26Z</time>
      </trkpt>
      <trkpt lat="45.76225" lon="4.36367">
        <ele>610.121</ele>
        <time>2019-02-25T13:30:32Z</time>
      </trkpt>
      <trkpt lat="45.76219" lon="4.36364">
        <ele>611.551</ele>
        <time>2019-02-25T13:30:38Z</time>
      </trkpt>
      <trkpt lat="45.76215" lon="4.36364">
        <ele>612.58</ele>
        <time>2019-02-25T13:30:43Z</time>
      </trkpt>
      <trkpt lat="45.76211" lon="4.36362">
        <ele>613.782</ele>
        <time>2019-02-25T13:30:49Z</time>
      </trkpt>
      <trkpt lat="45.76207" lon="4.36362">
        <ele>614.86</ele>
        <time>2019-02-25T13:30:54Z</time>
      </trkpt>
      <trkpt lat="45.76198" lon="4.36357">
        <ele>615.467</ele>
        <time>2019-02-25T13:31:00Z</time>
      </trkpt>
      <trkpt lat="45.76194" lon="4.36355">
        <ele>615.522</ele>
        <time>2019-02-25T13:31:05Z</time>
      </trkpt>
      <trkpt lat="45.76189" lon="4.36349">
        <ele>615.917</ele>
        <time>2019-02-25T13:31:11Z</time>
      </trkpt>
      <trkpt lat="45.76185" lon="4.36344">
        <ele>616.399</ele>
        <time>2019-02-25T13:31:16Z</time>
      </trkpt>
      <trkpt lat="45.76178" lon="4.3634">
        <ele>616.729</ele>
        <time>2019-02-25T13:31:22Z</time>
      </trkpt>
      <trkpt lat="45.76172" lon="4.36335">
        <ele>616.459</ele>
        <time>2019-02-25T13:31:28Z</time>
      </trkpt>
      <trkpt lat="45.76167" lon="4.36331">
        <ele>616.726</ele>
        <time>2019-02-25T13:31:33Z</time>
      </trkpt>
      <trkpt lat="45.76161" lon="4.36329">
        <ele>617.126</ele>
        <time>2019-02-25T13:31:39Z</time>
      </trkpt>
      <trkpt lat="45.76156" lon="4.36325">
        <ele>617.483</ele>
        <time>2019-02-25T13:31:44Z</time>
      </trkpt>
      <trkpt lat="45.7615" lon="4.3632">
        <ele>618.225</ele>
        <time>2019-02-25T13:31:50Z</time>
      </trkpt>
      <trkpt lat="45.76143" lon="4.36315">
        <ele>618.132</ele>
        <time>2019-02-25T13:31:56Z</time>
      </trkpt>
      <trkpt lat="45.76137" lon="4.3631">
        <ele>618.106</ele>
        <time>2019-02-25T13:32:01Z</time>
      </trkpt>
      <trkpt lat="45.76134" lon="4.36311">
        <ele>618.154</ele>
        <time>2019-02-25T13:32:07Z</time>
      </trkpt>
      <trkpt lat="45.76132" lon="4.36309">
        <ele>618.562</ele>
        <time>2019-02-25T13:32:12Z</time>
      </trkpt>
      <trkpt lat="45.76131" lon="4.36304">
        <ele>619.023</ele>
        <time>2019-02-25T13:32:17Z</time>
      </trkpt>
      <trkpt lat="45.76132" lon="4.36301">
        <ele>619.892</ele>
        <time>2019-02-25T13:32:23Z</time>
      </trkpt>
      <trkpt lat="45.76134" lon="4.363">
        <ele>620.469</ele>
        <time>2019-02-25T13:32:29Z</time>
      </trkpt>
      <trkpt lat="45.76136" lon="4.363">
        <ele>620.409</ele>
        <time>2019-02-25T13:32:35Z</time>
      </trkpt>
      <trkpt lat="45.76138" lon="4.363">
        <ele>620.409</ele>
        <time>2019-02-25T13:32:41Z</time>
      </trkpt>
      <trkpt lat="45.76139" lon="4.36301">
        <ele>620.494</ele>
        <time>2019-02-25T13:32:47Z</time>
      </trkpt>
      <trkpt lat="45.76139" lon="4.36301">
        <ele>620.443</ele>
        <time>2019-02-25T13:32:52Z</time>
      </trkpt>
      <trkpt lat="45.76139" lon="4.363">
        <ele>620.471</ele>
        <time>2019-02-25T13:32:58Z</time>
      </trkpt>
      <trkpt lat="45.76138" lon="4.36299">
        <ele>620.719</ele>
        <time>2019-02-25T13:33:04Z</time>
      </trkpt>
      <trkpt lat="45.76135" lon="4.36299">
        <ele>621.081</ele>
        <time>2019-02-25T13:33:09Z</time>
      </trkpt>
      <trkpt lat="45.76133" lon="4.36301">
        <ele>621.966</ele>
        <time>2019-02-25T13:33:14Z</time>
      </trkpt>
      <trkpt lat="45.76134" lon="4.363">
        <ele>622.129</ele>
        <time>2019-02-25T13:33:20Z</time>
      </trkpt>
      <trkpt lat="45.76135" lon="4.36299">
        <ele>621.83</ele>
        <time>2019-02-25T13:33:26Z</time>
      </trkpt>
      <trkpt lat="45.76137" lon="4.36299">
        <ele>621.808</ele>
        <time>2019-02-25T13:33:32Z</time>
      </trkpt>
      <trkpt lat="45.76135" lon="4.363">
        <ele>621.288</ele>
        <time>2019-02-25T13:33:38Z</time>
      </trkpt>
      <trkpt lat="45.76135" lon="4.363">
        <ele>620.81</ele>
        <time>2019-02-25T13:33:44Z</time>
      </trkpt>
      <trkpt lat="45.76137" lon="4.36302">
        <ele>619.984</ele>
        <time>2019-02-25T13:33:49Z</time>
      </trkpt>
      <trkpt lat="45.76138" lon="4.36302">
        <ele>619.803</ele>
        <time>2019-02-25T13:33:54Z</time>
      </trkpt>
      <trkpt lat="45.76136" lon="4.36303">
        <ele>619.898</ele>
        <time>2019-02-25T13:34:00Z</time>
      </trkpt>
      <trkpt lat="45.76135" lon="4.36303">
        <ele>619.865</ele>
        <time>2019-02-25T13:34:06Z</time>
      </trkpt>
      <trkpt lat="45.76136" lon="4.36303">
        <ele>619.807</ele>
        <time>2019-02-25T13:34:12Z</time>
      </trkpt>
      <trkpt lat="45.76137" lon="4.36302">
        <ele>619.15</ele>
        <time>2019-02-25T13:34:18Z</time>
      </trkpt>
      <trkpt lat="45.76139" lon="4.36299">
        <ele>619.317</ele>
        <time>2019-02-25T13:34:24Z</time>
      </trkpt>
      <trkpt lat="45.76137" lon="4.36296">
        <ele>619.55</ele>
        <time>2019-02-25T13:34:30Z</time>
      </trkpt>
      <trkpt lat="45.76136" lon="4.36296">
        <ele>619.873</ele>
        <time>2019-02-25T13:34:36Z</time>
      </trkpt>
      <trkpt lat="45.76136" lon="4.36297">
        <ele>620.069</ele>
        <time>2019-02-25T13:34:41Z</time>
      </trkpt>
      <trkpt lat="45.76135" lon="4.36298">
        <ele>620.442</ele>
        <time>2019-02-25T13:34:47Z</time>
      </trkpt>
      <trkpt lat="45.76133" lon="4.36299">
        <ele>620.908</ele>
        <time>2019-02-25T13:34:53Z</time>
      </trkpt>
      <trkpt lat="45.76133" lon="4.363">
        <ele>621.051</ele>
        <time>2019-02-25T13:34:59Z</time>
      </trkpt>
      <trkpt lat="45.76135" lon="4.36301">
        <ele>621.116</ele>
        <time>2019-02-25T13:35:05Z</time>
      </trkpt>
      <trkpt lat="45.76133" lon="4.36299">
        <ele>621.101</ele>
        <time>2019-02-25T13:35:10Z</time>
      </trkpt>
      <trkpt lat="45.76135" lon="4.36299">
        <ele>621.092</ele>
        <time>2019-02-25T13:35:15Z</time>
      </trkpt>
      <trkpt lat="45.76137" lon="4.36299">
        <ele>621.081</ele>
        <time>2019-02-25T13:35:21Z</time>
      </trkpt>
      <trkpt lat="45.76137" lon="4.363">
        <ele>621.08</ele>
        <time>2019-02-25T13:35:26Z</time>
      </trkpt>
      <trkpt lat="45.76136" lon="4.36303">
        <ele>620.714</ele>
        <time>2019-02-25T13:35:32Z</time>
      </trkpt>
      <trkpt lat="45.76135" lon="4.36303">
        <ele>620.631</ele>
        <time>2019-02-25T13:35:37Z</time>
      </trkpt>
      <trkpt lat="45.76135" lon="4.36302">
        <ele>620.749</ele>
        <time>2019-02-25T13:35:43Z</time>
      </trkpt>
      <trkpt lat="45.76135" lon="4.36302">
        <ele>620.779</ele>
        <time>2019-02-25T13:35:48Z</time>
      </trkpt>
      <trkpt lat="45.76134" lon="4.36303">
        <ele>620.902</ele>
        <time>2019-02-25T13:35:53Z</time>
      </trkpt>
      <trkpt lat="45.76135" lon="4.36305">
        <ele>621.318</ele>
        <time>2019-02-25T13:35:59Z</time>
      </trkpt>
      <trkpt lat="45.76134" lon="4.36303">
        <ele>621.407</ele>
        <time>2019-02-25T13:36:05Z</time>
      </trkpt>
      <trkpt lat="45.76135" lon="4.36302">
        <ele>621.34</ele>
        <time>2019-02-25T13:36:10Z</time>
      </trkpt>
      <trkpt lat="45.76135" lon="4.36302">
        <ele>621.617</ele>
        <time>2019-02-25T13:36:15Z</time>
      </trkpt>
      <trkpt lat="45.76133" lon="4.36301">
        <ele>621.432</ele>
        <time>2019-02-25T13:36:21Z</time>
      </trkpt>
      <trkpt lat="45.76134" lon="4.36302">
        <ele>621.447</ele>
        <time>2019-02-25T13:36:27Z</time>
      </trkpt>
      <trkpt lat="45.76135" lon="4.36303">
        <ele>621.838</ele>
        <time>2019-02-25T13:36:33Z</time>
      </trkpt>
      <trkpt lat="45.76136" lon="4.36304">
        <ele>622.238</ele>
        <time>2019-02-25T13:36:38Z</time>
      </trkpt>
      <trkpt lat="45.76134" lon="4.36306">
        <ele>622.298</ele>
        <time>2019-02-25T13:36:43Z</time>
      </trkpt>
      <trkpt lat="45.76133" lon="4.36304">
        <ele>622.347</ele>
        <time>2019-02-25T13:36:49Z</time>
      </trkpt>
      <trkpt lat="45.76131" lon="4.36307">
        <ele>622.221</ele>
        <time>2019-02-25T13:36:55Z</time>
      </trkpt>
      <trkpt lat="45.76129" lon="4.36308">
        <ele>621.964</ele>
        <time>2019-02-25T13:37:00Z</time>
      </trkpt>
      <trkpt lat="45.76122" lon="4.36303">
        <ele>621.664</ele>
        <time>2019-02-25T13:37:06Z</time>
      </trkpt>
      <trkpt lat="45.76118" lon="4.36299">
        <ele>621.546</ele>
        <time>2019-02-25T13:37:11Z</time>
      </trkpt>
      <trkpt lat="45.76114" lon="4.36294">
        <ele>621.612</ele>
        <time>2019-02-25T13:37:17Z</time>
      </trkpt>
      <trkpt lat="45.76111" lon="4.36291">
        <ele>621.536</ele>
        <time>2019-02-25T13:37:22Z</time>
      </trkpt>
      <trkpt lat="45.76106" lon="4.36288">
        <ele>621.495</ele>
        <time>2019-02-25T13:37:28Z</time>
      </trkpt>
      <trkpt lat="45.76103" lon="4.36285">
        <ele>621.708</ele>
        <time>2019-02-25T13:37:33Z</time>
      </trkpt>
      <trkpt lat="45.76102" lon="4.3628">
        <ele>622.209</ele>
        <time>2019-02-25T13:37:39Z</time>
      </trkpt>
      <trkpt lat="45.76097" lon="4.36276">
        <ele>622.947</ele>
        <time>2019-02-25T13:37:44Z</time>
      </trkpt>
      <trkpt lat="45.7609" lon="4.36273">
        <ele>623.082</ele>
        <time>2019-02-25T13:37:50Z</time>
      </trkpt>
      <trkpt lat="45.76087" lon="4.36272">
        <ele>622.971</ele>
        <time>2019-02-25T13:37:56Z</time>
      </trkpt>
      <trkpt lat="45.76083" lon="4.3627">
        <ele>622.845</ele>
        <time>2019-02-25T13:38:01Z</time>
      </trkpt>
      <trkpt lat="45.76078" lon="4.36267">
        <ele>622.805</ele>
        <time>2019-02-25T13:38:07Z</time>
      </trkpt>
      <trkpt lat="45.76072" lon="4.36264">
        <ele>622.991</ele>
        <time>2019-02-25T13:38:13Z</time>
      </trkpt>
      <trkpt lat="45.76066" lon="4.36261">
        <ele>622.956</ele>
        <time>2019-02-25T13:38:18Z</time>
      </trkpt>
      <trkpt lat="45.76057" lon="4.36256">
        <ele>623.004</ele>
        <time>2019-02-25T13:38:23Z</time>
      </trkpt>
      <trkpt lat="45.76047" lon="4.36251">
        <ele>623.45</ele>
        <time>2019-02-25T13:38:29Z</time>
      </trkpt>
      <trkpt lat="45.76041" lon="4.36248">
        <ele>624.079</ele>
        <time>2019-02-25T13:38:35Z</time>
      </trkpt>
      <trkpt lat="45.76035" lon="4.36246">
        <ele>624.374</ele>
        <time>2019-02-25T13:38:40Z</time>
      </trkpt>
      <trkpt lat="45.76031" lon="4.36244">
        <ele>624.618</ele>
        <time>2019-02-25T13:38:45Z</time>
      </trkpt>
      <trkpt lat="45.76027" lon="4.36242">
        <ele>624.964</ele>
        <time>2019-02-25T13:38:51Z</time>
      </trkpt>
      <trkpt lat="45.76026" lon="4.36244">
        <ele>625.118</ele>
        <time>2019-02-25T13:38:56Z</time>
      </trkpt>
      <trkpt lat="45.76028" lon="4.36244">
        <ele>625.769</ele>
        <time>2019-02-25T13:39:02Z</time>
      </trkpt>
      <trkpt lat="45.76028" lon="4.36244">
        <ele>626.115</ele>
        <time>2019-02-25T13:39:08Z</time>
      </trkpt>
      <trkpt lat="45.76029" lon="4.36243">
        <ele>626.246</ele>
        <time>2019-02-25T13:39:13Z</time>
      </trkpt>
      <trkpt lat="45.76028" lon="4.36245">
        <ele>626.417</ele>
        <time>2019-02-25T13:39:19Z</time>
      </trkpt>
      <trkpt lat="45.76027" lon="4.36247">
        <ele>627.079</ele>
        <time>2019-02-25T13:39:24Z</time>
      </trkpt>
      <trkpt lat="45.76025" lon="4.3625">
        <ele>627.061</ele>
        <time>2019-02-25T13:39:30Z</time>
      </trkpt>
      <trkpt lat="45.76024" lon="4.36254">
        <ele>627.522</ele>
        <time>2019-02-25T13:39:36Z</time>
      </trkpt>
      <trkpt lat="45.76023" lon="4.36263">
        <ele>627.955</ele>
        <time>2019-02-25T13:39:41Z</time>
      </trkpt>
      <trkpt lat="45.76024" lon="4.36274">
        <ele>628.489</ele>
        <time>2019-02-25T13:39:47Z</time>
      </trkpt>
      <trkpt lat="45.76024" lon="4.36281">
        <ele>628.893</ele>
        <time>2019-02-25T13:39:52Z</time>
      </trkpt>
      <trkpt lat="45.76023" lon="4.3629">
        <ele>628.873</ele>
        <time>2019-02-25T13:39:58Z</time>
      </trkpt>
      <trkpt lat="45.76022" lon="4.36299">
        <ele>628.62</ele>
        <time>2019-02-25T13:40:04Z</time>
      </trkpt>
      <trkpt lat="45.76021" lon="4.36309">
        <ele>628.368</ele>
        <time>2019-02-25T13:40:10Z</time>
      </trkpt>
      <trkpt lat="45.7602" lon="4.36316">
        <ele>628.057</ele>
        <time>2019-02-25T13:40:15Z</time>
      </trkpt>
      <trkpt lat="45.76018" lon="4.36324">
        <ele>627.689</ele>
        <time>2019-02-25T13:40:20Z</time>
      </trkpt>
      <trkpt lat="45.76016" lon="4.36332">
        <ele>627.328</ele>
        <time>2019-02-25T13:40:26Z</time>
      </trkpt>
      <trkpt lat="45.76013" lon="4.3634">
        <ele>627.074</ele>
        <time>2019-02-25T13:40:31Z</time>
      </trkpt>
      <trkpt lat="45.76011" lon="4.36348">
        <ele>626.879</ele>
        <time>2019-02-25T13:40:37Z</time>
      </trkpt>
      <trkpt lat="45.76008" lon="4.36357">
        <ele>626.779</ele>
        <time>2019-02-25T13:40:43Z</time>
      </trkpt>
      <trkpt lat="45.76005" lon="4.36365">
        <ele>626.782</ele>
        <time>2019-02-25T13:40:49Z</time>
      </trkpt>
      <trkpt lat="45.76001" lon="4.36375">
        <ele>626.406</ele>
        <time>2019-02-25T13:40:55Z</time>
      </trkpt>
      <trkpt lat="45.75998" lon="4.36385">
        <ele>626.213</ele>
        <time>2019-02-25T13:41:01Z</time>
      </trkpt>
      <trkpt lat="45.75996" lon="4.36393">
        <ele>626.168</ele>
        <time>2019-02-25T13:41:06Z</time>
      </trkpt>
      <trkpt lat="45.75994" lon="4.36402">
        <ele>625.99</ele>
        <time>2019-02-25T13:41:11Z</time>
      </trkpt>
      <trkpt lat="45.7599" lon="4.36413">
        <ele>625.792</ele>
        <time>2019-02-25T13:41:17Z</time>
      </trkpt>
      <trkpt lat="45.75986" lon="4.36424">
        <ele>625.86</ele>
        <time>2019-02-25T13:41:23Z</time>
      </trkpt>
      <trkpt lat="45.75985" lon="4.36432">
        <ele>626.07</ele>
        <time>2019-02-25T13:41:28Z</time>
      </trkpt>
      <trkpt lat="45.75983" lon="4.36438">
        <ele>626.307</ele>
        <time>2019-02-25T13:41:33Z</time>
      </trkpt>
      <trkpt lat="45.7598" lon="4.36447">
        <ele>626.421</ele>
        <time>2019-02-25T13:41:39Z</time>
      </trkpt>
      <trkpt lat="45.75976" lon="4.36453">
        <ele>626.416</ele>
        <time>2019-02-25T13:41:44Z</time>
      </trkpt>
      <trkpt lat="45.75972" lon="4.36461">
        <ele>626.6</ele>
        <time>2019-02-25T13:41:50Z</time>
      </trkpt>
      <trkpt lat="45.75969" lon="4.36461">
        <ele>627.015</ele>
        <time>2019-02-25T13:41:55Z</time>
      </trkpt>
      <trkpt lat="45.75964" lon="4.36457">
        <ele>626.629</ele>
        <time>2019-02-25T13:42:01Z</time>
      </trkpt>
      <trkpt lat="45.75959" lon="4.36452">
        <ele>626.418</ele>
        <time>2019-02-25T13:42:07Z</time>
      </trkpt>
      <trkpt lat="45.75956" lon="4.36448">
        <ele>626.296</ele>
        <time>2019-02-25T13:42:12Z</time>
      </trkpt>
      <trkpt lat="45.75953" lon="4.36442">
        <ele>626.139</ele>
        <time>2019-02-25T13:42:17Z</time>
      </trkpt>
      <trkpt lat="45.75949" lon="4.36437">
        <ele>626.142</ele>
        <time>2019-02-25T13:42:22Z</time>
      </trkpt>
      <trkpt lat="45.75945" lon="4.3643">
        <ele>626.404</ele>
        <time>2019-02-25T13:42:28Z</time>
      </trkpt>
      <trkpt lat="45.75941" lon="4.36423">
        <ele>626.475</ele>
        <time>2019-02-25T13:42:33Z</time>
      </trkpt>
      <trkpt lat="45.75938" lon="4.36418">
        <ele>626.326</ele>
        <time>2019-02-25T13:42:39Z</time>
      </trkpt>
      <trkpt lat="45.75933" lon="4.3642">
        <ele>626.127</ele>
        <time>2019-02-25T13:42:45Z</time>
      </trkpt>
      <trkpt lat="45.75933" lon="4.3642">
        <ele>625.987</ele>
        <time>2019-02-25T13:42:50Z</time>
      </trkpt>
      <trkpt lat="45.75928" lon="4.36414">
        <ele>625.65</ele>
        <time>2019-02-25T13:42:56Z</time>
      </trkpt>
      <trkpt lat="45.75923" lon="4.36406">
        <ele>625.652</ele>
        <time>2019-02-25T13:43:02Z</time>
      </trkpt>
      <trkpt lat="45.75921" lon="4.36398">
        <ele>625.777</ele>
        <time>2019-02-25T13:43:08Z</time>
      </trkpt>
      <trkpt lat="45.75916" lon="4.36389">
        <ele>625.894</ele>
        <time>2019-02-25T13:43:14Z</time>
      </trkpt>
      <trkpt lat="45.75914" lon="4.36381">
        <ele>625.977</ele>
        <time>2019-02-25T13:43:19Z</time>
      </trkpt>
      <trkpt lat="45.7591" lon="4.36374">
        <ele>626.304</ele>
        <time>2019-02-25T13:43:24Z</time>
      </trkpt>
      <trkpt lat="45.75904" lon="4.36366">
        <ele>626.863</ele>
        <time>2019-02-25T13:43:30Z</time>
      </trkpt>
      <trkpt lat="45.75897" lon="4.36355">
        <ele>627.043</ele>
        <time>2019-02-25T13:43:36Z</time>
      </trkpt>
      <trkpt lat="45.75892" lon="4.36347">
        <ele>626.799</ele>
        <time>2019-02-25T13:43:41Z</time>
      </trkpt>
      <trkpt lat="45.75887" lon="4.36338">
        <ele>626.309</ele>
        <time>2019-02-25T13:43:47Z</time>
      </trkpt>
      <trkpt lat="45.75881" lon="4.36331">
        <ele>625.848</ele>
        <time>2019-02-25T13:43:53Z</time>
      </trkpt>
      <trkpt lat="45.75877" lon="4.36322">
        <ele>625.712</ele>
        <time>2019-02-25T13:43:59Z</time>
      </trkpt>
      <trkpt lat="45.75875" lon="4.36314">
        <ele>625.456</ele>
        <time>2019-02-25T13:44:05Z</time>
      </trkpt>
      <trkpt lat="45.75871" lon="4.36306">
        <ele>625.344</ele>
        <time>2019-02-25T13:44:10Z</time>
      </trkpt>
      <trkpt lat="45.75868" lon="4.36297">
        <ele>624.935</ele>
        <time>2019-02-25T13:44:16Z</time>
      </trkpt>
      <trkpt lat="45.75864" lon="4.36288">
        <ele>624.655</ele>
        <time>2019-02-25T13:44:22Z</time>
      </trkpt>
      <trkpt lat="45.75863" lon="4.36278">
        <ele>624.47</ele>
        <time>2019-02-25T13:44:27Z</time>
      </trkpt>
      <trkpt lat="45.75857" lon="4.3627">
        <ele>624.33</ele>
        <time>2019-02-25T13:44:33Z</time>
      </trkpt>
      <trkpt lat="45.75852" lon="4.36261">
        <ele>624.268</ele>
        <time>2019-02-25T13:44:39Z</time>
      </trkpt>
      <trkpt lat="45.75849" lon="4.36254">
        <ele>624.157</ele>
        <time>2019-02-25T13:44:44Z</time>
      </trkpt>
      <trkpt lat="45.75846" lon="4.36244">
        <ele>624.164</ele>
        <time>2019-02-25T13:44:50Z</time>
      </trkpt>
      <trkpt lat="45.75842" lon="4.36235">
        <ele>624.27</ele>
        <time>2019-02-25T13:44:56Z</time>
      </trkpt>
      <trkpt lat="45.75837" lon="4.36226">
        <ele>624.265</ele>
        <time>2019-02-25T13:45:02Z</time>
      </trkpt>
      <trkpt lat="45.75833" lon="4.36217">
        <ele>624.283</ele>
        <time>2019-02-25T13:45:08Z</time>
      </trkpt>
      <trkpt lat="45.75829" lon="4.3621">
        <ele>624.611</ele>
        <time>2019-02-25T13:45:13Z</time>
      </trkpt>
      <trkpt lat="45.75824" lon="4.36203">
        <ele>624.536</ele>
        <time>2019-02-25T13:45:19Z</time>
      </trkpt>
      <trkpt lat="45.75819" lon="4.36195">
        <ele>624.379</ele>
        <time>2019-02-25T13:45:24Z</time>
      </trkpt>
      <trkpt lat="45.75812" lon="4.36189">
        <ele>624.426</ele>
        <time>2019-02-25T13:45:30Z</time>
      </trkpt>
      <trkpt lat="45.75803" lon="4.36181">
        <ele>624.419</ele>
        <time>2019-02-25T13:45:36Z</time>
      </trkpt>
      <trkpt lat="45.75798" lon="4.36177">
        <ele>624.626</ele>
        <time>2019-02-25T13:45:41Z</time>
      </trkpt>
      <trkpt lat="45.75793" lon="4.36172">
        <ele>624.358</ele>
        <time>2019-02-25T13:45:47Z</time>
      </trkpt>
      <trkpt lat="45.75786" lon="4.36169">
        <ele>624.528</ele>
        <time>2019-02-25T13:45:52Z</time>
      </trkpt>
      <trkpt lat="45.75777" lon="4.36163">
        <ele>624.349</ele>
        <time>2019-02-25T13:45:58Z</time>
      </trkpt>
      <trkpt lat="45.75771" lon="4.36161">
        <ele>623.916</ele>
        <time>2019-02-25T13:46:03Z</time>
      </trkpt>
      <trkpt lat="45.75765" lon="4.36157">
        <ele>623.626</ele>
        <time>2019-02-25T13:46:09Z</time>
      </trkpt>
      <trkpt lat="45.7576" lon="4.36154">
        <ele>623.666</ele>
        <time>2019-02-25T13:46:14Z</time>
      </trkpt>
      <trkpt lat="45.7575" lon="4.36149">
        <ele>623.943</ele>
        <time>2019-02-25T13:46:20Z</time>
      </trkpt>
      <trkpt lat="45.75743" lon="4.36145">
        <ele>623.898</ele>
        <time>2019-02-25T13:46:26Z</time>
      </trkpt>
      <trkpt lat="45.75735" lon="4.36139">
        <ele>623.715</ele>
        <time>2019-02-25T13:46:32Z</time>
      </trkpt>
      <trkpt lat="45.75728" lon="4.36134">
        <ele>623.374</ele>
        <time>2019-02-25T13:46:38Z</time>
      </trkpt>
      <trkpt lat="45.75721" lon="4.36128">
        <ele>623.022</ele>
        <time>2019-02-25T13:46:44Z</time>
      </trkpt>
      <trkpt lat="45.75716" lon="4.36123">
        <ele>622.584</ele>
        <time>2019-02-25T13:46:49Z</time>
      </trkpt>
      <trkpt lat="45.75711" lon="4.36118">
        <ele>622.882</ele>
        <time>2019-02-25T13:46:54Z</time>
      </trkpt>
      <trkpt lat="45.75703" lon="4.36113">
        <ele>623.608</ele>
        <time>2019-02-25T13:47:00Z</time>
      </trkpt>
      <trkpt lat="45.75697" lon="4.3611">
        <ele>624.008</ele>
        <time>2019-02-25T13:47:05Z</time>
      </trkpt>
      <trkpt lat="45.7569" lon="4.36105">
        <ele>624.375</ele>
        <time>2019-02-25T13:47:11Z</time>
      </trkpt>
      <trkpt lat="45.75684" lon="4.36101">
        <ele>624.692</ele>
        <time>2019-02-25T13:47:16Z</time>
      </trkpt>
      <trkpt lat="45.75677" lon="4.36095">
        <ele>625.138</ele>
        <time>2019-02-25T13:47:22Z</time>
      </trkpt>
      <trkpt lat="45.75673" lon="4.36092">
        <ele>625.12</ele>
        <time>2019-02-25T13:47:27Z</time>
      </trkpt>
      <trkpt lat="45.75667" lon="4.36086">
        <ele>624.729</ele>
        <time>2019-02-25T13:47:33Z</time>
      </trkpt>
      <trkpt lat="45.75662" lon="4.36083">
        <ele>624.571</ele>
        <time>2019-02-25T13:47:38Z</time>
      </trkpt>
      <trkpt lat="45.75655" lon="4.3608">
        <ele>624.438</ele>
        <time>2019-02-25T13:47:44Z</time>
      </trkpt>
      <trkpt lat="45.75648" lon="4.36077">
        <ele>624.642</ele>
        <time>2019-02-25T13:47:50Z</time>
      </trkpt>
      <trkpt lat="45.75644" lon="4.36077">
        <ele>624.909</ele>
        <time>2019-02-25T13:47:55Z</time>
      </trkpt>
      <trkpt lat="45.75634" lon="4.36079">
        <ele>625.079</ele>
        <time>2019-02-25T13:48:01Z</time>
      </trkpt>
      <trkpt lat="45.75627" lon="4.36079">
        <ele>624.862</ele>
        <time>2019-02-25T13:48:07Z</time>
      </trkpt>
      <trkpt lat="45.75618" lon="4.36079">
        <ele>625.099</ele>
        <time>2019-02-25T13:48:13Z</time>
      </trkpt>
      <trkpt lat="45.7561" lon="4.36079">
        <ele>625.274</ele>
        <time>2019-02-25T13:48:19Z</time>
      </trkpt>
      <trkpt lat="45.75602" lon="4.3608">
        <ele>625.587</ele>
        <time>2019-02-25T13:48:24Z</time>
      </trkpt>
      <trkpt lat="45.75597" lon="4.36081">
        <ele>625.765</ele>
        <time>2019-02-25T13:48:30Z</time>
      </trkpt>
      <trkpt lat="45.75597" lon="4.36077">
        <ele>625.828</ele>
        <time>2019-02-25T13:48:36Z</time>
      </trkpt>
      <trkpt lat="45.75595" lon="4.36075">
        <ele>625.76</ele>
        <time>2019-02-25T13:48:41Z</time>
      </trkpt>
      <trkpt lat="45.75595" lon="4.36076">
        <ele>625.77</ele>
        <time>2019-02-25T13:48:47Z</time>
      </trkpt>
      <trkpt lat="45.75596" lon="4.36077">
        <ele>626.31</ele>
        <time>2019-02-25T13:48:53Z</time>
      </trkpt>
      <trkpt lat="45.75596" lon="4.36078">
        <ele>626.179</ele>
        <time>2019-02-25T13:48:59Z</time>
      </trkpt>
      <trkpt lat="45.75595" lon="4.36078">
        <ele>625.865</ele>
        <time>2019-02-25T13:49:05Z</time>
      </trkpt>
      <trkpt lat="45.75595" lon="4.3608">
        <ele>625.921</ele>
        <time>2019-02-25T13:49:11Z</time>
      </trkpt>
      <trkpt lat="45.75595" lon="4.36078">
        <ele>625.828</ele>
        <time>2019-02-25T13:49:17Z</time>
      </trkpt>
      <trkpt lat="45.75594" lon="4.36078">
        <ele>625.381</ele>
        <time>2019-02-25T13:49:22Z</time>
      </trkpt>
      <trkpt lat="45.75593" lon="4.36078">
        <ele>625.095</ele>
        <time>2019-02-25T13:49:27Z</time>
      </trkpt>
      <trkpt lat="45.75586" lon="4.3608">
        <ele>625.317</ele>
        <time>2019-02-25T13:49:33Z</time>
      </trkpt>
      <trkpt lat="45.75577" lon="4.3608">
        <ele>625.482</ele>
        <time>2019-02-25T13:49:39Z</time>
      </trkpt>
      <trkpt lat="45.75569" lon="4.3608">
        <ele>625.491</ele>
        <time>2019-02-25T13:49:45Z</time>
      </trkpt>
      <trkpt lat="45.75562" lon="4.36081">
        <ele>625.13</ele>
        <time>2019-02-25T13:49:50Z</time>
      </trkpt>
      <trkpt lat="45.75555" lon="4.36082">
        <ele>625.23</ele>
        <time>2019-02-25T13:49:56Z</time>
      </trkpt>
      <trkpt lat="45.75549" lon="4.36082">
        <ele>625.252</ele>
        <time>2019-02-25T13:50:01Z</time>
      </trkpt>
      <trkpt lat="45.75543" lon="4.3608">
        <ele>624.908</ele>
        <time>2019-02-25T13:50:07Z</time>
      </trkpt>
      <trkpt lat="45.75537" lon="4.36078">
        <ele>624.531</ele>
        <time>2019-02-25T13:50:12Z</time>
      </trkpt>
      <trkpt lat="45.75531" lon="4.36079">
        <ele>624.525</ele>
        <time>2019-02-25T13:50:17Z</time>
      </trkpt>
      <trkpt lat="45.75523" lon="4.36079">
        <ele>624.222</ele>
        <time>2019-02-25T13:50:23Z</time>
      </trkpt>
      <trkpt lat="45.75516" lon="4.36078">
        <ele>623.871</ele>
        <time>2019-02-25T13:50:29Z</time>
      </trkpt>
      <trkpt lat="45.75509" lon="4.36076">
        <ele>623.283</ele>
        <time>2019-02-25T13:50:34Z</time>
      </trkpt>
      <trkpt lat="45.75502" lon="4.36073">
        <ele>622.621</ele>
        <time>2019-02-25T13:50:40Z</time>
      </trkpt>
      <trkpt lat="45.75493" lon="4.36071">
        <ele>622.256</ele>
        <time>2019-02-25T13:50:45Z</time>
      </trkpt>
      <trkpt lat="45.75487" lon="4.36068">
        <ele>621.834</ele>
        <time>2019-02-25T13:50:51Z</time>
      </trkpt>
      <trkpt lat="45.75478" lon="4.36064">
        <ele>621.669</ele>
        <time>2019-02-25T13:50:57Z</time>
      </trkpt>
      <trkpt lat="45.75473" lon="4.36063">
        <ele>621.241</ele>
        <time>2019-02-25T13:51:03Z</time>
      </trkpt>
      <trkpt lat="45.7547" lon="4.36063">
        <ele>621.135</ele>
        <time>2019-02-25T13:51:08Z</time>
      </trkpt>
      <trkpt lat="45.75466" lon="4.36063">
        <ele>620.674</ele>
        <time>2019-02-25T13:51:14Z</time>
      </trkpt>
      <trkpt lat="45.75456" lon="4.36061">
        <ele>620.211</ele>
        <time>2019-02-25T13:51:20Z</time>
      </trkpt>
      <trkpt lat="45.7545" lon="4.36062">
        <ele>620.029</ele>
        <time>2019-02-25T13:51:25Z</time>
      </trkpt>
      <trkpt lat="45.75441" lon="4.36064">
        <ele>619.62</ele>
        <time>2019-02-25T13:51:31Z</time>
      </trkpt>
      <trkpt lat="45.75436" lon="4.36064">
        <ele>619.186</ele>
        <time>2019-02-25T13:51:37Z</time>
      </trkpt>
      <trkpt lat="45.75428" lon="4.36065">
        <ele>619.097</ele>
        <time>2019-02-25T13:51:42Z</time>
      </trkpt>
      <trkpt lat="45.75421" lon="4.36065">
        <ele>619.092</ele>
        <time>2019-02-25T13:51:48Z</time>
      </trkpt>
      <trkpt lat="45.75415" lon="4.36064">
        <ele>618.964</ele>
        <time>2019-02-25T13:51:54Z</time>
      </trkpt>
      <trkpt lat="45.75408" lon="4.36064">
        <ele>619.28</ele>
        <time>2019-02-25T13:52:00Z</time>
      </trkpt>
      <trkpt lat="45.75399" lon="4.36063">
        <ele>619.454</ele>
        <time>2019-02-25T13:52:06Z</time>
      </trkpt>
      <trkpt lat="45.75394" lon="4.36062">
        <ele>619.336</ele>
        <time>2019-02-25T13:52:11Z</time>
      </trkpt>
      <trkpt lat="45.75388" lon="4.36059">
        <ele>618.983</ele>
        <time>2019-02-25T13:52:16Z</time>
      </trkpt>
      <trkpt lat="45.7538" lon="4.36055">
        <ele>618.612</ele>
        <time>2019-02-25T13:52:22Z</time>
      </trkpt>
      <trkpt lat="45.7537" lon="4.36055">
        <ele>618.438</ele>
        <time>2019-02-25T13:52:28Z</time>
      </trkpt>
      <trkpt lat="45.75364" lon="4.36056">
        <ele>618.237</ele>
        <time>2019-02-25T13:52:33Z</time>
      </trkpt>
      <trkpt lat="45.75357" lon="4.36056">
        <ele>618.228</ele>
        <time>2019-02-25T13:52:39Z</time>
      </trkpt>
      <trkpt lat="45.75351" lon="4.36054">
        <ele>618.008</ele>
        <time>2019-02-25T13:52:44Z</time>
      </trkpt>
      <trkpt lat="45.75344" lon="4.36053">
        <ele>618.045</ele>
        <time>2019-02-25T13:52:50Z</time>
      </trkpt>
      <trkpt lat="45.75335" lon="4.36054">
        <ele>618.147</ele>
        <time>2019-02-25T13:52:56Z</time>
      </trkpt>
      <trkpt lat="45.75329" lon="4.36053">
        <ele>618.267</ele>
        <time>2019-02-25T13:53:02Z</time>
      </trkpt>
      <trkpt lat="45.75322" lon="4.36053">
        <ele>618.305</ele>
        <time>2019-02-25T13:53:08Z</time>
      </trkpt>
      <trkpt lat="45.75315" lon="4.36055">
        <ele>618.629</ele>
        <time>2019-02-25T13:53:13Z</time>
      </trkpt>
      <trkpt lat="45.75307" lon="4.36056">
        <ele>618.45</ele>
        <time>2019-02-25T13:53:19Z</time>
      </trkpt>
      <trkpt lat="45.75299" lon="4.36057">
        <ele>618.359</ele>
        <time>2019-02-25T13:53:24Z</time>
      </trkpt>
      <trkpt lat="45.75292" lon="4.36059">
        <ele>618.249</ele>
        <time>2019-02-25T13:53:30Z</time>
      </trkpt>
      <trkpt lat="45.75285" lon="4.3606">
        <ele>618.39</ele>
        <time>2019-02-25T13:53:36Z</time>
      </trkpt>
      <trkpt lat="45.75278" lon="4.36062">
        <ele>618.333</ele>
        <time>2019-02-25T13:53:41Z</time>
      </trkpt>
      <trkpt lat="45.75272" lon="4.36063">
        <ele>618.316</ele>
        <time>2019-02-25T13:53:46Z</time>
      </trkpt>
      <trkpt lat="45.75264" lon="4.36066">
        <ele>618.446</ele>
        <time>2019-02-25T13:53:52Z</time>
      </trkpt>
      <trkpt lat="45.75258" lon="4.3607">
        <ele>618.383</ele>
        <time>2019-02-25T13:53:58Z</time>
      </trkpt>
      <trkpt lat="45.75248" lon="4.36073">
        <ele>618.297</ele>
        <time>2019-02-25T13:54:04Z</time>
      </trkpt>
      <trkpt lat="45.75243" lon="4.36076">
        <ele>618.347</ele>
        <time>2019-02-25T13:54:09Z</time>
      </trkpt>
      <trkpt lat="45.75236" lon="4.36079">
        <ele>618.328</ele>
        <time>2019-02-25T13:54:15Z</time>
      </trkpt>
      <trkpt lat="45.75227" lon="4.3608">
        <ele>618.306</ele>
        <time>2019-02-25T13:54:21Z</time>
      </trkpt>
      <trkpt lat="45.7522" lon="4.36082">
        <ele>618.138</ele>
        <time>2019-02-25T13:54:27Z</time>
      </trkpt>
      <trkpt lat="45.75213" lon="4.36083">
        <ele>617.86</ele>
        <time>2019-02-25T13:54:33Z</time>
      </trkpt>
      <trkpt lat="45.75205" lon="4.36083">
        <ele>617.471</ele>
        <time>2019-02-25T13:54:39Z</time>
      </trkpt>
      <trkpt lat="45.75196" lon="4.36083">
        <ele>617.198</ele>
        <time>2019-02-25T13:54:45Z</time>
      </trkpt>
      <trkpt lat="45.75187" lon="4.36083">
        <ele>617.063</ele>
        <time>2019-02-25T13:54:51Z</time>
      </trkpt>
      <trkpt lat="45.7518" lon="4.36085">
        <ele>617.246</ele>
        <time>2019-02-25T13:54:56Z</time>
      </trkpt>
      <trkpt lat="45.75175" lon="4.36085">
        <ele>617.551</ele>
        <time>2019-02-25T13:55:01Z</time>
      </trkpt>
      <trkpt lat="45.75169" lon="4.36086">
        <ele>617.824</ele>
        <time>2019-02-25T13:55:06Z</time>
      </trkpt>
      <trkpt lat="45.75161" lon="4.36089">
        <ele>617.278</ele>
        <time>2019-02-25T13:55:12Z</time>
      </trkpt>
      <trkpt lat="45.75153" lon="4.3609">
        <ele>617.218</ele>
        <time>2019-02-25T13:55:18Z</time>
      </trkpt>
      <trkpt lat="45.75146" lon="4.36091">
        <ele>617.077</ele>
        <time>2019-02-25T13:55:24Z</time>
      </trkpt>
      <trkpt lat="45.75138" lon="4.36092">
        <ele>617.086</ele>
        <time>2019-02-25T13:55:30Z</time>
      </trkpt>
      <trkpt lat="45.75131" lon="4.36095">
        <ele>617.169</ele>
        <time>2019-02-25T13:55:35Z</time>
      </trkpt>
      <trkpt lat="45.75125" lon="4.36098">
        <ele>617.256</ele>
        <time>2019-02-25T13:55:41Z</time>
      </trkpt>
      <trkpt lat="45.75117" lon="4.361">
        <ele>617.1</ele>
        <time>2019-02-25T13:55:47Z</time>
      </trkpt>
      <trkpt lat="45.7511" lon="4.36103">
        <ele>616.821</ele>
        <time>2019-02-25T13:55:53Z</time>
      </trkpt>
      <trkpt lat="45.75104" lon="4.36104">
        <ele>616.614</ele>
        <time>2019-02-25T13:55:58Z</time>
      </trkpt>
      <trkpt lat="45.75096" lon="4.36107">
        <ele>616.864</ele>
        <time>2019-02-25T13:56:04Z</time>
      </trkpt>
      <trkpt lat="45.75091" lon="4.3611">
        <ele>617.003</ele>
        <time>2019-02-25T13:56:09Z</time>
      </trkpt>
      <trkpt lat="45.75086" lon="4.36112">
        <ele>616.787</ele>
        <time>2019-02-25T13:56:14Z</time>
      </trkpt>
      <trkpt lat="45.75077" lon="4.36115">
        <ele>616.764</ele>
        <time>2019-02-25T13:56:20Z</time>
      </trkpt>
      <trkpt lat="45.75073" lon="4.36119">
        <ele>616.833</ele>
        <time>2019-02-25T13:56:26Z</time>
      </trkpt>
      <trkpt lat="45.75073" lon="4.36118">
        <ele>616.474</ele>
        <time>2019-02-25T13:56:32Z</time>
      </trkpt>
      <trkpt lat="45.75073" lon="4.36119">
        <ele>616.46</ele>
        <time>2019-02-25T13:56:38Z</time>
      </trkpt>
      <trkpt lat="45.75074" lon="4.36121">
        <ele>616.593</ele>
        <time>2019-02-25T13:56:43Z</time>
      </trkpt>
      <trkpt lat="45.75074" lon="4.36122">
        <ele>616.463</ele>
        <time>2019-02-25T13:56:48Z</time>
      </trkpt>
      <trkpt lat="45.75074" lon="4.3612">
        <ele>616.436</ele>
        <time>2019-02-25T13:56:54Z</time>
      </trkpt>
      <trkpt lat="45.75073" lon="4.36121">
        <ele>616.486</ele>
        <time>2019-02-25T13:56:59Z</time>
      </trkpt>
      <trkpt lat="45.75073" lon="4.36121">
        <ele>616.685</ele>
        <time>2019-02-25T13:57:05Z</time>
      </trkpt>
      <trkpt lat="45.75072" lon="4.36121">
        <ele>616.812</ele>
        <time>2019-02-25T13:57:10Z</time>
      </trkpt>
      <trkpt lat="45.75073" lon="4.36121">
        <ele>616.758</ele>
        <time>2019-02-25T13:57:16Z</time>
      </trkpt>
      <trkpt lat="45.75072" lon="4.36121">
        <ele>617.21</ele>
        <time>2019-02-25T13:57:22Z</time>
      </trkpt>
      <trkpt lat="45.75072" lon="4.3612">
        <ele>617.441</ele>
        <time>2019-02-25T13:57:27Z</time>
      </trkpt>
      <trkpt lat="45.75071" lon="4.3612">
        <ele>616.776</ele>
        <time>2019-02-25T13:57:33Z</time>
      </trkpt>
      <trkpt lat="45.75072" lon="4.36121">
        <ele>616.516</ele>
        <time>2019-02-25T13:57:39Z</time>
      </trkpt>
      <trkpt lat="45.75073" lon="4.36122">
        <ele>615.903</ele>
        <time>2019-02-25T13:57:44Z</time>
      </trkpt>
      <trkpt lat="45.75074" lon="4.36123">
        <ele>615.654</ele>
        <time>2019-02-25T13:57:49Z</time>
      </trkpt>
      <trkpt lat="45.75074" lon="4.36126">
        <ele>616.151</ele>
        <time>2019-02-25T13:57:55Z</time>
      </trkpt>
      <trkpt lat="45.75072" lon="4.36135">
        <ele>616.287</ele>
        <time>2019-02-25T13:58:01Z</time>
      </trkpt>
      <trkpt lat="45.7507" lon="4.36142">
        <ele>616.506</ele>
        <time>2019-02-25T13:58:07Z</time>
      </trkpt>
      <trkpt lat="45.75066" lon="4.36152">
        <ele>616.571</ele>
        <time>2019-02-25T13:58:13Z</time>
      </trkpt>
      <trkpt lat="45.75064" lon="4.36161">
        <ele>616.005</ele>
        <time>2019-02-25T13:58:19Z</time>
      </trkpt>
      <trkpt lat="45.75062" lon="4.36168">
        <ele>615.468</ele>
        <time>2019-02-25T13:58:24Z</time>
      </trkpt>
      <trkpt lat="45.75061" lon="4.36176">
        <ele>614.999</ele>
        <time>2019-02-25T13:58:30Z</time>
      </trkpt>
      <trkpt lat="45.75059" lon="4.36188">
        <ele>614.48</ele>
        <time>2019-02-25T13:58:36Z</time>
      </trkpt>
      <trkpt lat="45.75058" lon="4.36195">
        <ele>614</ele>
        <time>2019-02-25T13:58:41Z</time>
      </trkpt>
      <trkpt lat="45.75055" lon="4.36207">
        <ele>613.575</ele>
        <time>2019-02-25T13:58:47Z</time>
      </trkpt>
      <trkpt lat="45.75053" lon="4.36215">
        <ele>613.27</ele>
        <time>2019-02-25T13:58:52Z</time>
      </trkpt>
      <trkpt lat="45.75053" lon="4.36224">
        <ele>613.205</ele>
        <time>2019-02-25T13:58:58Z</time>
      </trkpt>
      <trkpt lat="45.75051" lon="4.36234">
        <ele>613.214</ele>
        <time>2019-02-25T13:59:04Z</time>
      </trkpt>
      <trkpt lat="45.75047" lon="4.36241">
        <ele>613.08</ele>
        <time>2019-02-25T13:59:09Z</time>
      </trkpt>
      <trkpt lat="45.75045" lon="4.36249">
        <ele>613.157</ele>
        <time>2019-02-25T13:59:15Z</time>
      </trkpt>
      <trkpt lat="45.75042" lon="4.36259">
        <ele>612.99</ele>
        <time>2019-02-25T13:59:20Z</time>
      </trkpt>
      <trkpt lat="45.75038" lon="4.36269">
        <ele>612.412</ele>
        <time>2019-02-25T13:59:26Z</time>
      </trkpt>
      <trkpt lat="45.75035" lon="4.36279">
        <ele>612.051</ele>
        <time>2019-02-25T13:59:32Z</time>
      </trkpt>
      <trkpt lat="45.75034" lon="4.36286">
        <ele>611.729</ele>
        <time>2019-02-25T13:59:37Z</time>
      </trkpt>
      <trkpt lat="45.75031" lon="4.36296">
        <ele>611.37</ele>
        <time>2019-02-25T13:59:43Z</time>
      </trkpt>
      <trkpt lat="45.75027" lon="4.36309">
        <ele>610.753</ele>
        <time>2019-02-25T13:59:49Z</time>
      </trkpt>
      <trkpt lat="45.75025" lon="4.36315">
        <ele>610.289</ele>
        <time>2019-02-25T13:59:54Z</time>
      </trkpt>
      <trkpt lat="45.75022" lon="4.36326">
        <ele>609.886</ele>
        <time>2019-02-25T14:00:00Z</time>
      </trkpt>
      <trkpt lat="45.7502" lon="4.36337">
        <ele>609.208</ele>
        <time>2019-02-25T14:00:06Z</time>
      </trkpt>
      <trkpt lat="45.75017" lon="4.36346">
        <ele>608.774</ele>
        <time>2019-02-25T14:00:11Z</time>
      </trkpt>
      <trkpt lat="45.75016" lon="4.36354">
        <ele>608.25</ele>
        <time>2019-02-25T14:00:17Z</time>
      </trkpt>
      <trkpt lat="45.75013" lon="4.36361">
        <ele>607.714</ele>
        <time>2019-02-25T14:00:22Z</time>
      </trkpt>
      <trkpt lat="45.75014" lon="4.36372">
        <ele>607.122</ele>
        <time>2019-02-25T14:00:28Z</time>
      </trkpt>
      <trkpt lat="45.75013" lon="4.36379">
        <ele>606.495</ele>
        <time>2019-02-25T14:00:34Z</time>
      </trkpt>
      <trkpt lat="45.75007" lon="4.36389">
        <ele>606.18</ele>
        <time>2019-02-25T14:00:40Z</time>
      </trkpt>
      <trkpt lat="45.75001" lon="4.36399">
        <ele>605.491</ele>
        <time>2019-02-25T14:00:46Z</time>
      </trkpt>
      <trkpt lat="45.74998" lon="4.36405">
        <ele>604.911</ele>
        <time>2019-02-25T14:00:51Z</time>
      </trkpt>
      <trkpt lat="45.74994" lon="4.36413">
        <ele>603.996</ele>
        <time>2019-02-25T14:00:57Z</time>
      </trkpt>
      <trkpt lat="45.74988" lon="4.36422">
        <ele>603.129</ele>
        <time>2019-02-25T14:01:03Z</time>
      </trkpt>
      <trkpt lat="45.74984" lon="4.36429">
        <ele>602.323</ele>
        <time>2019-02-25T14:01:08Z</time>
      </trkpt>
      <trkpt lat="45.74981" lon="4.36437">
        <ele>601.372</ele>
        <time>2019-02-25T14:01:14Z</time>
      </trkpt>
      <trkpt lat="45.74978" lon="4.36444">
        <ele>600.551</ele>
        <time>2019-02-25T14:01:19Z</time>
      </trkpt>
      <trkpt lat="45.74975" lon="4.36454">
        <ele>599.603</ele>
        <time>2019-02-25T14:01:25Z</time>
      </trkpt>
      <trkpt lat="45.7497" lon="4.36462">
        <ele>599.101</ele>
        <time>2019-02-25T14:01:30Z</time>
      </trkpt>
      <trkpt lat="45.74962" lon="4.36471">
        <ele>598.087</ele>
        <time>2019-02-25T14:01:36Z</time>
      </trkpt>
      <trkpt lat="45.74958" lon="4.36479">
        <ele>596.93</ele>
        <time>2019-02-25T14:01:42Z</time>
      </trkpt>
      <trkpt lat="45.74954" lon="4.36486">
        <ele>595.97</ele>
        <time>2019-02-25T14:01:47Z</time>
      </trkpt>
      <trkpt lat="45.74948" lon="4.36495">
        <ele>594.824</ele>
        <time>2019-02-25T14:01:53Z</time>
      </trkpt>
      <trkpt lat="45.74943" lon="4.36502">
        <ele>593.844</ele>
        <time>2019-02-25T14:01:58Z</time>
      </trkpt>
      <trkpt lat="45.7494" lon="4.36509">
        <ele>592.755</ele>
        <time>2019-02-25T14:02:03Z</time>
      </trkpt>
      <trkpt lat="45.74937" lon="4.36515">
        <ele>591.902</ele>
        <time>2019-02-25T14:02:09Z</time>
      </trkpt>
      <trkpt lat="45.74934" lon="4.36524">
        <ele>591.115</ele>
        <time>2019-02-25T14:02:15Z</time>
      </trkpt>
      <trkpt lat="45.74929" lon="4.3653">
        <ele>590.394</ele>
        <time>2019-02-25T14:02:20Z</time>
      </trkpt>
      <trkpt lat="45.74925" lon="4.36537">
        <ele>589.345</ele>
        <time>2019-02-25T14:02:26Z</time>
      </trkpt>
      <trkpt lat="45.74923" lon="4.36543">
        <ele>588.558</ele>
        <time>2019-02-25T14:02:31Z</time>
      </trkpt>
      <trkpt lat="45.74919" lon="4.36553">
        <ele>588.017</ele>
        <time>2019-02-25T14:02:37Z</time>
      </trkpt>
      <trkpt lat="45.74916" lon="4.3656">
        <ele>587.604</ele>
        <time>2019-02-25T14:02:42Z</time>
      </trkpt>
      <trkpt lat="45.74911" lon="4.36569">
        <ele>586.992</ele>
        <time>2019-02-25T14:02:48Z</time>
      </trkpt>
      <trkpt lat="45.74904" lon="4.36579">
        <ele>586.289</ele>
        <time>2019-02-25T14:02:54Z</time>
      </trkpt>
      <trkpt lat="45.749" lon="4.36586">
        <ele>585.522</ele>
        <time>2019-02-25T14:02:59Z</time>
      </trkpt>
      <trkpt lat="45.74897" lon="4.36594">
        <ele>584.65</ele>
        <time>2019-02-25T14:03:04Z</time>
      </trkpt>
      <trkpt lat="45.74893" lon="4.36601">
        <ele>583.628</ele>
        <time>2019-02-25T14:03:10Z</time>
      </trkpt>
      <trkpt lat="45.74889" lon="4.3661">
        <ele>582.642</ele>
        <time>2019-02-25T14:03:16Z</time>
      </trkpt>
      <trkpt lat="45.74887" lon="4.36619">
        <ele>581.991</ele>
        <time>2019-02-25T14:03:21Z</time>
      </trkpt>
      <trkpt lat="45.74884" lon="4.36628">
        <ele>581.047</ele>
        <time>2019-02-25T14:03:27Z</time>
      </trkpt>
      <trkpt lat="45.74883" lon="4.36636">
        <ele>579.937</ele>
        <time>2019-02-25T14:03:32Z</time>
      </trkpt>
      <trkpt lat="45.74881" lon="4.36644">
        <ele>579.013</ele>
        <time>2019-02-25T14:03:37Z</time>
      </trkpt>
      <trkpt lat="45.74879" lon="4.36656">
        <ele>577.895</ele>
        <time>2019-02-25T14:03:43Z</time>
      </trkpt>
      <trkpt lat="45.74877" lon="4.36663">
        <ele>577.305</ele>
        <time>2019-02-25T14:03:48Z</time>
      </trkpt>
      <trkpt lat="45.74873" lon="4.36671">
        <ele>576.416</ele>
        <time>2019-02-25T14:03:54Z</time>
      </trkpt>
      <trkpt lat="45.74872" lon="4.36682">
        <ele>575.793</ele>
        <time>2019-02-25T14:04:00Z</time>
      </trkpt>
      <trkpt lat="45.74871" lon="4.36686">
        <ele>574.77</ele>
        <time>2019-02-25T14:04:06Z</time>
      </trkpt>
      <trkpt lat="45.7487" lon="4.36693">
        <ele>573.962</ele>
        <time>2019-02-25T14:04:12Z</time>
      </trkpt>
      <trkpt lat="45.74868" lon="4.36698">
        <ele>573.208</ele>
        <time>2019-02-25T14:04:17Z</time>
      </trkpt>
      <trkpt lat="45.74867" lon="4.36704">
        <ele>572.307</ele>
        <time>2019-02-25T14:04:23Z</time>
      </trkpt>
      <trkpt lat="45.74867" lon="4.36711">
        <ele>571.753</ele>
        <time>2019-02-25T14:04:29Z</time>
      </trkpt>
      <trkpt lat="45.74868" lon="4.36718">
        <ele>570.883</ele>
        <time>2019-02-25T14:04:35Z</time>
      </trkpt>
      <trkpt lat="45.74868" lon="4.36724">
        <ele>570.15</ele>
        <time>2019-02-25T14:04:41Z</time>
      </trkpt>
      <trkpt lat="45.74869" lon="4.3673">
        <ele>569.646</ele>
        <time>2019-02-25T14:04:47Z</time>
      </trkpt>
      <trkpt lat="45.7487" lon="4.36734">
        <ele>569.055</ele>
        <time>2019-02-25T14:04:52Z</time>
      </trkpt>
      <trkpt lat="45.7487" lon="4.36739">
        <ele>568.539</ele>
        <time>2019-02-25T14:04:57Z</time>
      </trkpt>
      <trkpt lat="45.74868" lon="4.36748">
        <ele>567.705</ele>
        <time>2019-02-25T14:05:02Z</time>
      </trkpt>
      <trkpt lat="45.74864" lon="4.36756">
        <ele>566.599</ele>
        <time>2019-02-25T14:05:08Z</time>
      </trkpt>
      <trkpt lat="45.7486" lon="4.36764">
        <ele>566.056</ele>
        <time>2019-02-25T14:05:13Z</time>
      </trkpt>
      <trkpt lat="45.74855" lon="4.36768">
        <ele>565.012</ele>
        <time>2019-02-25T14:05:19Z</time>
      </trkpt>
      <trkpt lat="45.74851" lon="4.36773">
        <ele>563.97</ele>
        <time>2019-02-25T14:05:25Z</time>
      </trkpt>
      <trkpt lat="45.74849" lon="4.36775">
        <ele>563.322</ele>
        <time>2019-02-25T14:05:30Z</time>
      </trkpt>
      <trkpt lat="45.74845" lon="4.36779">
        <ele>562.244</ele>
        <time>2019-02-25T14:05:35Z</time>
      </trkpt>
      <trkpt lat="45.7484" lon="4.36784">
        <ele>560.88</ele>
        <time>2019-02-25T14:05:41Z</time>
      </trkpt>
      <trkpt lat="45.74838" lon="4.36786">
        <ele>560.155</ele>
        <time>2019-02-25T14:05:47Z</time>
      </trkpt>
      <trkpt lat="45.74837" lon="4.36788">
        <ele>559.697</ele>
        <time>2019-02-25T14:05:52Z</time>
      </trkpt>
      <trkpt lat="45.74834" lon="4.36791">
        <ele>559.061</ele>
        <time>2019-02-25T14:05:58Z</time>
      </trkpt>
      <trkpt lat="45.74835" lon="4.36798">
        <ele>557.915</ele>
        <time>2019-02-25T14:06:04Z</time>
      </trkpt>
      <trkpt lat="45.74835" lon="4.36798">
        <ele>557.133</ele>
        <time>2019-02-25T14:06:09Z</time>
      </trkpt>
      <trkpt lat="45.74839" lon="4.36801">
        <ele>556.033</ele>
        <time>2019-02-25T14:06:15Z</time>
      </trkpt>
      <trkpt lat="45.74841" lon="4.36806">
        <ele>555.4</ele>
        <time>2019-02-25T14:06:21Z</time>
      </trkpt>
      <trkpt lat="45.74844" lon="4.36807">
        <ele>554.966</ele>
        <time>2019-02-25T14:06:26Z</time>
      </trkpt>
      <trkpt lat="45.74849" lon="4.36812">
        <ele>554.434</ele>
        <time>2019-02-25T14:06:32Z</time>
      </trkpt>
      <trkpt lat="45.74853" lon="4.36816">
        <ele>553.658</ele>
        <time>2019-02-25T14:06:38Z</time>
      </trkpt>
      <trkpt lat="45.74856" lon="4.36819">
        <ele>552.564</ele>
        <time>2019-02-25T14:06:44Z</time>
      </trkpt>
      <trkpt lat="45.74858" lon="4.36821">
        <ele>552.009</ele>
        <time>2019-02-25T14:06:49Z</time>
      </trkpt>
      <trkpt lat="45.74859" lon="4.36822">
        <ele>550.71</ele>
        <time>2019-02-25T14:06:54Z</time>
      </trkpt>
      <trkpt lat="45.74863" lon="4.36827">
        <ele>549.165</ele>
        <time>2019-02-25T14:07:00Z</time>
      </trkpt>
      <trkpt lat="45.74866" lon="4.36831">
        <ele>548.363</ele>
        <time>2019-02-25T14:07:05Z</time>
      </trkpt>
      <trkpt lat="45.7487" lon="4.36834">
        <ele>547.885</ele>
        <time>2019-02-25T14:07:11Z</time>
      </trkpt>
      <trkpt lat="45.74873" lon="4.36838">
        <ele>547.267</ele>
        <time>2019-02-25T14:07:17Z</time>
      </trkpt>
      <trkpt lat="45.74875" lon="4.36844">
        <ele>546.36</ele>
        <time>2019-02-25T14:07:23Z</time>
      </trkpt>
      <trkpt lat="45.74877" lon="4.36847">
        <ele>545.84</ele>
        <time>2019-02-25T14:07:29Z</time>
      </trkpt>
      <trkpt lat="45.74878" lon="4.36851">
        <ele>545.329</ele>
        <time>2019-02-25T14:07:35Z</time>
      </trkpt>
      <trkpt lat="45.74882" lon="4.3686">
        <ele>544.097</ele>
        <time>2019-02-25T14:07:41Z</time>
      </trkpt>
      <trkpt lat="45.74886" lon="4.36868">
        <ele>543.112</ele>
        <time>2019-02-25T14:07:46Z</time>
      </trkpt>
      <trkpt lat="45.74889" lon="4.36874">
        <ele>542.318</ele>
        <time>2019-02-25T14:07:52Z</time>
      </trkpt>
      <trkpt lat="45.7489" lon="4.36881">
        <ele>541.104</ele>
        <time>2019-02-25T14:07:58Z</time>
      </trkpt>
      <trkpt lat="45.7489" lon="4.36893">
        <ele>540.085</ele>
        <time>2019-02-25T14:08:04Z</time>
      </trkpt>
      <trkpt lat="45.74889" lon="4.36895">
        <ele>539.741</ele>
        <time>2019-02-25T14:08:09Z</time>
      </trkpt>
      <trkpt lat="45.74886" lon="4.36896">
        <ele>538.728</ele>
        <time>2019-02-25T14:08:15Z</time>
      </trkpt>
      <trkpt lat="45.74888" lon="4.36897">
        <ele>537.475</ele>
        <time>2019-02-25T14:08:21Z</time>
      </trkpt>
      <trkpt lat="45.74893" lon="4.36902">
        <ele>536.96</ele>
        <time>2019-02-25T14:08:26Z</time>
      </trkpt>
      <trkpt lat="45.74895" lon="4.36912">
        <ele>536.267</ele>
        <time>2019-02-25T14:08:32Z</time>
      </trkpt>
      <trkpt lat="45.74897" lon="4.36915">
        <ele>536.021</ele>
        <time>2019-02-25T14:08:37Z</time>
      </trkpt>
      <trkpt lat="45.74897" lon="4.36915">
        <ele>535.942</ele>
        <time>2019-02-25T14:08:43Z</time>
      </trkpt>
      <trkpt lat="45.74898" lon="4.3691">
        <ele>535.82</ele>
        <time>2019-02-25T14:08:48Z</time>
      </trkpt>
      <trkpt lat="45.74901" lon="4.36904">
        <ele>535.668</ele>
        <time>2019-02-25T14:08:53Z</time>
      </trkpt>
      <trkpt lat="45.74905" lon="4.36902">
        <ele>535.452</ele>
        <time>2019-02-25T14:08:59Z</time>
      </trkpt>
      <trkpt lat="45.74905" lon="4.36902">
        <ele>534.603</ele>
        <time>2019-02-25T14:09:05Z</time>
      </trkpt>
      <trkpt lat="45.74904" lon="4.36903">
        <ele>534.441</ele>
        <time>2019-02-25T14:09:11Z</time>
      </trkpt>
      <trkpt lat="45.74903" lon="4.36903">
        <ele>534.086</ele>
        <time>2019-02-25T14:09:17Z</time>
      </trkpt>
      <trkpt lat="45.74903" lon="4.36903">
        <ele>534.004</ele>
        <time>2019-02-25T14:09:23Z</time>
      </trkpt>
      <trkpt lat="45.74903" lon="4.36903">
        <ele>534.012</ele>
        <time>2019-02-25T14:09:28Z</time>
      </trkpt>
      <trkpt lat="45.74903" lon="4.36903">
        <ele>534.076</ele>
        <time>2019-02-25T14:09:34Z</time>
      </trkpt>
      <trkpt lat="45.74903" lon="4.36903">
        <ele>534.203</ele>
        <time>2019-02-25T14:09:39Z</time>
      </trkpt>
      <trkpt lat="45.74903" lon="4.36903">
        <ele>534.416</ele>
        <time>2019-02-25T14:09:45Z</time>
      </trkpt>
      <trkpt lat="45.74903" lon="4.36903">
        <ele>534.57</ele>
        <time>2019-02-25T14:09:50Z</time>
      </trkpt>
      <trkpt lat="45.74903" lon="4.36903">
        <ele>534.685</ele>
        <time>2019-02-25T14:09:55Z</time>
      </trkpt>
      <trkpt lat="45.74903" lon="4.36903">
        <ele>534.786</ele>
        <time>2019-02-25T14:10:01Z</time>
      </trkpt>
      <trkpt lat="45.74903" lon="4.36903">
        <ele>535.102</ele>
        <time>2019-02-25T14:10:07Z</time>
      </trkpt>
      <trkpt lat="45.74903" lon="4.36903">
        <ele>535.149</ele>
        <time>2019-02-25T14:10:13Z</time>
      </trkpt>
      <trkpt lat="45.74904" lon="4.36902">
        <ele>534.114</ele>
        <time>2019-02-25T14:10:18Z</time>
      </trkpt>
      <trkpt lat="45.74904" lon="4.36901">
        <ele>533.169</ele>
        <time>2019-02-25T14:10:24Z</time>
      </trkpt>
      <trkpt lat="45.74901" lon="4.36899">
        <ele>532.532</ele>
        <time>2019-02-25T14:10:30Z</time>
      </trkpt>
      <trkpt lat="45.74899" lon="4.36898">
        <ele>532.706</ele>
        <time>2019-02-25T14:10:35Z</time>
      </trkpt>
      <trkpt lat="45.74897" lon="4.36895">
        <ele>533.56</ele>
        <time>2019-02-25T14:10:41Z</time>
      </trkpt>
      <trkpt lat="45.74895" lon="4.36892">
        <ele>533.836</ele>
        <time>2019-02-25T14:10:47Z</time>
      </trkpt>
      <trkpt lat="45.74892" lon="4.36895">
        <ele>533.966</ele>
        <time>2019-02-25T14:10:53Z</time>
      </trkpt>
      <trkpt lat="45.74891" lon="4.36897">
        <ele>534.248</ele>
        <time>2019-02-25T14:10:59Z</time>
      </trkpt>
      <trkpt lat="45.74891" lon="4.36897">
        <ele>534.2</ele>
        <time>2019-02-25T14:11:05Z</time>
      </trkpt>
      <trkpt lat="45.74891" lon="4.36897">
        <ele>534.151</ele>
        <time>2019-02-25T14:11:11Z</time>
      </trkpt>
      <trkpt lat="45.74891" lon="4.36897">
        <ele>534.045</ele>
        <time>2019-02-25T14:11:16Z</time>
      </trkpt>
      <trkpt lat="45.74891" lon="4.36897">
        <ele>534.027</ele>
        <time>2019-02-25T14:11:22Z</time>
      </trkpt>
      <trkpt lat="45.74891" lon="4.36897">
        <ele>534.049</ele>
        <time>2019-02-25T14:11:27Z</time>
      </trkpt>
      <trkpt lat="45.74891" lon="4.36897">
        <ele>534.126</ele>
        <time>2019-02-25T14:11:32Z</time>
      </trkpt>
      <trkpt lat="45.74891" lon="4.36897">
        <ele>534.226</ele>
        <time>2019-02-25T14:11:38Z</time>
      </trkpt>
      <trkpt lat="45.74891" lon="4.36897">
        <ele>534.29</ele>
        <time>2019-02-25T14:11:43Z</time>
      </trkpt>
      <trkpt lat="45.74891" lon="4.36897">
        <ele>534.675</ele>
        <time>2019-02-25T14:11:48Z</time>
      </trkpt>
      <trkpt lat="45.74887" lon="4.36899">
        <ele>534.954</ele>
        <time>2019-02-25T14:11:54Z</time>
      </trkpt>
      <trkpt lat="45.74882" lon="4.36901">
        <ele>534.579</ele>
        <time>2019-02-25T14:12:00Z</time>
      </trkpt>
      <trkpt lat="45.74881" lon="4.36902">
        <ele>534.034</ele>
        <time>2019-02-25T14:12:06Z</time>
      </trkpt>
      <trkpt lat="45.7488" lon="4.36902">
        <ele>533.728</ele>
        <time>2019-02-25T14:12:11Z</time>
      </trkpt>
      <trkpt lat="45.74879" lon="4.36903">
        <ele>533.163</ele>
        <time>2019-02-25T14:12:17Z</time>
      </trkpt>
      <trkpt lat="45.74876" lon="4.36904">
        <ele>532.335</ele>
        <time>2019-02-25T14:12:23Z</time>
      </trkpt>
      <trkpt lat="45.74873" lon="4.36904">
        <ele>532.09</ele>
        <time>2019-02-25T14:12:28Z</time>
      </trkpt>
      <trkpt lat="45.74869" lon="4.36906">
        <ele>531.789</ele>
        <time>2019-02-25T14:12:34Z</time>
      </trkpt>
      <trkpt lat="45.74859" lon="4.36908">
        <ele>531.457</ele>
        <time>2019-02-25T14:12:40Z</time>
      </trkpt>
      <trkpt lat="45.74856" lon="4.36908">
        <ele>531.308</ele>
        <time>2019-02-25T14:12:46Z</time>
      </trkpt>
      <trkpt lat="45.74855" lon="4.36909">
        <ele>531.39</ele>
        <time>2019-02-25T14:12:52Z</time>
      </trkpt>
      <trkpt lat="45.74854" lon="4.3691">
        <ele>531.48</ele>
        <time>2019-02-25T14:12:58Z</time>
      </trkpt>
      <trkpt lat="45.74854" lon="4.3691">
        <ele>531.779</ele>
        <time>2019-02-25T14:13:03Z</time>
      </trkpt>
      <trkpt lat="45.74853" lon="4.3691">
        <ele>531.979</ele>
        <time>2019-02-25T14:13:09Z</time>
      </trkpt>
      <trkpt lat="45.74849" lon="4.36919">
        <ele>532.185</ele>
        <time>2019-02-25T14:13:14Z</time>
      </trkpt>
      <trkpt lat="45.74846" lon="4.36924">
        <ele>532.273</ele>
        <time>2019-02-25T14:13:20Z</time>
      </trkpt>
      <trkpt lat="45.74843" lon="4.36926">
        <ele>532.189</ele>
        <time>2019-02-25T14:13:25Z</time>
      </trkpt>
      <trkpt lat="45.7484" lon="4.36929">
        <ele>532.76</ele>
        <time>2019-02-25T14:13:31Z</time>
      </trkpt>
      <trkpt lat="45.74833" lon="4.36937">
        <ele>532.536</ele>
        <time>2019-02-25T14:13:36Z</time>
      </trkpt>
      <trkpt lat="45.74828" lon="4.36942">
        <ele>531.957</ele>
        <time>2019-02-25T14:13:41Z</time>
      </trkpt>
      <trkpt lat="45.74821" lon="4.36951">
        <ele>531.993</ele>
        <time>2019-02-25T14:13:47Z</time>
      </trkpt>
      <trkpt lat="45.74816" lon="4.36954">
        <ele>532.063</ele>
        <time>2019-02-25T14:13:53Z</time>
      </trkpt>
      <trkpt lat="45.74812" lon="4.36957">
        <ele>532.134</ele>
        <time>2019-02-25T14:13:58Z</time>
      </trkpt>
      <trkpt lat="45.74807" lon="4.36966">
        <ele>532.52</ele>
        <time>2019-02-25T14:14:04Z</time>
      </trkpt>
      <trkpt lat="45.74803" lon="4.36976">
        <ele>532.466</ele>
        <time>2019-02-25T14:14:10Z</time>
      </trkpt>
      <trkpt lat="45.74803" lon="4.36984">
        <ele>531.795</ele>
        <time>2019-02-25T14:14:15Z</time>
      </trkpt>
      <trkpt lat="45.74801" lon="4.36993">
        <ele>531.651</ele>
        <time>2019-02-25T14:14:21Z</time>
      </trkpt>
      <trkpt lat="45.74801" lon="4.37">
        <ele>531.267</ele>
        <time>2019-02-25T14:14:26Z</time>
      </trkpt>
      <trkpt lat="45.74798" lon="4.37005">
        <ele>530.816</ele>
        <time>2019-02-25T14:14:31Z</time>
      </trkpt>
      <trkpt lat="45.74794" lon="4.37016">
        <ele>531.176</ele>
        <time>2019-02-25T14:14:37Z</time>
      </trkpt>
      <trkpt lat="45.74792" lon="4.37022">
        <ele>531.765</ele>
        <time>2019-02-25T14:14:43Z</time>
      </trkpt>
      <trkpt lat="45.74789" lon="4.37027">
        <ele>532.249</ele>
        <time>2019-02-25T14:14:48Z</time>
      </trkpt>
      <trkpt lat="45.74784" lon="4.37034">
        <ele>532.826</ele>
        <time>2019-02-25T14:14:53Z</time>
      </trkpt>
      <trkpt lat="45.74779" lon="4.3704">
        <ele>533.533</ele>
        <time>2019-02-25T14:14:59Z</time>
      </trkpt>
      <trkpt lat="45.74777" lon="4.37045">
        <ele>534.3</ele>
        <time>2019-02-25T14:15:05Z</time>
      </trkpt>
      <trkpt lat="45.74775" lon="4.37052">
        <ele>535.313</ele>
        <time>2019-02-25T14:15:11Z</time>
      </trkpt>
      <trkpt lat="45.74771" lon="4.37058">
        <ele>536.403</ele>
        <time>2019-02-25T14:15:17Z</time>
      </trkpt>
      <trkpt lat="45.74766" lon="4.37066">
        <ele>537.057</ele>
        <time>2019-02-25T14:15:23Z</time>
      </trkpt>
      <trkpt lat="45.74762" lon="4.37074">
        <ele>537.643</ele>
        <time>2019-02-25T14:15:29Z</time>
      </trkpt>
      <trkpt lat="45.74759" lon="4.37078">
        <ele>538.467</ele>
        <time>2019-02-25T14:15:34Z</time>
      </trkpt>
      <trkpt lat="45.74756" lon="4.37083">
        <ele>539.643</ele>
        <time>2019-02-25T14:15:40Z</time>
      </trkpt>
      <trkpt lat="45.74755" lon="4.3709">
        <ele>540.326</ele>
        <time>2019-02-25T14:15:45Z</time>
      </trkpt>
      <trkpt lat="45.74752" lon="4.37097">
        <ele>541.102</ele>
        <time>2019-02-25T14:15:51Z</time>
      </trkpt>
      <trkpt lat="45.7475" lon="4.37102">
        <ele>542.076</ele>
        <time>2019-02-25T14:15:56Z</time>
      </trkpt>
      <trkpt lat="45.74746" lon="4.37107">
        <ele>543.05</ele>
        <time>2019-02-25T14:16:01Z</time>
      </trkpt>
      <trkpt lat="45.74744" lon="4.37116">
        <ele>543.761</ele>
        <time>2019-02-25T14:16:07Z</time>
      </trkpt>
      <trkpt lat="45.74743" lon="4.37125">
        <ele>544.475</ele>
        <time>2019-02-25T14:16:13Z</time>
      </trkpt>
      <trkpt lat="45.74741" lon="4.37131">
        <ele>544.96</ele>
        <time>2019-02-25T14:16:18Z</time>
      </trkpt>
      <trkpt lat="45.74737" lon="4.37139">
        <ele>545.61</ele>
        <time>2019-02-25T14:16:24Z</time>
      </trkpt>
      <trkpt lat="45.74735" lon="4.37145">
        <ele>546.549</ele>
        <time>2019-02-25T14:16:30Z</time>
      </trkpt>
      <trkpt lat="45.74734" lon="4.37152">
        <ele>547.436</ele>
        <time>2019-02-25T14:16:35Z</time>
      </trkpt>
      <trkpt lat="45.74732" lon="4.37159">
        <ele>548.44</ele>
        <time>2019-02-25T14:16:41Z</time>
      </trkpt>
      <trkpt lat="45.74731" lon="4.37171">
        <ele>549.161</ele>
        <time>2019-02-25T14:16:47Z</time>
      </trkpt>
      <trkpt lat="45.74731" lon="4.37178">
        <ele>550.338</ele>
        <time>2019-02-25T14:16:53Z</time>
      </trkpt>
      <trkpt lat="45.74732" lon="4.37187">
        <ele>551.44</ele>
        <time>2019-02-25T14:16:59Z</time>
      </trkpt>
      <trkpt lat="45.74735" lon="4.37196">
        <ele>552.221</ele>
        <time>2019-02-25T14:17:05Z</time>
      </trkpt>
      <trkpt lat="45.74737" lon="4.37204">
        <ele>552.909</ele>
        <time>2019-02-25T14:17:11Z</time>
      </trkpt>
      <trkpt lat="45.7474" lon="4.37213">
        <ele>553.414</ele>
        <time>2019-02-25T14:17:17Z</time>
      </trkpt>
      <trkpt lat="45.74744" lon="4.3722">
        <ele>554.101</ele>
        <time>2019-02-25T14:17:22Z</time>
      </trkpt>
      <trkpt lat="45.74745" lon="4.37227">
        <ele>555.055</ele>
        <time>2019-02-25T14:17:28Z</time>
      </trkpt>
      <trkpt lat="45.74748" lon="4.37236">
        <ele>555.742</ele>
        <time>2019-02-25T14:17:33Z</time>
      </trkpt>
      <trkpt lat="45.74751" lon="4.37244">
        <ele>556.594</ele>
        <time>2019-02-25T14:17:39Z</time>
      </trkpt>
      <trkpt lat="45.74754" lon="4.37251">
        <ele>557.245</ele>
        <time>2019-02-25T14:17:44Z</time>
      </trkpt>
      <trkpt lat="45.74757" lon="4.37259">
        <ele>557.846</ele>
        <time>2019-02-25T14:17:49Z</time>
      </trkpt>
      <trkpt lat="45.7476" lon="4.37267">
        <ele>558.534</ele>
        <time>2019-02-25T14:17:55Z</time>
      </trkpt>
      <trkpt lat="45.74763" lon="4.37275">
        <ele>558.877</ele>
        <time>2019-02-25T14:18:00Z</time>
      </trkpt>
      <trkpt lat="45.74767" lon="4.37282">
        <ele>559.598</ele>
        <time>2019-02-25T14:18:06Z</time>
      </trkpt>
      <trkpt lat="45.7477" lon="4.37292">
        <ele>560.391</ele>
        <time>2019-02-25T14:18:11Z</time>
      </trkpt>
      <trkpt lat="45.74775" lon="4.37298">
        <ele>561.363</ele>
        <time>2019-02-25T14:18:16Z</time>
      </trkpt>
      <trkpt lat="45.7478" lon="4.37303">
        <ele>562.574</ele>
        <time>2019-02-25T14:18:22Z</time>
      </trkpt>
      <trkpt lat="45.74783" lon="4.37308">
        <ele>563.665</ele>
        <time>2019-02-25T14:18:27Z</time>
      </trkpt>
      <trkpt lat="45.74788" lon="4.37313">
        <ele>564.574</ele>
        <time>2019-02-25T14:18:32Z</time>
      </trkpt>
      <trkpt lat="45.74795" lon="4.37318">
        <ele>565.935</ele>
        <time>2019-02-25T14:18:38Z</time>
      </trkpt>
      <trkpt lat="45.74803" lon="4.37324">
        <ele>567.371</ele>
        <time>2019-02-25T14:18:44Z</time>
      </trkpt>
      <trkpt lat="45.7481" lon="4.37331">
        <ele>568.927</ele>
        <time>2019-02-25T14:18:50Z</time>
      </trkpt>
      <trkpt lat="45.74816" lon="4.37337">
        <ele>570.466</ele>
        <time>2019-02-25T14:18:56Z</time>
      </trkpt>
      <trkpt lat="45.7482" lon="4.37342">
        <ele>571.773</ele>
        <time>2019-02-25T14:19:01Z</time>
      </trkpt>
      <trkpt lat="45.74823" lon="4.37349">
        <ele>572.884</ele>
        <time>2019-02-25T14:19:07Z</time>
      </trkpt>
      <trkpt lat="45.74828" lon="4.37356">
        <ele>573.524</ele>
        <time>2019-02-25T14:19:12Z</time>
      </trkpt>
      <trkpt lat="45.74836" lon="4.37361">
        <ele>574.807</ele>
        <time>2019-02-25T14:19:18Z</time>
      </trkpt>
      <trkpt lat="45.74841" lon="4.37369">
        <ele>575.958</ele>
        <time>2019-02-25T14:19:24Z</time>
      </trkpt>
      <trkpt lat="45.74845" lon="4.37375">
        <ele>576.685</ele>
        <time>2019-02-25T14:19:29Z</time>
      </trkpt>
      <trkpt lat="45.7485" lon="4.3738">
        <ele>577.713</ele>
        <time>2019-02-25T14:19:34Z</time>
      </trkpt>
      <trkpt lat="45.74856" lon="4.37386">
        <ele>578.975</ele>
        <time>2019-02-25T14:19:40Z</time>
      </trkpt>
      <trkpt lat="45.7486" lon="4.3739">
        <ele>580.107</ele>
        <time>2019-02-25T14:19:46Z</time>
      </trkpt>
      <trkpt lat="45.74866" lon="4.37394">
        <ele>580.972</ele>
        <time>2019-02-25T14:19:51Z</time>
      </trkpt>
      <trkpt lat="45.74872" lon="4.37398">
        <ele>581.812</ele>
        <time>2019-02-25T14:19:56Z</time>
      </trkpt>
      <trkpt lat="45.74877" lon="4.37401">
        <ele>582.601</ele>
        <time>2019-02-25T14:20:01Z</time>
      </trkpt>
      <trkpt lat="45.74885" lon="4.37408">
        <ele>583.537</ele>
        <time>2019-02-25T14:20:07Z</time>
      </trkpt>
      <trkpt lat="45.7489" lon="4.37409">
        <ele>584.702</ele>
        <time>2019-02-25T14:20:13Z</time>
      </trkpt>
      <trkpt lat="45.74894" lon="4.37413">
        <ele>585.747</ele>
        <time>2019-02-25T14:20:18Z</time>
      </trkpt>
      <trkpt lat="45.74901" lon="4.37417">
        <ele>586.876</ele>
        <time>2019-02-25T14:20:24Z</time>
      </trkpt>
      <trkpt lat="45.74906" lon="4.37424">
        <ele>587.612</ele>
        <time>2019-02-25T14:20:29Z</time>
      </trkpt>
      <trkpt lat="45.74912" lon="4.37427">
        <ele>588.544</ele>
        <time>2019-02-25T14:20:35Z</time>
      </trkpt>
      <trkpt lat="45.74918" lon="4.37428">
        <ele>590.244</ele>
        <time>2019-02-25T14:20:41Z</time>
      </trkpt>
      <trkpt lat="45.74924" lon="4.37432">
        <ele>591.859</ele>
        <time>2019-02-25T14:20:47Z</time>
      </trkpt>
      <trkpt lat="45.74928" lon="4.37436">
        <ele>593.217</ele>
        <time>2019-02-25T14:20:53Z</time>
      </trkpt>
      <trkpt lat="45.74931" lon="4.37437">
        <ele>594.764</ele>
        <time>2019-02-25T14:20:59Z</time>
      </trkpt>
      <trkpt lat="45.74935" lon="4.37438">
        <ele>595.906</ele>
        <time>2019-02-25T14:21:05Z</time>
      </trkpt>
      <trkpt lat="45.74931" lon="4.37436">
        <ele>597.589</ele>
        <time>2019-02-25T14:21:10Z</time>
      </trkpt>
      <trkpt lat="45.74927" lon="4.37439">
        <ele>598.994</ele>
        <time>2019-02-25T14:21:15Z</time>
      </trkpt>
      <trkpt lat="45.74926" lon="4.37439">
        <ele>600.171</ele>
        <time>2019-02-25T14:21:20Z</time>
      </trkpt>
      <trkpt lat="45.74926" lon="4.37441">
        <ele>600.899</ele>
        <time>2019-02-25T14:21:25Z</time>
      </trkpt>
      <trkpt lat="45.74925" lon="4.37439">
        <ele>601.073</ele>
        <time>2019-02-25T14:21:31Z</time>
      </trkpt>
      <trkpt lat="45.74928" lon="4.37436">
        <ele>601.251</ele>
        <time>2019-02-25T14:21:37Z</time>
      </trkpt>
      <trkpt lat="45.74928" lon="4.37435">
        <ele>601.569</ele>
        <time>2019-02-25T14:21:43Z</time>
      </trkpt>
      <trkpt lat="45.7493" lon="4.37435">
        <ele>601.652</ele>
        <time>2019-02-25T14:21:49Z</time>
      </trkpt>
      <trkpt lat="45.7493" lon="4.37434">
        <ele>601.709</ele>
        <time>2019-02-25T14:21:54Z</time>
      </trkpt>
      <trkpt lat="45.74931" lon="4.37433">
        <ele>601.883</ele>
        <time>2019-02-25T14:21:59Z</time>
      </trkpt>
      <trkpt lat="45.74929" lon="4.37434">
        <ele>601.982</ele>
        <time>2019-02-25T14:22:05Z</time>
      </trkpt>
      <trkpt lat="45.7493" lon="4.37435">
        <ele>602.093</ele>
        <time>2019-02-25T14:22:10Z</time>
      </trkpt>
      <trkpt lat="45.74929" lon="4.37437">
        <ele>602.174</ele>
        <time>2019-02-25T14:22:15Z</time>
      </trkpt>
      <trkpt lat="45.74928" lon="4.37439">
        <ele>602.402</ele>
        <time>2019-02-25T14:22:21Z</time>
      </trkpt>
      <trkpt lat="45.74927" lon="4.37438">
        <ele>602.446</ele>
        <time>2019-02-25T14:22:27Z</time>
      </trkpt>
      <trkpt lat="45.74927" lon="4.37437">
        <ele>602.785</ele>
        <time>2019-02-25T14:22:33Z</time>
      </trkpt>
      <trkpt lat="45.74925" lon="4.37436">
        <ele>602.782</ele>
        <time>2019-02-25T14:22:38Z</time>
      </trkpt>
      <trkpt lat="45.74925" lon="4.37434">
        <ele>602.468</ele>
        <time>2019-02-25T14:22:44Z</time>
      </trkpt>
      <trkpt lat="45.74925" lon="4.37434">
        <ele>602.544</ele>
        <time>2019-02-25T14:22:49Z</time>
      </trkpt>
      <trkpt lat="45.74927" lon="4.37434">
        <ele>602.559</ele>
        <time>2019-02-25T14:22:55Z</time>
      </trkpt>
      <trkpt lat="45.74927" lon="4.37433">
        <ele>602.524</ele>
        <time>2019-02-25T14:23:00Z</time>
      </trkpt>
      <trkpt lat="45.74925" lon="4.37433">
        <ele>602.42</ele>
        <time>2019-02-25T14:23:06Z</time>
      </trkpt>
      <trkpt lat="45.74926" lon="4.37435">
        <ele>602.584</ele>
        <time>2019-02-25T14:23:11Z</time>
      </trkpt>
      <trkpt lat="45.74928" lon="4.37435">
        <ele>602.812</ele>
        <time>2019-02-25T14:23:17Z</time>
      </trkpt>
      <trkpt lat="45.74929" lon="4.37436">
        <ele>602.748</ele>
        <time>2019-02-25T14:23:23Z</time>
      </trkpt>
      <trkpt lat="45.74931" lon="4.37441">
        <ele>602.845</ele>
        <time>2019-02-25T14:23:29Z</time>
      </trkpt>
      <trkpt lat="45.74932" lon="4.37441">
        <ele>603.147</ele>
        <time>2019-02-25T14:23:35Z</time>
      </trkpt>
      <trkpt lat="45.74932" lon="4.37439">
        <ele>603.281</ele>
        <time>2019-02-25T14:23:41Z</time>
      </trkpt>
      <trkpt lat="45.74934" lon="4.37438">
        <ele>604.22</ele>
        <time>2019-02-25T14:23:47Z</time>
      </trkpt>
      <trkpt lat="45.74934" lon="4.37438">
        <ele>604.773</ele>
        <time>2019-02-25T14:23:52Z</time>
      </trkpt>
      <trkpt lat="45.74933" lon="4.3744">
        <ele>605.427</ele>
        <time>2019-02-25T14:23:58Z</time>
      </trkpt>
      <trkpt lat="45.74933" lon="4.37441">
        <ele>605.978</ele>
        <time>2019-02-25T14:24:04Z</time>
      </trkpt>
      <trkpt lat="45.74933" lon="4.3744">
        <ele>606.438</ele>
        <time>2019-02-25T14:24:09Z</time>
      </trkpt>
      <trkpt lat="45.74932" lon="4.3744">
        <ele>606.952</ele>
        <time>2019-02-25T14:24:15Z</time>
      </trkpt>
      <trkpt lat="45.74932" lon="4.37439">
        <ele>607.127</ele>
        <time>2019-02-25T14:24:20Z</time>
      </trkpt>
      <trkpt lat="45.74934" lon="4.37439">
        <ele>607.132</ele>
        <time>2019-02-25T14:24:26Z</time>
      </trkpt>
      <trkpt lat="45.74935" lon="4.37438">
        <ele>607.162</ele>
        <time>2019-02-25T14:24:32Z</time>
      </trkpt>
      <trkpt lat="45.74934" lon="4.37438">
        <ele>607.139</ele>
        <time>2019-02-25T14:24:37Z</time>
      </trkpt>
      <trkpt lat="45.74934" lon="4.37441">
        <ele>606.966</ele>
        <time>2019-02-25T14:24:43Z</time>
      </trkpt>
      <trkpt lat="45.74934" lon="4.37442">
        <ele>606.138</ele>
        <time>2019-02-25T14:24:49Z</time>
      </trkpt>
      <trkpt lat="45.74935" lon="4.37443">
        <ele>606.052</ele>
        <time>2019-02-25T14:24:55Z</time>
      </trkpt>
      <trkpt lat="45.74934" lon="4.37444">
        <ele>606.104</ele>
        <time>2019-02-25T14:25:00Z</time>
      </trkpt>
      <trkpt lat="45.74934" lon="4.37444">
        <ele>605.73</ele>
        <time>2019-02-25T14:25:05Z</time>
      </trkpt>
      <trkpt lat="45.74933" lon="4.37444">
        <ele>605.51</ele>
        <time>2019-02-25T14:25:10Z</time>
      </trkpt>
      <trkpt lat="45.74933" lon="4.37445">
        <ele>605.822</ele>
        <time>2019-02-25T14:25:16Z</time>
      </trkpt>
      <trkpt lat="45.74933" lon="4.37443">
        <ele>605.916</ele>
        <time>2019-02-25T14:25:21Z</time>
      </trkpt>
      <trkpt lat="45.74934" lon="4.37442">
        <ele>605.873</ele>
        <time>2019-02-25T14:25:27Z</time>
      </trkpt>
      <trkpt lat="45.74934" lon="4.37443">
        <ele>605.861</ele>
        <time>2019-02-25T14:25:32Z</time>
      </trkpt>
      <trkpt lat="45.74934" lon="4.37443">
        <ele>606.312</ele>
        <time>2019-02-25T14:25:37Z</time>
      </trkpt>
      <trkpt lat="45.74935" lon="4.37442">
        <ele>606.33</ele>
        <time>2019-02-25T14:25:43Z</time>
      </trkpt>
      <trkpt lat="45.74936" lon="4.37443">
        <ele>606.342</ele>
        <time>2019-02-25T14:25:48Z</time>
      </trkpt>
      <trkpt lat="45.74935" lon="4.37444">
        <ele>606.33</ele>
        <time>2019-02-25T14:25:54Z</time>
      </trkpt>
      <trkpt lat="45.74937" lon="4.37445">
        <ele>606.404</ele>
        <time>2019-02-25T14:26:00Z</time>
      </trkpt>
      <trkpt lat="45.74938" lon="4.37444">
        <ele>606.471</ele>
        <time>2019-02-25T14:26:06Z</time>
      </trkpt>
      <trkpt lat="45.74938" lon="4.37443">
        <ele>606.513</ele>
        <time>2019-02-25T14:26:11Z</time>
      </trkpt>
      <trkpt lat="45.74937" lon="4.37443">
        <ele>606.531</ele>
        <time>2019-02-25T14:26:17Z</time>
      </trkpt>
      <trkpt lat="45.74936" lon="4.37442">
        <ele>606.529</ele>
        <time>2019-02-25T14:26:22Z</time>
      </trkpt>
      <trkpt lat="45.74934" lon="4.37441">
        <ele>606.446</ele>
        <time>2019-02-25T14:26:28Z</time>
      </trkpt>
      <trkpt lat="45.74933" lon="4.37439">
        <ele>606.474</ele>
        <time>2019-02-25T14:26:34Z</time>
      </trkpt>
      <trkpt lat="45.74935" lon="4.37438">
        <ele>606.656</ele>
        <time>2019-02-25T14:26:39Z</time>
      </trkpt>
      <trkpt lat="45.74937" lon="4.37438">
        <ele>607.574</ele>
        <time>2019-02-25T14:26:45Z</time>
      </trkpt>
      <trkpt lat="45.74936" lon="4.37438">
        <ele>607.734</ele>
        <time>2019-02-25T14:26:51Z</time>
      </trkpt>
      <trkpt lat="45.74935" lon="4.37439">
        <ele>607.981</ele>
        <time>2019-02-25T14:26:56Z</time>
      </trkpt>
      <trkpt lat="45.74934" lon="4.37439">
        <ele>608.301</ele>
        <time>2019-02-25T14:27:02Z</time>
      </trkpt>
      <trkpt lat="45.74932" lon="4.37439">
        <ele>608.456</ele>
        <time>2019-02-25T14:27:07Z</time>
      </trkpt>
      <trkpt lat="45.74933" lon="4.37439">
        <ele>608.514</ele>
        <time>2019-02-25T14:27:13Z</time>
      </trkpt>
      <trkpt lat="45.74934" lon="4.37438">
        <ele>608.535</ele>
        <time>2019-02-25T14:27:19Z</time>
      </trkpt>
      <trkpt lat="45.74934" lon="4.37436">
        <ele>608.708</ele>
        <time>2019-02-25T14:27:25Z</time>
      </trkpt>
      <trkpt lat="45.74934" lon="4.37433">
        <ele>608.704</ele>
        <time>2019-02-25T14:27:30Z</time>
      </trkpt>
      <trkpt lat="45.74934" lon="4.3743">
        <ele>608.33</ele>
        <time>2019-02-25T14:27:36Z</time>
      </trkpt>
      <trkpt lat="45.74935" lon="4.3743">
        <ele>607.93</ele>
        <time>2019-02-25T14:27:42Z</time>
      </trkpt>
      <trkpt lat="45.74936" lon="4.37431">
        <ele>607.539</ele>
        <time>2019-02-25T14:27:47Z</time>
      </trkpt>
      <trkpt lat="45.74937" lon="4.37432">
        <ele>607.179</ele>
        <time>2019-02-25T14:27:53Z</time>
      </trkpt>
      <trkpt lat="45.74936" lon="4.37433">
        <ele>607.06</ele>
        <time>2019-02-25T14:27:59Z</time>
      </trkpt>
      <trkpt lat="45.74936" lon="4.37434">
        <ele>606.731</ele>
        <time>2019-02-25T14:28:04Z</time>
      </trkpt>
      <trkpt lat="45.74935" lon="4.37433">
        <ele>606.768</ele>
        <time>2019-02-25T14:28:10Z</time>
      </trkpt>
      <trkpt lat="45.74935" lon="4.37436">
        <ele>606.839</ele>
        <time>2019-02-25T14:28:15Z</time>
      </trkpt>
      <trkpt lat="45.74933" lon="4.37438">
        <ele>607.334</ele>
        <time>2019-02-25T14:28:21Z</time>
      </trkpt>
      <trkpt lat="45.74933" lon="4.37437">
        <ele>608.257</ele>
        <time>2019-02-25T14:28:26Z</time>
      </trkpt>
      <trkpt lat="45.74933" lon="4.37435">
        <ele>608.6</ele>
        <time>2019-02-25T14:28:32Z</time>
      </trkpt>
      <trkpt lat="45.74932" lon="4.37435">
        <ele>609.34</ele>
        <time>2019-02-25T14:28:38Z</time>
      </trkpt>
      <trkpt lat="45.74932" lon="4.37435">
        <ele>608.975</ele>
        <time>2019-02-25T14:28:44Z</time>
      </trkpt>
      <trkpt lat="45.74932" lon="4.37435">
        <ele>608.117</ele>
        <time>2019-02-25T14:28:49Z</time>
      </trkpt>
      <trkpt lat="45.74932" lon="4.37436">
        <ele>607.988</ele>
        <time>2019-02-25T14:28:54Z</time>
      </trkpt>
      <trkpt lat="45.74931" lon="4.37433">
        <ele>607.494</ele>
        <time>2019-02-25T14:29:00Z</time>
      </trkpt>
      <trkpt lat="45.74931" lon="4.37433">
        <ele>607.09</ele>
        <time>2019-02-25T14:29:05Z</time>
      </trkpt>
      <trkpt lat="45.7493" lon="4.37435">
        <ele>606.893</ele>
        <time>2019-02-25T14:29:11Z</time>
      </trkpt>
      <trkpt lat="45.74929" lon="4.37434">
        <ele>606.966</ele>
        <time>2019-02-25T14:29:17Z</time>
      </trkpt>
      <trkpt lat="45.7493" lon="4.37432">
        <ele>606.863</ele>
        <time>2019-02-25T14:29:23Z</time>
      </trkpt>
      <trkpt lat="45.74929" lon="4.37433">
        <ele>606.072</ele>
        <time>2019-02-25T14:29:29Z</time>
      </trkpt>
      <trkpt lat="45.74929" lon="4.37435">
        <ele>605.975</ele>
        <time>2019-02-25T14:29:34Z</time>
      </trkpt>
      <trkpt lat="45.74929" lon="4.37436">
        <ele>605.892</ele>
        <time>2019-02-25T14:29:39Z</time>
      </trkpt>
      <trkpt lat="45.74929" lon="4.37436">
        <ele>605.817</ele>
        <time>2019-02-25T14:29:45Z</time>
      </trkpt>
      <trkpt lat="45.7493" lon="4.37436">
        <ele>605.756</ele>
        <time>2019-02-25T14:29:50Z</time>
      </trkpt>
      <trkpt lat="45.74931" lon="4.37437">
        <ele>605.653</ele>
        <time>2019-02-25T14:29:56Z</time>
      </trkpt>
      <trkpt lat="45.74932" lon="4.37435">
        <ele>605.485</ele>
        <time>2019-02-25T14:30:02Z</time>
      </trkpt>
      <trkpt lat="45.74931" lon="4.37433">
        <ele>605.476</ele>
        <time>2019-02-25T14:30:07Z</time>
      </trkpt>
      <trkpt lat="45.74934" lon="4.37434">
        <ele>605.84</ele>
        <time>2019-02-25T14:30:13Z</time>
      </trkpt>
      <trkpt lat="45.74934" lon="4.37434">
        <ele>605.922</ele>
        <time>2019-02-25T14:30:18Z</time>
      </trkpt>
      <trkpt lat="45.74934" lon="4.37434">
        <ele>605.925</ele>
        <time>2019-02-25T14:30:24Z</time>
      </trkpt>
      <trkpt lat="45.74933" lon="4.37434">
        <ele>605.894</ele>
        <time>2019-02-25T14:30:29Z</time>
      </trkpt>
      <trkpt lat="45.74933" lon="4.37436">
        <ele>605.906</ele>
        <time>2019-02-25T14:30:35Z</time>
      </trkpt>
      <trkpt lat="45.74934" lon="4.37436">
        <ele>605.963</ele>
        <time>2019-02-25T14:30:40Z</time>
      </trkpt>
      <trkpt lat="45.74933" lon="4.37436">
        <ele>606.19</ele>
        <time>2019-02-25T14:30:45Z</time>
      </trkpt>
      <trkpt lat="45.74932" lon="4.37436">
        <ele>606.261</ele>
        <time>2019-02-25T14:30:51Z</time>
      </trkpt>
      <trkpt lat="45.74932" lon="4.37437">
        <ele>606.354</ele>
        <time>2019-02-25T14:30:56Z</time>
      </trkpt>
      <trkpt lat="45.74932" lon="4.37437">
        <ele>606.611</ele>
        <time>2019-02-25T14:31:02Z</time>
      </trkpt>
      <trkpt lat="45.74932" lon="4.37439">
        <ele>606.531</ele>
        <time>2019-02-25T14:31:07Z</time>
      </trkpt>
      <trkpt lat="45.74932" lon="4.37438">
        <ele>606.727</ele>
        <time>2019-02-25T14:31:12Z</time>
      </trkpt>
      <trkpt lat="45.74929" lon="4.37437">
        <ele>606.623</ele>
        <time>2019-02-25T14:31:18Z</time>
      </trkpt>
      <trkpt lat="45.74929" lon="4.37436">
        <ele>606.038</ele>
        <time>2019-02-25T14:31:24Z</time>
      </trkpt>
      <trkpt lat="45.7493" lon="4.37435">
        <ele>605.598</ele>
        <time>2019-02-25T14:31:29Z</time>
      </trkpt>
      <trkpt lat="45.74931" lon="4.37435">
        <ele>604.891</ele>
        <time>2019-02-25T14:31:34Z</time>
      </trkpt>
      <trkpt lat="45.74932" lon="4.37434">
        <ele>604.106</ele>
        <time>2019-02-25T14:31:40Z</time>
      </trkpt>
      <trkpt lat="45.74932" lon="4.37433">
        <ele>604.058</ele>
        <time>2019-02-25T14:31:46Z</time>
      </trkpt>
      <trkpt lat="45.74932" lon="4.37433">
        <ele>604.036</ele>
        <time>2019-02-25T14:31:52Z</time>
      </trkpt>
      <trkpt lat="45.74932" lon="4.37432">
        <ele>604.398</ele>
        <time>2019-02-25T14:31:58Z</time>
      </trkpt>
      <trkpt lat="45.74933" lon="4.37433">
        <ele>604.792</ele>
        <time>2019-02-25T14:32:03Z</time>
      </trkpt>
      <trkpt lat="45.74935" lon="4.37434">
        <ele>605.377</ele>
        <time>2019-02-25T14:32:09Z</time>
      </trkpt>
      <trkpt lat="45.74937" lon="4.37435">
        <ele>605.732</ele>
        <time>2019-02-25T14:32:15Z</time>
      </trkpt>
      <trkpt lat="45.74939" lon="4.37435">
        <ele>605.744</ele>
        <time>2019-02-25T14:32:20Z</time>
      </trkpt>
      <trkpt lat="45.7494" lon="4.37434">
        <ele>605.596</ele>
        <time>2019-02-25T14:32:26Z</time>
      </trkpt>
      <trkpt lat="45.7494" lon="4.37435">
        <ele>605.435</ele>
        <time>2019-02-25T14:32:31Z</time>
      </trkpt>
      <trkpt lat="45.74939" lon="4.37436">
        <ele>605.711</ele>
        <time>2019-02-25T14:32:37Z</time>
      </trkpt>
      <trkpt lat="45.74938" lon="4.37436">
        <ele>605.705</ele>
        <time>2019-02-25T14:32:42Z</time>
      </trkpt>
      <trkpt lat="45.74937" lon="4.37436">
        <ele>605.756</ele>
        <time>2019-02-25T14:32:48Z</time>
      </trkpt>
      <trkpt lat="45.74937" lon="4.37437">
        <ele>605.793</ele>
        <time>2019-02-25T14:32:54Z</time>
      </trkpt>
      <trkpt lat="45.74937" lon="4.37439">
        <ele>605.808</ele>
        <time>2019-02-25T14:32:59Z</time>
      </trkpt>
      <trkpt lat="45.74934" lon="4.37441">
        <ele>605.62</ele>
        <time>2019-02-25T14:33:04Z</time>
      </trkpt>
      <trkpt lat="45.74932" lon="4.37442">
        <ele>605.197</ele>
        <time>2019-02-25T14:33:10Z</time>
      </trkpt>
      <trkpt lat="45.74933" lon="4.37441">
        <ele>605.06</ele>
        <time>2019-02-25T14:33:16Z</time>
      </trkpt>
      <trkpt lat="45.74933" lon="4.37441">
        <ele>604.864</ele>
        <time>2019-02-25T14:33:21Z</time>
      </trkpt>
      <trkpt lat="45.74931" lon="4.3744">
        <ele>604.916</ele>
        <time>2019-02-25T14:33:26Z</time>
      </trkpt>
      <trkpt lat="45.74932" lon="4.37441">
        <ele>604.902</ele>
        <time>2019-02-25T14:33:32Z</time>
      </trkpt>
      <trkpt lat="45.74931" lon="4.37441">
        <ele>605.27</ele>
        <time>2019-02-25T14:33:37Z</time>
      </trkpt>
      <trkpt lat="45.74931" lon="4.37442">
        <ele>605.618</ele>
        <time>2019-02-25T14:33:43Z</time>
      </trkpt>
      <trkpt lat="45.7493" lon="4.3744">
        <ele>605.525</ele>
        <time>2019-02-25T14:33:48Z</time>
      </trkpt>
      <trkpt lat="45.74931" lon="4.37438">
        <ele>605.755</ele>
        <time>2019-02-25T14:33:54Z</time>
      </trkpt>
      <trkpt lat="45.74931" lon="4.37437">
        <ele>606.182</ele>
        <time>2019-02-25T14:34:00Z</time>
      </trkpt>
      <trkpt lat="45.74931" lon="4.37436">
        <ele>606.374</ele>
        <time>2019-02-25T14:34:06Z</time>
      </trkpt>
      <trkpt lat="45.7493" lon="4.37436">
        <ele>606.318</ele>
        <time>2019-02-25T14:34:11Z</time>
      </trkpt>
      <trkpt lat="45.74931" lon="4.37439">
        <ele>606.242</ele>
        <time>2019-02-25T14:34:17Z</time>
      </trkpt>
      <trkpt lat="45.74932" lon="4.3744">
        <ele>606.078</ele>
        <time>2019-02-25T14:34:22Z</time>
      </trkpt>
      <trkpt lat="45.74932" lon="4.3744">
        <ele>605.89</ele>
        <time>2019-02-25T14:34:27Z</time>
      </trkpt>
      <trkpt lat="45.74932" lon="4.37441">
        <ele>605.911</ele>
        <time>2019-02-25T14:34:33Z</time>
      </trkpt>
      <trkpt lat="45.74935" lon="4.37442">
        <ele>605.899</ele>
        <time>2019-02-25T14:34:39Z</time>
      </trkpt>
      <trkpt lat="45.74938" lon="4.3744">
        <ele>605.866</ele>
        <time>2019-02-25T14:34:44Z</time>
      </trkpt>
      <trkpt lat="45.74938" lon="4.37439">
        <ele>605.972</ele>
        <time>2019-02-25T14:34:49Z</time>
      </trkpt>
      <trkpt lat="45.74936" lon="4.37438">
        <ele>606.564</ele>
        <time>2019-02-25T14:34:55Z</time>
      </trkpt>
      <trkpt lat="45.74937" lon="4.37437">
        <ele>606.66</ele>
        <time>2019-02-25T14:35:01Z</time>
      </trkpt>
      <trkpt lat="45.74939" lon="4.37435">
        <ele>606.974</ele>
        <time>2019-02-25T14:35:06Z</time>
      </trkpt>
      <trkpt lat="45.74939" lon="4.37435">
        <ele>607.176</ele>
        <time>2019-02-25T14:35:12Z</time>
      </trkpt>
      <trkpt lat="45.74939" lon="4.37437">
        <ele>607.695</ele>
        <time>2019-02-25T14:35:17Z</time>
      </trkpt>
      <trkpt lat="45.74936" lon="4.37439">
        <ele>608.28</ele>
        <time>2019-02-25T14:35:23Z</time>
      </trkpt>
      <trkpt lat="45.74934" lon="4.3744">
        <ele>608.958</ele>
        <time>2019-02-25T14:35:29Z</time>
      </trkpt>
      <trkpt lat="45.74934" lon="4.37441">
        <ele>609.654</ele>
        <time>2019-02-25T14:35:34Z</time>
      </trkpt>
      <trkpt lat="45.74935" lon="4.3744">
        <ele>609.898</ele>
        <time>2019-02-25T14:35:40Z</time>
      </trkpt>
      <trkpt lat="45.74937" lon="4.37438">
        <ele>609.987</ele>
        <time>2019-02-25T14:35:46Z</time>
      </trkpt>
      <trkpt lat="45.74938" lon="4.37438">
        <ele>610.21</ele>
        <time>2019-02-25T14:35:52Z</time>
      </trkpt>
      <trkpt lat="45.74936" lon="4.3744">
        <ele>610.309</ele>
        <time>2019-02-25T14:35:57Z</time>
      </trkpt>
      <trkpt lat="45.74935" lon="4.37441">
        <ele>610.513</ele>
        <time>2019-02-25T14:36:02Z</time>
      </trkpt>
      <trkpt lat="45.74934" lon="4.37438">
        <ele>610.926</ele>
        <time>2019-02-25T14:36:08Z</time>
      </trkpt>
      <trkpt lat="45.74932" lon="4.37439">
        <ele>610.978</ele>
        <time>2019-02-25T14:36:13Z</time>
      </trkpt>
      <trkpt lat="45.74933" lon="4.37441">
        <ele>610.164</ele>
        <time>2019-02-25T14:36:19Z</time>
      </trkpt>
      <trkpt lat="45.74935" lon="4.37442">
        <ele>609.692</ele>
        <time>2019-02-25T14:36:25Z</time>
      </trkpt>
      <trkpt lat="45.74935" lon="4.37445">
        <ele>609.224</ele>
        <time>2019-02-25T14:36:30Z</time>
      </trkpt>
      <trkpt lat="45.74934" lon="4.37447">
        <ele>608.751</ele>
        <time>2019-02-25T14:36:35Z</time>
      </trkpt>
      <trkpt lat="45.74934" lon="4.37449">
        <ele>608.426</ele>
        <time>2019-02-25T14:36:41Z</time>
      </trkpt>
      <trkpt lat="45.74933" lon="4.37451">
        <ele>608.442</ele>
        <time>2019-02-25T14:36:46Z</time>
      </trkpt>
      <trkpt lat="45.74936" lon="4.37456">
        <ele>607.899</ele>
        <time>2019-02-25T14:36:52Z</time>
      </trkpt>
      <trkpt lat="45.74936" lon="4.37466">
        <ele>607.736</ele>
        <time>2019-02-25T14:36:58Z</time>
      </trkpt>
      <trkpt lat="45.74937" lon="4.37478">
        <ele>607.252</ele>
        <time>2019-02-25T14:37:04Z</time>
      </trkpt>
      <trkpt lat="45.74937" lon="4.37484">
        <ele>606.922</ele>
        <time>2019-02-25T14:37:09Z</time>
      </trkpt>
      <trkpt lat="45.74938" lon="4.37494">
        <ele>606.724</ele>
        <time>2019-02-25T14:37:15Z</time>
      </trkpt>
      <trkpt lat="45.74938" lon="4.37503">
        <ele>606.712</ele>
        <time>2019-02-25T14:37:20Z</time>
      </trkpt>
      <trkpt lat="45.74937" lon="4.3751">
        <ele>606.499</ele>
        <time>2019-02-25T14:37:26Z</time>
      </trkpt>
      <trkpt lat="45.74936" lon="4.37517">
        <ele>606.264</ele>
        <time>2019-02-25T14:37:31Z</time>
      </trkpt>
      <trkpt lat="45.74932" lon="4.37525">
        <ele>606.24</ele>
        <time>2019-02-25T14:37:37Z</time>
      </trkpt>
      <trkpt lat="45.74929" lon="4.37533">
        <ele>606.611</ele>
        <time>2019-02-25T14:37:43Z</time>
      </trkpt>
      <trkpt lat="45.74925" lon="4.37538">
        <ele>606.986</ele>
        <time>2019-02-25T14:37:48Z</time>
      </trkpt>
      <trkpt lat="45.74921" lon="4.37547">
        <ele>607.397</ele>
        <time>2019-02-25T14:37:54Z</time>
      </trkpt>
      <trkpt lat="45.74915" lon="4.37553">
        <ele>607.668</ele>
        <time>2019-02-25T14:38:00Z</time>
      </trkpt>
      <trkpt lat="45.74911" lon="4.37559">
        <ele>607.672</ele>
        <time>2019-02-25T14:38:06Z</time>
      </trkpt>
      <trkpt lat="45.74909" lon="4.37564">
        <ele>607.618</ele>
        <time>2019-02-25T14:38:11Z</time>
      </trkpt>
      <trkpt lat="45.74906" lon="4.37573">
        <ele>607.604</ele>
        <time>2019-02-25T14:38:16Z</time>
      </trkpt>
      <trkpt lat="45.74903" lon="4.37581">
        <ele>607.623</ele>
        <time>2019-02-25T14:38:22Z</time>
      </trkpt>
      <trkpt lat="45.74901" lon="4.37591">
        <ele>607.906</ele>
        <time>2019-02-25T14:38:28Z</time>
      </trkpt>
      <trkpt lat="45.74898" lon="4.37598">
        <ele>608.165</ele>
        <time>2019-02-25T14:38:33Z</time>
      </trkpt>
      <trkpt lat="45.74895" lon="4.37606">
        <ele>608.517</ele>
        <time>2019-02-25T14:38:39Z</time>
      </trkpt>
      <trkpt lat="45.74893" lon="4.37614">
        <ele>608.713</ele>
        <time>2019-02-25T14:38:44Z</time>
      </trkpt>
      <trkpt lat="45.7489" lon="4.37621">
        <ele>608.916</ele>
        <time>2019-02-25T14:38:50Z</time>
      </trkpt>
      <trkpt lat="45.74888" lon="4.37629">
        <ele>608.862</ele>
        <time>2019-02-25T14:38:56Z</time>
      </trkpt>
      <trkpt lat="45.74886" lon="4.37636">
        <ele>608.921</ele>
        <time>2019-02-25T14:39:01Z</time>
      </trkpt>
      <trkpt lat="45.74882" lon="4.37641">
        <ele>608.844</ele>
        <time>2019-02-25T14:39:07Z</time>
      </trkpt>
      <trkpt lat="45.7488" lon="4.37647">
        <ele>608.85</ele>
        <time>2019-02-25T14:39:12Z</time>
      </trkpt>
      <trkpt lat="45.74875" lon="4.37653">
        <ele>609.348</ele>
        <time>2019-02-25T14:39:18Z</time>
      </trkpt>
      <trkpt lat="45.74871" lon="4.37659">
        <ele>610.154</ele>
        <time>2019-02-25T14:39:24Z</time>
      </trkpt>
      <trkpt lat="45.74866" lon="4.37666">
        <ele>610.847</ele>
        <time>2019-02-25T14:39:30Z</time>
      </trkpt>
      <trkpt lat="45.74861" lon="4.37674">
        <ele>611.55</ele>
        <time>2019-02-25T14:39:36Z</time>
      </trkpt>
      <trkpt lat="45.74858" lon="4.37681">
        <ele>612.199</ele>
        <time>2019-02-25T14:39:41Z</time>
      </trkpt>
      <trkpt lat="45.74851" lon="4.37686">
        <ele>613.354</ele>
        <time>2019-02-25T14:39:47Z</time>
      </trkpt>
      <trkpt lat="45.74846" lon="4.3769">
        <ele>614.157</ele>
        <time>2019-02-25T14:39:52Z</time>
      </trkpt>
      <trkpt lat="45.7484" lon="4.37695">
        <ele>614.849</ele>
        <time>2019-02-25T14:39:58Z</time>
      </trkpt>
      <trkpt lat="45.74836" lon="4.37699">
        <ele>615.346</ele>
        <time>2019-02-25T14:40:03Z</time>
      </trkpt>
      <trkpt lat="45.74832" lon="4.37708">
        <ele>615.711</ele>
        <time>2019-02-25T14:40:09Z</time>
      </trkpt>
      <trkpt lat="45.74832" lon="4.37716">
        <ele>616.023</ele>
        <time>2019-02-25T14:40:14Z</time>
      </trkpt>
      <trkpt lat="45.7483" lon="4.37726">
        <ele>616.541</ele>
        <time>2019-02-25T14:40:20Z</time>
      </trkpt>
      <trkpt lat="45.74828" lon="4.37734">
        <ele>617.202</ele>
        <time>2019-02-25T14:40:26Z</time>
      </trkpt>
      <trkpt lat="45.74828" lon="4.37744">
        <ele>617.744</ele>
        <time>2019-02-25T14:40:32Z</time>
      </trkpt>
      <trkpt lat="45.74829" lon="4.3775">
        <ele>618.344</ele>
        <time>2019-02-25T14:40:37Z</time>
      </trkpt>
      <trkpt lat="45.74828" lon="4.37763">
        <ele>619.375</ele>
        <time>2019-02-25T14:40:43Z</time>
      </trkpt>
      <trkpt lat="45.74826" lon="4.37771">
        <ele>620.031</ele>
        <time>2019-02-25T14:40:49Z</time>
      </trkpt>
      <trkpt lat="45.74825" lon="4.37781">
        <ele>620.262</ele>
        <time>2019-02-25T14:40:54Z</time>
      </trkpt>
      <trkpt lat="45.74824" lon="4.37789">
        <ele>620.829</ele>
        <time>2019-02-25T14:41:00Z</time>
      </trkpt>
      <trkpt lat="45.74824" lon="4.37795">
        <ele>621.382</ele>
        <time>2019-02-25T14:41:06Z</time>
      </trkpt>
      <trkpt lat="45.74824" lon="4.37795">
        <ele>621.634</ele>
        <time>2019-02-25T14:41:12Z</time>
      </trkpt>
      <trkpt lat="45.74823" lon="4.37794">
        <ele>621.784</ele>
        <time>2019-02-25T14:41:18Z</time>
      </trkpt>
      <trkpt lat="45.74822" lon="4.37794">
        <ele>621.715</ele>
        <time>2019-02-25T14:41:23Z</time>
      </trkpt>
      <trkpt lat="45.74822" lon="4.37793">
        <ele>621.724</ele>
        <time>2019-02-25T14:41:29Z</time>
      </trkpt>
      <trkpt lat="45.74823" lon="4.37794">
        <ele>621.826</ele>
        <time>2019-02-25T14:41:34Z</time>
      </trkpt>
      <trkpt lat="45.74821" lon="4.37797">
        <ele>622.489</ele>
        <time>2019-02-25T14:41:40Z</time>
      </trkpt>
      <trkpt lat="45.74822" lon="4.37799">
        <ele>622.818</ele>
        <time>2019-02-25T14:41:46Z</time>
      </trkpt>
      <trkpt lat="45.74821" lon="4.37798">
        <ele>623.132</ele>
        <time>2019-02-25T14:41:52Z</time>
      </trkpt>
      <trkpt lat="45.7482" lon="4.37797">
        <ele>623.174</ele>
        <time>2019-02-25T14:41:58Z</time>
      </trkpt>
      <trkpt lat="45.74819" lon="4.37798">
        <ele>623.481</ele>
        <time>2019-02-25T14:42:03Z</time>
      </trkpt>
      <trkpt lat="45.7482" lon="4.37799">
        <ele>623.652</ele>
        <time>2019-02-25T14:42:08Z</time>
      </trkpt>
      <trkpt lat="45.74819" lon="4.37799">
        <ele>623.634</ele>
        <time>2019-02-25T14:42:14Z</time>
      </trkpt>
      <trkpt lat="45.74819" lon="4.37798">
        <ele>623.184</ele>
        <time>2019-02-25T14:42:20Z</time>
      </trkpt>
      <trkpt lat="45.74817" lon="4.378">
        <ele>623.103</ele>
        <time>2019-02-25T14:42:26Z</time>
      </trkpt>
      <trkpt lat="45.74818" lon="4.37801">
        <ele>623.057</ele>
        <time>2019-02-25T14:42:31Z</time>
      </trkpt>
      <trkpt lat="45.74817" lon="4.37801">
        <ele>623.085</ele>
        <time>2019-02-25T14:42:36Z</time>
      </trkpt>
      <trkpt lat="45.74818" lon="4.37799">
        <ele>622.807</ele>
        <time>2019-02-25T14:42:42Z</time>
      </trkpt>
      <trkpt lat="45.7482" lon="4.37798">
        <ele>622.854</ele>
        <time>2019-02-25T14:42:47Z</time>
      </trkpt>
      <trkpt lat="45.74821" lon="4.37795">
        <ele>623.064</ele>
        <time>2019-02-25T14:42:53Z</time>
      </trkpt>
      <trkpt lat="45.74821" lon="4.37795">
        <ele>623.068</ele>
        <time>2019-02-25T14:42:58Z</time>
      </trkpt>
      <trkpt lat="45.74821" lon="4.37795">
        <ele>623.062</ele>
        <time>2019-02-25T14:43:04Z</time>
      </trkpt>
      <trkpt lat="45.74823" lon="4.37795">
        <ele>623.07</ele>
        <time>2019-02-25T14:43:10Z</time>
      </trkpt>
      <trkpt lat="45.74824" lon="4.37796">
        <ele>623.192</ele>
        <time>2019-02-25T14:43:16Z</time>
      </trkpt>
      <trkpt lat="45.74823" lon="4.37796">
        <ele>623.001</ele>
        <time>2019-02-25T14:43:21Z</time>
      </trkpt>
      <trkpt lat="45.74823" lon="4.37796">
        <ele>622.993</ele>
        <time>2019-02-25T14:43:26Z</time>
      </trkpt>
      <trkpt lat="45.74822" lon="4.37796">
        <ele>623.046</ele>
        <time>2019-02-25T14:43:32Z</time>
      </trkpt>
      <trkpt lat="45.74821" lon="4.37794">
        <ele>623.153</ele>
        <time>2019-02-25T14:43:38Z</time>
      </trkpt>
      <trkpt lat="45.7482" lon="4.37792">
        <ele>623.351</ele>
        <time>2019-02-25T14:43:44Z</time>
      </trkpt>
      <trkpt lat="45.74821" lon="4.37793">
        <ele>623.364</ele>
        <time>2019-02-25T14:43:50Z</time>
      </trkpt>
      <trkpt lat="45.74824" lon="4.37793">
        <ele>623.503</ele>
        <time>2019-02-25T14:43:56Z</time>
      </trkpt>
      <trkpt lat="45.74826" lon="4.37795">
        <ele>623.628</ele>
        <time>2019-02-25T14:44:01Z</time>
      </trkpt>
      <trkpt lat="45.74829" lon="4.37796">
        <ele>623.841</ele>
        <time>2019-02-25T14:44:07Z</time>
      </trkpt>
      <trkpt lat="45.74827" lon="4.37795">
        <ele>623.933</ele>
        <time>2019-02-25T14:44:13Z</time>
      </trkpt>
      <trkpt lat="45.74826" lon="4.37795">
        <ele>624.012</ele>
        <time>2019-02-25T14:44:19Z</time>
      </trkpt>
      <trkpt lat="45.74827" lon="4.37795">
        <ele>624.041</ele>
        <time>2019-02-25T14:44:24Z</time>
      </trkpt>
      <trkpt lat="45.74827" lon="4.37796">
        <ele>623.995</ele>
        <time>2019-02-25T14:44:29Z</time>
      </trkpt>
      <trkpt lat="45.74827" lon="4.37796">
        <ele>623.89</ele>
        <time>2019-02-25T14:44:35Z</time>
      </trkpt>
      <trkpt lat="45.74827" lon="4.37797">
        <ele>623.811</ele>
        <time>2019-02-25T14:44:40Z</time>
      </trkpt>
      <trkpt lat="45.74826" lon="4.37796">
        <ele>623.434</ele>
        <time>2019-02-25T14:44:45Z</time>
      </trkpt>
      <trkpt lat="45.74825" lon="4.37796">
        <ele>623.448</ele>
        <time>2019-02-25T14:44:51Z</time>
      </trkpt>
      <trkpt lat="45.74824" lon="4.37796">
        <ele>623.543</ele>
        <time>2019-02-25T14:44:56Z</time>
      </trkpt>
      <trkpt lat="45.74825" lon="4.37795">
        <ele>623.604</ele>
        <time>2019-02-25T14:45:01Z</time>
      </trkpt>
      <trkpt lat="45.74826" lon="4.37793">
        <ele>623.761</ele>
        <time>2019-02-25T14:45:07Z</time>
      </trkpt>
      <trkpt lat="45.74826" lon="4.37794">
        <ele>623.786</ele>
        <time>2019-02-25T14:45:12Z</time>
      </trkpt>
      <trkpt lat="45.74826" lon="4.37794">
        <ele>623.661</ele>
        <time>2019-02-25T14:45:18Z</time>
      </trkpt>
      <trkpt lat="45.74826" lon="4.37795">
        <ele>623.664</ele>
        <time>2019-02-25T14:45:24Z</time>
      </trkpt>
      <trkpt lat="45.74826" lon="4.37796">
        <ele>624.404</ele>
        <time>2019-02-25T14:45:30Z</time>
      </trkpt>
      <trkpt lat="45.74826" lon="4.37797">
        <ele>624.622</ele>
        <time>2019-02-25T14:45:36Z</time>
      </trkpt>
      <trkpt lat="45.74827" lon="4.37798">
        <ele>624.552</ele>
        <time>2019-02-25T14:45:41Z</time>
      </trkpt>
      <trkpt lat="45.74829" lon="4.37799">
        <ele>624.516</ele>
        <time>2019-02-25T14:45:47Z</time>
      </trkpt>
      <trkpt lat="45.74832" lon="4.378">
        <ele>624.58</ele>
        <time>2019-02-25T14:45:52Z</time>
      </trkpt>
      <trkpt lat="45.74836" lon="4.378">
        <ele>624.891</ele>
        <time>2019-02-25T14:45:58Z</time>
      </trkpt>
      <trkpt lat="45.7484" lon="4.37801">
        <ele>625.122</ele>
        <time>2019-02-25T14:46:04Z</time>
      </trkpt>
      <trkpt lat="45.74845" lon="4.37802">
        <ele>625.381</ele>
        <time>2019-02-25T14:46:09Z</time>
      </trkpt>
      <trkpt lat="45.74852" lon="4.37803">
        <ele>625.698</ele>
        <time>2019-02-25T14:46:15Z</time>
      </trkpt>
      <trkpt lat="45.74859" lon="4.37804">
        <ele>625.872</ele>
        <time>2019-02-25T14:46:21Z</time>
      </trkpt>
      <trkpt lat="45.74863" lon="4.37805">
        <ele>626.105</ele>
        <time>2019-02-25T14:46:26Z</time>
      </trkpt>
      <trkpt lat="45.74869" lon="4.37806">
        <ele>626.37</ele>
        <time>2019-02-25T14:46:32Z</time>
      </trkpt>
      <trkpt lat="45.74875" lon="4.37806">
        <ele>626.667</ele>
        <time>2019-02-25T14:46:38Z</time>
      </trkpt>
      <trkpt lat="45.7488" lon="4.37806">
        <ele>626.614</ele>
        <time>2019-02-25T14:46:43Z</time>
      </trkpt>
      <trkpt lat="45.74886" lon="4.37807">
        <ele>626.74</ele>
        <time>2019-02-25T14:46:48Z</time>
      </trkpt>
      <trkpt lat="45.74888" lon="4.37808">
        <ele>626.888</ele>
        <time>2019-02-25T14:46:53Z</time>
      </trkpt>
      <trkpt lat="45.74892" lon="4.37806">
        <ele>627.164</ele>
        <time>2019-02-25T14:46:59Z</time>
      </trkpt>
      <trkpt lat="45.74897" lon="4.37807">
        <ele>627.575</ele>
        <time>2019-02-25T14:47:04Z</time>
      </trkpt>
      <trkpt lat="45.74901" lon="4.37807">
        <ele>628.096</ele>
        <time>2019-02-25T14:47:10Z</time>
      </trkpt>
      <trkpt lat="45.74906" lon="4.37806">
        <ele>628.275</ele>
        <time>2019-02-25T14:47:16Z</time>
      </trkpt>
      <trkpt lat="45.74909" lon="4.37807">
        <ele>628.229</ele>
        <time>2019-02-25T14:47:21Z</time>
      </trkpt>
      <trkpt lat="45.74915" lon="4.37806">
        <ele>628.211</ele>
        <time>2019-02-25T14:47:27Z</time>
      </trkpt>
      <trkpt lat="45.7492" lon="4.37804">
        <ele>628.536</ele>
        <time>2019-02-25T14:47:32Z</time>
      </trkpt>
      <trkpt lat="45.74927" lon="4.37804">
        <ele>629.178</ele>
        <time>2019-02-25T14:47:38Z</time>
      </trkpt>
      <trkpt lat="45.74932" lon="4.37804">
        <ele>629.947</ele>
        <time>2019-02-25T14:47:43Z</time>
      </trkpt>
      <trkpt lat="45.74938" lon="4.37804">
        <ele>630.791</ele>
        <time>2019-02-25T14:47:49Z</time>
      </trkpt>
      <trkpt lat="45.74946" lon="4.37803">
        <ele>631.15</ele>
        <time>2019-02-25T14:47:54Z</time>
      </trkpt>
      <trkpt lat="45.74953" lon="4.37802">
        <ele>631.489</ele>
        <time>2019-02-25T14:48:00Z</time>
      </trkpt>
      <trkpt lat="45.74956" lon="4.37801">
        <ele>631.968</ele>
        <time>2019-02-25T14:48:05Z</time>
      </trkpt>
      <trkpt lat="45.74963" lon="4.378">
        <ele>632.374</ele>
        <time>2019-02-25T14:48:11Z</time>
      </trkpt>
      <trkpt lat="45.7497" lon="4.378">
        <ele>632.504</ele>
        <time>2019-02-25T14:48:16Z</time>
      </trkpt>
      <trkpt lat="45.74978" lon="4.37801">
        <ele>632.667</ele>
        <time>2019-02-25T14:48:22Z</time>
      </trkpt>
      <trkpt lat="45.74983" lon="4.37802">
        <ele>632.749</ele>
        <time>2019-02-25T14:48:28Z</time>
      </trkpt>
      <trkpt lat="45.74989" lon="4.37803">
        <ele>633.144</ele>
        <time>2019-02-25T14:48:33Z</time>
      </trkpt>
      <trkpt lat="45.74995" lon="4.37801">
        <ele>633.555</ele>
        <time>2019-02-25T14:48:39Z</time>
      </trkpt>
      <trkpt lat="45.75002" lon="4.37804">
        <ele>633.55</ele>
        <time>2019-02-25T14:48:45Z</time>
      </trkpt>
      <trkpt lat="45.75007" lon="4.37806">
        <ele>633.781</ele>
        <time>2019-02-25T14:48:51Z</time>
      </trkpt>
      <trkpt lat="45.7501" lon="4.37809">
        <ele>634.261</ele>
        <time>2019-02-25T14:48:56Z</time>
      </trkpt>
      <trkpt lat="45.75015" lon="4.37813">
        <ele>634.79</ele>
        <time>2019-02-25T14:49:02Z</time>
      </trkpt>
      <trkpt lat="45.75019" lon="4.37816">
        <ele>634.846</ele>
        <time>2019-02-25T14:49:07Z</time>
      </trkpt>
      <trkpt lat="45.75024" lon="4.37821">
        <ele>634.952</ele>
        <time>2019-02-25T14:49:13Z</time>
      </trkpt>
      <trkpt lat="45.75028" lon="4.37827">
        <ele>635.199</ele>
        <time>2019-02-25T14:49:18Z</time>
      </trkpt>
      <trkpt lat="45.75035" lon="4.37834">
        <ele>635.61</ele>
        <time>2019-02-25T14:49:24Z</time>
      </trkpt>
      <trkpt lat="45.7504" lon="4.37838">
        <ele>636.149</ele>
        <time>2019-02-25T14:49:30Z</time>
      </trkpt>
      <trkpt lat="45.75047" lon="4.37844">
        <ele>636.799</ele>
        <time>2019-02-25T14:49:36Z</time>
      </trkpt>
      <trkpt lat="45.75051" lon="4.37848">
        <ele>637.421</ele>
        <time>2019-02-25T14:49:41Z</time>
      </trkpt>
      <trkpt lat="45.75056" lon="4.37853">
        <ele>637.933</ele>
        <time>2019-02-25T14:49:46Z</time>
      </trkpt>
      <trkpt lat="45.75061" lon="4.37859">
        <ele>638.531</ele>
        <time>2019-02-25T14:49:52Z</time>
      </trkpt>
      <trkpt lat="45.75064" lon="4.37864">
        <ele>638.728</ele>
        <time>2019-02-25T14:49:57Z</time>
      </trkpt>
      <trkpt lat="45.75068" lon="4.37868">
        <ele>639.113</ele>
        <time>2019-02-25T14:50:02Z</time>
      </trkpt>
      <trkpt lat="45.75072" lon="4.37873">
        <ele>639.458</ele>
        <time>2019-02-25T14:50:08Z</time>
      </trkpt>
      <trkpt lat="45.75077" lon="4.37878">
        <ele>639.64</ele>
        <time>2019-02-25T14:50:14Z</time>
      </trkpt>
      <trkpt lat="45.75082" lon="4.37884">
        <ele>639.76</ele>
        <time>2019-02-25T14:50:20Z</time>
      </trkpt>
      <trkpt lat="45.75087" lon="4.37891">
        <ele>639.79</ele>
        <time>2019-02-25T14:50:26Z</time>
      </trkpt>
      <trkpt lat="45.75092" lon="4.37897">
        <ele>640.129</ele>
        <time>2019-02-25T14:50:31Z</time>
      </trkpt>
      <trkpt lat="45.75095" lon="4.37899">
        <ele>640.424</ele>
        <time>2019-02-25T14:50:36Z</time>
      </trkpt>
      <trkpt lat="45.75101" lon="4.37905">
        <ele>640.725</ele>
        <time>2019-02-25T14:50:42Z</time>
      </trkpt>
      <trkpt lat="45.75105" lon="4.37908">
        <ele>641.173</ele>
        <time>2019-02-25T14:50:47Z</time>
      </trkpt>
      <trkpt lat="45.75112" lon="4.37913">
        <ele>641.981</ele>
        <time>2019-02-25T14:50:53Z</time>
      </trkpt>
      <trkpt lat="45.75116" lon="4.37918">
        <ele>642.629</ele>
        <time>2019-02-25T14:50:58Z</time>
      </trkpt>
      <trkpt lat="45.75122" lon="4.37922">
        <ele>643.282</ele>
        <time>2019-02-25T14:51:04Z</time>
      </trkpt>
      <trkpt lat="45.75128" lon="4.37925">
        <ele>644.148</ele>
        <time>2019-02-25T14:51:10Z</time>
      </trkpt>
      <trkpt lat="45.75134" lon="4.37928">
        <ele>644.896</ele>
        <time>2019-02-25T14:51:16Z</time>
      </trkpt>
      <trkpt lat="45.75139" lon="4.37932">
        <ele>645.878</ele>
        <time>2019-02-25T14:51:21Z</time>
      </trkpt>
      <trkpt lat="45.75146" lon="4.37938">
        <ele>646.76</ele>
        <time>2019-02-25T14:51:27Z</time>
      </trkpt>
      <trkpt lat="45.7515" lon="4.37943">
        <ele>647.933</ele>
        <time>2019-02-25T14:51:33Z</time>
      </trkpt>
      <trkpt lat="45.75155" lon="4.37946">
        <ele>648.789</ele>
        <time>2019-02-25T14:51:38Z</time>
      </trkpt>
      <trkpt lat="45.75162" lon="4.37952">
        <ele>649.552</ele>
        <time>2019-02-25T14:51:44Z</time>
      </trkpt>
      <trkpt lat="45.75168" lon="4.37955">
        <ele>650.354</ele>
        <time>2019-02-25T14:51:50Z</time>
      </trkpt>
      <trkpt lat="45.75176" lon="4.37959">
        <ele>651.095</ele>
        <time>2019-02-25T14:51:56Z</time>
      </trkpt>
      <trkpt lat="45.75182" lon="4.37964">
        <ele>651.664</ele>
        <time>2019-02-25T14:52:02Z</time>
      </trkpt>
      <trkpt lat="45.75188" lon="4.37967">
        <ele>652.111</ele>
        <time>2019-02-25T14:52:07Z</time>
      </trkpt>
      <trkpt lat="45.75194" lon="4.3797">
        <ele>652.945</ele>
        <time>2019-02-25T14:52:13Z</time>
      </trkpt>
      <trkpt lat="45.752" lon="4.37976">
        <ele>653.638</ele>
        <time>2019-02-25T14:52:18Z</time>
      </trkpt>
      <trkpt lat="45.75204" lon="4.3798">
        <ele>654.136</ele>
        <time>2019-02-25T14:52:23Z</time>
      </trkpt>
      <trkpt lat="45.75209" lon="4.37985">
        <ele>654.738</ele>
        <time>2019-02-25T14:52:29Z</time>
      </trkpt>
      <trkpt lat="45.75214" lon="4.37989">
        <ele>655.372</ele>
        <time>2019-02-25T14:52:35Z</time>
      </trkpt>
      <trkpt lat="45.7522" lon="4.37996">
        <ele>655.891</ele>
        <time>2019-02-25T14:52:41Z</time>
      </trkpt>
      <trkpt lat="45.75225" lon="4.38001">
        <ele>656.509</ele>
        <time>2019-02-25T14:52:47Z</time>
      </trkpt>
      <trkpt lat="45.7523" lon="4.38006">
        <ele>656.942</ele>
        <time>2019-02-25T14:52:52Z</time>
      </trkpt>
      <trkpt lat="45.75235" lon="4.38012">
        <ele>657.41</ele>
        <time>2019-02-25T14:52:58Z</time>
      </trkpt>
      <trkpt lat="45.7524" lon="4.38018">
        <ele>657.651</ele>
        <time>2019-02-25T14:53:03Z</time>
      </trkpt>
      <trkpt lat="45.75247" lon="4.38025">
        <ele>657.565</ele>
        <time>2019-02-25T14:53:09Z</time>
      </trkpt>
      <trkpt lat="45.75251" lon="4.3803">
        <ele>657.618</ele>
        <time>2019-02-25T14:53:14Z</time>
      </trkpt>
      <trkpt lat="45.75257" lon="4.38036">
        <ele>658.044</ele>
        <time>2019-02-25T14:53:20Z</time>
      </trkpt>
      <trkpt lat="45.75261" lon="4.3804">
        <ele>658.356</ele>
        <time>2019-02-25T14:53:25Z</time>
      </trkpt>
      <trkpt lat="45.75267" lon="4.38048">
        <ele>658.53</ele>
        <time>2019-02-25T14:53:31Z</time>
      </trkpt>
      <trkpt lat="45.7527" lon="4.38053">
        <ele>658.944</ele>
        <time>2019-02-25T14:53:36Z</time>
      </trkpt>
      <trkpt lat="45.75274" lon="4.38059">
        <ele>659.3</ele>
        <time>2019-02-25T14:53:42Z</time>
      </trkpt>
      <trkpt lat="45.75278" lon="4.38064">
        <ele>659.504</ele>
        <time>2019-02-25T14:53:47Z</time>
      </trkpt>
      <trkpt lat="45.75285" lon="4.3807">
        <ele>659.901</ele>
        <time>2019-02-25T14:53:53Z</time>
      </trkpt>
      <trkpt lat="45.75289" lon="4.38075">
        <ele>660.057</ele>
        <time>2019-02-25T14:53:59Z</time>
      </trkpt>
      <trkpt lat="45.75295" lon="4.38081">
        <ele>660.149</ele>
        <time>2019-02-25T14:54:04Z</time>
      </trkpt>
      <trkpt lat="45.753" lon="4.38086">
        <ele>660.23</ele>
        <time>2019-02-25T14:54:10Z</time>
      </trkpt>
      <trkpt lat="45.75306" lon="4.38093">
        <ele>660.366</ele>
        <time>2019-02-25T14:54:16Z</time>
      </trkpt>
      <trkpt lat="45.75311" lon="4.381">
        <ele>660.54</ele>
        <time>2019-02-25T14:54:21Z</time>
      </trkpt>
      <trkpt lat="45.75316" lon="4.38107">
        <ele>660.813</ele>
        <time>2019-02-25T14:54:27Z</time>
      </trkpt>
      <trkpt lat="45.7532" lon="4.38113">
        <ele>660.652</ele>
        <time>2019-02-25T14:54:33Z</time>
      </trkpt>
      <trkpt lat="45.75323" lon="4.3812">
        <ele>660.504</ele>
        <time>2019-02-25T14:54:38Z</time>
      </trkpt>
      <trkpt lat="45.75327" lon="4.38129">
        <ele>660.554</ele>
        <time>2019-02-25T14:54:44Z</time>
      </trkpt>
      <trkpt lat="45.75332" lon="4.38138">
        <ele>660.379</ele>
        <time>2019-02-25T14:54:50Z</time>
      </trkpt>
      <trkpt lat="45.75335" lon="4.38145">
        <ele>660.03</ele>
        <time>2019-02-25T14:54:55Z</time>
      </trkpt>
      <trkpt lat="45.75339" lon="4.38156">
        <ele>660.037</ele>
        <time>2019-02-25T14:55:01Z</time>
      </trkpt>
      <trkpt lat="45.75342" lon="4.38162">
        <ele>660.214</ele>
        <time>2019-02-25T14:55:06Z</time>
      </trkpt>
      <trkpt lat="45.75345" lon="4.38168">
        <ele>660.265</ele>
        <time>2019-02-25T14:55:11Z</time>
      </trkpt>
      <trkpt lat="45.75348" lon="4.38174">
        <ele>660.013</ele>
        <time>2019-02-25T14:55:16Z</time>
      </trkpt>
      <trkpt lat="45.75351" lon="4.38185">
        <ele>659.158</ele>
        <time>2019-02-25T14:55:22Z</time>
      </trkpt>
      <trkpt lat="45.75354" lon="4.38195">
        <ele>658.811</ele>
        <time>2019-02-25T14:55:28Z</time>
      </trkpt>
      <trkpt lat="45.75357" lon="4.38201">
        <ele>659.038</ele>
        <time>2019-02-25T14:55:33Z</time>
      </trkpt>
      <trkpt lat="45.7536" lon="4.38212">
        <ele>659.077</ele>
        <time>2019-02-25T14:55:39Z</time>
      </trkpt>
      <trkpt lat="45.75361" lon="4.38221">
        <ele>658.916</ele>
        <time>2019-02-25T14:55:45Z</time>
      </trkpt>
      <trkpt lat="45.75362" lon="4.38229">
        <ele>658.897</ele>
        <time>2019-02-25T14:55:50Z</time>
      </trkpt>
      <trkpt lat="45.75367" lon="4.38238">
        <ele>658.897</ele>
        <time>2019-02-25T14:55:56Z</time>
      </trkpt>
      <trkpt lat="45.75368" lon="4.38248">
        <ele>659.183</ele>
        <time>2019-02-25T14:56:02Z</time>
      </trkpt>
      <trkpt lat="45.75368" lon="4.38256">
        <ele>659.134</ele>
        <time>2019-02-25T14:56:08Z</time>
      </trkpt>
      <trkpt lat="45.75368" lon="4.38268">
        <ele>659.32</ele>
        <time>2019-02-25T14:56:13Z</time>
      </trkpt>
      <trkpt lat="45.7537" lon="4.38276">
        <ele>659.582</ele>
        <time>2019-02-25T14:56:18Z</time>
      </trkpt>
      <trkpt lat="45.75372" lon="4.38281">
        <ele>659.616</ele>
        <time>2019-02-25T14:56:24Z</time>
      </trkpt>
      <trkpt lat="45.75371" lon="4.38282">
        <ele>659.356</ele>
        <time>2019-02-25T14:56:29Z</time>
      </trkpt>
      <trkpt lat="45.75372" lon="4.38282">
        <ele>659.171</ele>
        <time>2019-02-25T14:56:35Z</time>
      </trkpt>
      <trkpt lat="45.75373" lon="4.38282">
        <ele>658.778</ele>
        <time>2019-02-25T14:56:41Z</time>
      </trkpt>
      <trkpt lat="45.75373" lon="4.38281">
        <ele>658.428</ele>
        <time>2019-02-25T14:56:47Z</time>
      </trkpt>
      <trkpt lat="45.75374" lon="4.38279">
        <ele>658.675</ele>
        <time>2019-02-25T14:56:52Z</time>
      </trkpt>
      <trkpt lat="45.75375" lon="4.3828">
        <ele>658.445</ele>
        <time>2019-02-25T14:56:58Z</time>
      </trkpt>
      <trkpt lat="45.75375" lon="4.38281">
        <ele>657.965</ele>
        <time>2019-02-25T14:57:04Z</time>
      </trkpt>
      <trkpt lat="45.75376" lon="4.3828">
        <ele>657.951</ele>
        <time>2019-02-25T14:57:09Z</time>
      </trkpt>
      <trkpt lat="45.75376" lon="4.3828">
        <ele>658.379</ele>
        <time>2019-02-25T14:57:15Z</time>
      </trkpt>
      <trkpt lat="45.75374" lon="4.3828">
        <ele>658.376</ele>
        <time>2019-02-25T14:57:20Z</time>
      </trkpt>
      <trkpt lat="45.75373" lon="4.38282">
        <ele>658.315</ele>
        <time>2019-02-25T14:57:26Z</time>
      </trkpt>
      <trkpt lat="45.75373" lon="4.38281">
        <ele>658.12</ele>
        <time>2019-02-25T14:57:32Z</time>
      </trkpt>
      <trkpt lat="45.75373" lon="4.3828">
        <ele>658.047</ele>
        <time>2019-02-25T14:57:38Z</time>
      </trkpt>
      <trkpt lat="45.75376" lon="4.3828">
        <ele>657.645</ele>
        <time>2019-02-25T14:57:44Z</time>
      </trkpt>
      <trkpt lat="45.75377" lon="4.38279">
        <ele>656.861</ele>
        <time>2019-02-25T14:57:49Z</time>
      </trkpt>
      <trkpt lat="45.75379" lon="4.38278">
        <ele>656.189</ele>
        <time>2019-02-25T14:57:54Z</time>
      </trkpt>
      <trkpt lat="45.75379" lon="4.38277">
        <ele>656.062</ele>
        <time>2019-02-25T14:58:00Z</time>
      </trkpt>
      <trkpt lat="45.75379" lon="4.38279">
        <ele>656.381</ele>
        <time>2019-02-25T14:58:05Z</time>
      </trkpt>
      <trkpt lat="45.75378" lon="4.38279">
        <ele>656.774</ele>
        <time>2019-02-25T14:58:11Z</time>
      </trkpt>
      <trkpt lat="45.75376" lon="4.38279">
        <ele>656.825</ele>
        <time>2019-02-25T14:58:16Z</time>
      </trkpt>
      <trkpt lat="45.75373" lon="4.3828">
        <ele>657.168</ele>
        <time>2019-02-25T14:58:22Z</time>
      </trkpt>
      <trkpt lat="45.75374" lon="4.38279">
        <ele>657.613</ele>
        <time>2019-02-25T14:58:28Z</time>
      </trkpt>
      <trkpt lat="45.75375" lon="4.38279">
        <ele>657.769</ele>
        <time>2019-02-25T14:58:33Z</time>
      </trkpt>
      <trkpt lat="45.75376" lon="4.38278">
        <ele>657.739</ele>
        <time>2019-02-25T14:58:39Z</time>
      </trkpt>
      <trkpt lat="45.75377" lon="4.38277">
        <ele>657.664</ele>
        <time>2019-02-25T14:58:44Z</time>
      </trkpt>
      <trkpt lat="45.75377" lon="4.38278">
        <ele>657.539</ele>
        <time>2019-02-25T14:58:50Z</time>
      </trkpt>
      <trkpt lat="45.75376" lon="4.38279">
        <ele>657.434</ele>
        <time>2019-02-25T14:58:56Z</time>
      </trkpt>
      <trkpt lat="45.75377" lon="4.38276">
        <ele>657.393</ele>
        <time>2019-02-25T14:59:02Z</time>
      </trkpt>
      <trkpt lat="45.75378" lon="4.38275">
        <ele>657.384</ele>
        <time>2019-02-25T14:59:08Z</time>
      </trkpt>
      <trkpt lat="45.75379" lon="4.38276">
        <ele>657.233</ele>
        <time>2019-02-25T14:59:13Z</time>
      </trkpt>
      <trkpt lat="45.75379" lon="4.38276">
        <ele>657.091</ele>
        <time>2019-02-25T14:59:18Z</time>
      </trkpt>
      <trkpt lat="45.75378" lon="4.38276">
        <ele>656.91</ele>
        <time>2019-02-25T14:59:24Z</time>
      </trkpt>
      <trkpt lat="45.75378" lon="4.38276">
        <ele>656.579</ele>
        <time>2019-02-25T14:59:29Z</time>
      </trkpt>
      <trkpt lat="45.75378" lon="4.38277">
        <ele>655.895</ele>
        <time>2019-02-25T14:59:35Z</time>
      </trkpt>
      <trkpt lat="45.75378" lon="4.38277">
        <ele>655.7</ele>
        <time>2019-02-25T14:59:40Z</time>
      </trkpt>
      <trkpt lat="45.75381" lon="4.38278">
        <ele>655.204</ele>
        <time>2019-02-25T14:59:46Z</time>
      </trkpt>
      <trkpt lat="45.75382" lon="4.38281">
        <ele>654.749</ele>
        <time>2019-02-25T14:59:52Z</time>
      </trkpt>
      <trkpt lat="45.75386" lon="4.38288">
        <ele>655.077</ele>
        <time>2019-02-25T14:59:58Z</time>
      </trkpt>
      <trkpt lat="45.75389" lon="4.38294">
        <ele>655.472</ele>
        <time>2019-02-25T15:00:04Z</time>
      </trkpt>
      <trkpt lat="45.75392" lon="4.38302">
        <ele>656.024</ele>
        <time>2019-02-25T15:00:10Z</time>
      </trkpt>
      <trkpt lat="45.75395" lon="4.38311">
        <ele>656.785</ele>
        <time>2019-02-25T15:00:16Z</time>
      </trkpt>
      <trkpt lat="45.75399" lon="4.3832">
        <ele>657.373</ele>
        <time>2019-02-25T15:00:21Z</time>
      </trkpt>
      <trkpt lat="45.75401" lon="4.38328">
        <ele>657.906</ele>
        <time>2019-02-25T15:00:27Z</time>
      </trkpt>
      <trkpt lat="45.75405" lon="4.38338">
        <ele>658.645</ele>
        <time>2019-02-25T15:00:33Z</time>
      </trkpt>
      <trkpt lat="45.75409" lon="4.38349">
        <ele>659.381</ele>
        <time>2019-02-25T15:00:38Z</time>
      </trkpt>
      <trkpt lat="45.75411" lon="4.38356">
        <ele>660.01</ele>
        <time>2019-02-25T15:00:44Z</time>
      </trkpt>
      <trkpt lat="45.75414" lon="4.38363">
        <ele>660.059</ele>
        <time>2019-02-25T15:00:50Z</time>
      </trkpt>
      <trkpt lat="45.75417" lon="4.38372">
        <ele>659.776</ele>
        <time>2019-02-25T15:00:56Z</time>
      </trkpt>
      <trkpt lat="45.7542" lon="4.3838">
        <ele>659.376</ele>
        <time>2019-02-25T15:01:01Z</time>
      </trkpt>
      <trkpt lat="45.75425" lon="4.38392">
        <ele>659.108</ele>
        <time>2019-02-25T15:01:07Z</time>
      </trkpt>
      <trkpt lat="45.75428" lon="4.384">
        <ele>659.266</ele>
        <time>2019-02-25T15:01:12Z</time>
      </trkpt>
      <trkpt lat="45.75429" lon="4.38406">
        <ele>658.976</ele>
        <time>2019-02-25T15:01:17Z</time>
      </trkpt>
      <trkpt lat="45.75431" lon="4.38414">
        <ele>658.62</ele>
        <time>2019-02-25T15:01:23Z</time>
      </trkpt>
      <trkpt lat="45.75433" lon="4.3842">
        <ele>658.183</ele>
        <time>2019-02-25T15:01:28Z</time>
      </trkpt>
      <trkpt lat="45.75435" lon="4.3843">
        <ele>657.536</ele>
        <time>2019-02-25T15:01:34Z</time>
      </trkpt>
      <trkpt lat="45.75435" lon="4.38439">
        <ele>656.919</ele>
        <time>2019-02-25T15:01:40Z</time>
      </trkpt>
      <trkpt lat="45.75436" lon="4.38451">
        <ele>656.055</ele>
        <time>2019-02-25T15:01:46Z</time>
      </trkpt>
      <trkpt lat="45.75437" lon="4.3846">
        <ele>655.413</ele>
        <time>2019-02-25T15:01:52Z</time>
      </trkpt>
      <trkpt lat="45.75438" lon="4.38466">
        <ele>654.771</ele>
        <time>2019-02-25T15:01:58Z</time>
      </trkpt>
      <trkpt lat="45.75443" lon="4.38477">
        <ele>654.418</ele>
        <time>2019-02-25T15:02:04Z</time>
      </trkpt>
      <trkpt lat="45.75445" lon="4.38482">
        <ele>654.141</ele>
        <time>2019-02-25T15:02:10Z</time>
      </trkpt>
      <trkpt lat="45.7545" lon="4.38491">
        <ele>654.114</ele>
        <time>2019-02-25T15:02:16Z</time>
      </trkpt>
      <trkpt lat="45.75455" lon="4.38498">
        <ele>654.185</ele>
        <time>2019-02-25T15:02:21Z</time>
      </trkpt>
      <trkpt lat="45.75459" lon="4.38501">
        <ele>653.679</ele>
        <time>2019-02-25T15:02:26Z</time>
      </trkpt>
      <trkpt lat="45.75463" lon="4.38507">
        <ele>653.159</ele>
        <time>2019-02-25T15:02:32Z</time>
      </trkpt>
      <trkpt lat="45.75467" lon="4.38513">
        <ele>652.842</ele>
        <time>2019-02-25T15:02:37Z</time>
      </trkpt>
      <trkpt lat="45.75474" lon="4.38523">
        <ele>652.155</ele>
        <time>2019-02-25T15:02:43Z</time>
      </trkpt>
      <trkpt lat="45.75478" lon="4.38533">
        <ele>651.757</ele>
        <time>2019-02-25T15:02:49Z</time>
      </trkpt>
      <trkpt lat="45.75481" lon="4.3854">
        <ele>651.455</ele>
        <time>2019-02-25T15:02:54Z</time>
      </trkpt>
      <trkpt lat="45.75485" lon="4.38548">
        <ele>651.288</ele>
        <time>2019-02-25T15:03:00Z</time>
      </trkpt>
      <trkpt lat="45.7549" lon="4.3856">
        <ele>651.045</ele>
        <time>2019-02-25T15:03:06Z</time>
      </trkpt>
      <trkpt lat="45.75491" lon="4.38569">
        <ele>650.852</ele>
        <time>2019-02-25T15:03:11Z</time>
      </trkpt>
      <trkpt lat="45.75493" lon="4.38574">
        <ele>650.955</ele>
        <time>2019-02-25T15:03:16Z</time>
      </trkpt>
      <trkpt lat="45.75496" lon="4.38581">
        <ele>651.55</ele>
        <time>2019-02-25T15:03:22Z</time>
      </trkpt>
      <trkpt lat="45.75496" lon="4.38582">
        <ele>652.085</ele>
        <time>2019-02-25T15:03:28Z</time>
      </trkpt>
      <trkpt lat="45.75495" lon="4.38582">
        <ele>652.085</ele>
        <time>2019-02-25T15:03:34Z</time>
      </trkpt>
      <trkpt lat="45.75494" lon="4.38581">
        <ele>652.074</ele>
        <time>2019-02-25T15:03:39Z</time>
      </trkpt>
      <trkpt lat="45.75493" lon="4.38582">
        <ele>651.923</ele>
        <time>2019-02-25T15:03:45Z</time>
      </trkpt>
      <trkpt lat="45.75492" lon="4.38585">
        <ele>651.462</ele>
        <time>2019-02-25T15:03:50Z</time>
      </trkpt>
      <trkpt lat="45.75491" lon="4.38586">
        <ele>650.688</ele>
        <time>2019-02-25T15:03:55Z</time>
      </trkpt>
      <trkpt lat="45.7549" lon="4.38584">
        <ele>650.339</ele>
        <time>2019-02-25T15:04:00Z</time>
      </trkpt>
      <trkpt lat="45.7549" lon="4.3858">
        <ele>650.356</ele>
        <time>2019-02-25T15:04:06Z</time>
      </trkpt>
      <trkpt lat="45.7549" lon="4.38578">
        <ele>650.422</ele>
        <time>2019-02-25T15:04:11Z</time>
      </trkpt>
      <trkpt lat="45.75491" lon="4.38578">
        <ele>650.44</ele>
        <time>2019-02-25T15:04:16Z</time>
      </trkpt>
      <trkpt lat="45.7549" lon="4.38577">
        <ele>650.467</ele>
        <time>2019-02-25T15:04:22Z</time>
      </trkpt>
      <trkpt lat="45.7549" lon="4.38578">
        <ele>650.564</ele>
        <time>2019-02-25T15:04:28Z</time>
      </trkpt>
      <trkpt lat="45.75491" lon="4.38579">
        <ele>650.672</ele>
        <time>2019-02-25T15:04:34Z</time>
      </trkpt>
      <trkpt lat="45.75492" lon="4.38578">
        <ele>650.721</ele>
        <time>2019-02-25T15:04:40Z</time>
      </trkpt>
      <trkpt lat="45.75491" lon="4.38577">
        <ele>650.941</ele>
        <time>2019-02-25T15:04:46Z</time>
      </trkpt>
      <trkpt lat="45.75491" lon="4.38576">
        <ele>651.276</ele>
        <time>2019-02-25T15:04:51Z</time>
      </trkpt>
      <trkpt lat="45.75492" lon="4.38576">
        <ele>651.889</ele>
        <time>2019-02-25T15:04:57Z</time>
      </trkpt>
      <trkpt lat="45.75491" lon="4.38576">
        <ele>651.857</ele>
        <time>2019-02-25T15:05:02Z</time>
      </trkpt>
      <trkpt lat="45.75489" lon="4.38577">
        <ele>651.229</ele>
        <time>2019-02-25T15:05:08Z</time>
      </trkpt>
      <trkpt lat="45.75488" lon="4.38578">
        <ele>650.791</ele>
        <time>2019-02-25T15:05:14Z</time>
      </trkpt>
      <trkpt lat="45.75489" lon="4.38577">
        <ele>650.678</ele>
        <time>2019-02-25T15:05:19Z</time>
      </trkpt>
      <trkpt lat="45.7549" lon="4.38577">
        <ele>650.626</ele>
        <time>2019-02-25T15:05:24Z</time>
      </trkpt>
      <trkpt lat="45.7549" lon="4.38576">
        <ele>650.47</ele>
        <time>2019-02-25T15:05:31Z</time>
      </trkpt>
      <trkpt lat="45.75487" lon="4.38576">
        <ele>650.37</ele>
        <time>2019-02-25T15:05:37Z</time>
      </trkpt>
      <trkpt lat="45.75487" lon="4.38575">
        <ele>650.138</ele>
        <time>2019-02-25T15:05:42Z</time>
      </trkpt>
      <trkpt lat="45.75487" lon="4.38577">
        <ele>649.934</ele>
        <time>2019-02-25T15:05:48Z</time>
      </trkpt>
      <trkpt lat="45.75488" lon="4.38578">
        <ele>649.543</ele>
        <time>2019-02-25T15:05:54Z</time>
      </trkpt>
      <trkpt lat="45.7549" lon="4.38577">
        <ele>649.148</ele>
        <time>2019-02-25T15:06:00Z</time>
      </trkpt>
      <trkpt lat="45.75494" lon="4.38573">
        <ele>648.908</ele>
        <time>2019-02-25T15:06:06Z</time>
      </trkpt>
      <trkpt lat="45.75498" lon="4.38567">
        <ele>648.65</ele>
        <time>2019-02-25T15:06:12Z</time>
      </trkpt>
      <trkpt lat="45.75504" lon="4.3856">
        <ele>648.344</ele>
        <time>2019-02-25T15:06:18Z</time>
      </trkpt>
      <trkpt lat="45.75508" lon="4.38554">
        <ele>648.151</ele>
        <time>2019-02-25T15:06:23Z</time>
      </trkpt>
      <trkpt lat="45.75512" lon="4.38549">
        <ele>647.555</ele>
        <time>2019-02-25T15:06:29Z</time>
      </trkpt>
      <trkpt lat="45.75516" lon="4.38543">
        <ele>647.019</ele>
        <time>2019-02-25T15:06:34Z</time>
      </trkpt>
      <trkpt lat="45.75521" lon="4.38536">
        <ele>646.645</ele>
        <time>2019-02-25T15:06:40Z</time>
      </trkpt>
      <trkpt lat="45.75525" lon="4.38528">
        <ele>646.263</ele>
        <time>2019-02-25T15:06:45Z</time>
      </trkpt>
      <trkpt lat="45.75532" lon="4.38521">
        <ele>645.88</ele>
        <time>2019-02-25T15:06:51Z</time>
      </trkpt>
      <trkpt lat="45.7554" lon="4.38518">
        <ele>645.668</ele>
        <time>2019-02-25T15:06:56Z</time>
      </trkpt>
      <trkpt lat="45.75547" lon="4.38514">
        <ele>645.715</ele>
        <time>2019-02-25T15:07:02Z</time>
      </trkpt>
      <trkpt lat="45.75553" lon="4.38506">
        <ele>645.354</ele>
        <time>2019-02-25T15:07:08Z</time>
      </trkpt>
      <trkpt lat="45.75558" lon="4.38501">
        <ele>645.309</ele>
        <time>2019-02-25T15:07:14Z</time>
      </trkpt>
      <trkpt lat="45.75563" lon="4.38496">
        <ele>644.885</ele>
        <time>2019-02-25T15:07:20Z</time>
      </trkpt>
      <trkpt lat="45.75568" lon="4.38491">
        <ele>644.512</ele>
        <time>2019-02-25T15:07:25Z</time>
      </trkpt>
      <trkpt lat="45.75576" lon="4.38485">
        <ele>643.814</ele>
        <time>2019-02-25T15:07:31Z</time>
      </trkpt>
      <trkpt lat="45.75582" lon="4.38479">
        <ele>643.423</ele>
        <time>2019-02-25T15:07:36Z</time>
      </trkpt>
      <trkpt lat="45.75587" lon="4.38478">
        <ele>643.113</ele>
        <time>2019-02-25T15:07:41Z</time>
      </trkpt>
      <trkpt lat="45.75593" lon="4.38475">
        <ele>642.687</ele>
        <time>2019-02-25T15:07:47Z</time>
      </trkpt>
      <trkpt lat="45.75597" lon="4.38472">
        <ele>642.361</ele>
        <time>2019-02-25T15:07:53Z</time>
      </trkpt>
      <trkpt lat="45.75603" lon="4.38465">
        <ele>641.922</ele>
        <time>2019-02-25T15:07:59Z</time>
      </trkpt>
      <trkpt lat="45.75608" lon="4.38459">
        <ele>641.58</ele>
        <time>2019-02-25T15:08:05Z</time>
      </trkpt>
      <trkpt lat="45.75615" lon="4.38454">
        <ele>640.826</ele>
        <time>2019-02-25T15:08:11Z</time>
      </trkpt>
      <trkpt lat="45.75618" lon="4.38451">
        <ele>639.975</ele>
        <time>2019-02-25T15:08:16Z</time>
      </trkpt>
      <trkpt lat="45.75621" lon="4.38446">
        <ele>638.783</ele>
        <time>2019-02-25T15:08:21Z</time>
      </trkpt>
      <trkpt lat="45.75628" lon="4.38445">
        <ele>637.371</ele>
        <time>2019-02-25T15:08:27Z</time>
      </trkpt>
      <trkpt lat="45.75634" lon="4.38446">
        <ele>636.626</ele>
        <time>2019-02-25T15:08:32Z</time>
      </trkpt>
      <trkpt lat="45.75641" lon="4.38447">
        <ele>635.186</ele>
        <time>2019-02-25T15:08:38Z</time>
      </trkpt>
      <trkpt lat="45.75648" lon="4.38447">
        <ele>633.748</ele>
        <time>2019-02-25T15:08:44Z</time>
      </trkpt>
      <trkpt lat="45.75654" lon="4.38446">
        <ele>632.517</ele>
        <time>2019-02-25T15:08:50Z</time>
      </trkpt>
      <trkpt lat="45.75663" lon="4.38444">
        <ele>631.821</ele>
        <time>2019-02-25T15:08:55Z</time>
      </trkpt>
      <trkpt lat="45.75668" lon="4.38442">
        <ele>630.726</ele>
        <time>2019-02-25T15:09:01Z</time>
      </trkpt>
      <trkpt lat="45.75674" lon="4.38441">
        <ele>629.546</ele>
        <time>2019-02-25T15:09:06Z</time>
      </trkpt>
      <trkpt lat="45.75679" lon="4.38439">
        <ele>628.375</ele>
        <time>2019-02-25T15:09:12Z</time>
      </trkpt>
      <trkpt lat="45.75685" lon="4.38438">
        <ele>627.21</ele>
        <time>2019-02-25T15:09:17Z</time>
      </trkpt>
      <trkpt lat="45.75691" lon="4.38436">
        <ele>626.116</ele>
        <time>2019-02-25T15:09:22Z</time>
      </trkpt>
      <trkpt lat="45.75699" lon="4.38435">
        <ele>624.951</ele>
        <time>2019-02-25T15:09:28Z</time>
      </trkpt>
      <trkpt lat="45.75708" lon="4.38431">
        <ele>624.05</ele>
        <time>2019-02-25T15:09:34Z</time>
      </trkpt>
      <trkpt lat="45.75714" lon="4.3843">
        <ele>623.072</ele>
        <time>2019-02-25T15:09:40Z</time>
      </trkpt>
      <trkpt lat="45.75721" lon="4.38428">
        <ele>622.673</ele>
        <time>2019-02-25T15:09:45Z</time>
      </trkpt>
      <trkpt lat="45.75729" lon="4.38425">
        <ele>622.102</ele>
        <time>2019-02-25T15:09:51Z</time>
      </trkpt>
      <trkpt lat="45.75736" lon="4.38422">
        <ele>621.595</ele>
        <time>2019-02-25T15:09:57Z</time>
      </trkpt>
      <trkpt lat="45.75743" lon="4.38419">
        <ele>620.99</ele>
        <time>2019-02-25T15:10:03Z</time>
      </trkpt>
      <trkpt lat="45.75747" lon="4.38416">
        <ele>620.081</ele>
        <time>2019-02-25T15:10:09Z</time>
      </trkpt>
      <trkpt lat="45.75756" lon="4.38415">
        <ele>619.262</ele>
        <time>2019-02-25T15:10:15Z</time>
      </trkpt>
      <trkpt lat="45.75764" lon="4.38412">
        <ele>618.653</ele>
        <time>2019-02-25T15:10:21Z</time>
      </trkpt>
      <trkpt lat="45.7577" lon="4.3841">
        <ele>618.024</ele>
        <time>2019-02-25T15:10:26Z</time>
      </trkpt>
      <trkpt lat="45.75778" lon="4.38405">
        <ele>617.221</ele>
        <time>2019-02-25T15:10:32Z</time>
      </trkpt>
      <trkpt lat="45.75785" lon="4.384">
        <ele>616.477</ele>
        <time>2019-02-25T15:10:37Z</time>
      </trkpt>
      <trkpt lat="45.75791" lon="4.38395">
        <ele>615.774</ele>
        <time>2019-02-25T15:10:43Z</time>
      </trkpt>
      <trkpt lat="45.75796" lon="4.38393">
        <ele>615.328</ele>
        <time>2019-02-25T15:10:48Z</time>
      </trkpt>
      <trkpt lat="45.75803" lon="4.38392">
        <ele>614.838</ele>
        <time>2019-02-25T15:10:54Z</time>
      </trkpt>
      <trkpt lat="45.75808" lon="4.38389">
        <ele>614.208</ele>
        <time>2019-02-25T15:10:59Z</time>
      </trkpt>
      <trkpt lat="45.75815" lon="4.38387">
        <ele>613.258</ele>
        <time>2019-02-25T15:11:05Z</time>
      </trkpt>
      <trkpt lat="45.75822" lon="4.38389">
        <ele>612.65</ele>
        <time>2019-02-25T15:11:10Z</time>
      </trkpt>
      <trkpt lat="45.75828" lon="4.38388">
        <ele>611.597</ele>
        <time>2019-02-25T15:11:16Z</time>
      </trkpt>
      <trkpt lat="45.75834" lon="4.38389">
        <ele>610.651</ele>
        <time>2019-02-25T15:11:22Z</time>
      </trkpt>
      <trkpt lat="45.75841" lon="4.38392">
        <ele>609.587</ele>
        <time>2019-02-25T15:11:28Z</time>
      </trkpt>
      <trkpt lat="45.75847" lon="4.38392">
        <ele>608.636</ele>
        <time>2019-02-25T15:11:33Z</time>
      </trkpt>
      <trkpt lat="45.75852" lon="4.38392">
        <ele>607.264</ele>
        <time>2019-02-25T15:11:39Z</time>
      </trkpt>
      <trkpt lat="45.75859" lon="4.3839">
        <ele>606.042</ele>
        <time>2019-02-25T15:11:45Z</time>
      </trkpt>
      <trkpt lat="45.75863" lon="4.38391">
        <ele>605.29</ele>
        <time>2019-02-25T15:11:50Z</time>
      </trkpt>
      <trkpt lat="45.75871" lon="4.38391">
        <ele>604.375</ele>
        <time>2019-02-25T15:11:56Z</time>
      </trkpt>
      <trkpt lat="45.75876" lon="4.38389">
        <ele>603.581</ele>
        <time>2019-02-25T15:12:01Z</time>
      </trkpt>
      <trkpt lat="45.75882" lon="4.38385">
        <ele>602.314</ele>
        <time>2019-02-25T15:12:07Z</time>
      </trkpt>
      <trkpt lat="45.75885" lon="4.38381">
        <ele>601.504</ele>
        <time>2019-02-25T15:12:12Z</time>
      </trkpt>
      <trkpt lat="45.7589" lon="4.38378">
        <ele>600.077</ele>
        <time>2019-02-25T15:12:18Z</time>
      </trkpt>
      <trkpt lat="45.75897" lon="4.38373">
        <ele>598.91</ele>
        <time>2019-02-25T15:12:24Z</time>
      </trkpt>
      <trkpt lat="45.75904" lon="4.38367">
        <ele>597.864</ele>
        <time>2019-02-25T15:12:30Z</time>
      </trkpt>
      <trkpt lat="45.7591" lon="4.38363">
        <ele>596.602</ele>
        <time>2019-02-25T15:12:36Z</time>
      </trkpt>
      <trkpt lat="45.75915" lon="4.3836">
        <ele>595.44</ele>
        <time>2019-02-25T15:12:42Z</time>
      </trkpt>
      <trkpt lat="45.75923" lon="4.38357">
        <ele>594.319</ele>
        <time>2019-02-25T15:12:48Z</time>
      </trkpt>
      <trkpt lat="45.75929" lon="4.38352">
        <ele>593.164</ele>
        <time>2019-02-25T15:12:54Z</time>
      </trkpt>
      <trkpt lat="45.75934" lon="4.38347">
        <ele>592.09</ele>
        <time>2019-02-25T15:13:00Z</time>
      </trkpt>
      <trkpt lat="45.75939" lon="4.38342">
        <ele>591.461</ele>
        <time>2019-02-25T15:13:05Z</time>
      </trkpt>
      <trkpt lat="45.75945" lon="4.38339">
        <ele>590.462</ele>
        <time>2019-02-25T15:13:11Z</time>
      </trkpt>
      <trkpt lat="45.75952" lon="4.38336">
        <ele>589.691</ele>
        <time>2019-02-25T15:13:16Z</time>
      </trkpt>
      <trkpt lat="45.75957" lon="4.38332">
        <ele>588.597</ele>
        <time>2019-02-25T15:13:22Z</time>
      </trkpt>
      <trkpt lat="45.75962" lon="4.38327">
        <ele>587.599</ele>
        <time>2019-02-25T15:13:27Z</time>
      </trkpt>
      <trkpt lat="45.75966" lon="4.38319">
        <ele>586.144</ele>
        <time>2019-02-25T15:13:33Z</time>
      </trkpt>
      <trkpt lat="45.75968" lon="4.38313">
        <ele>584.834</ele>
        <time>2019-02-25T15:13:38Z</time>
      </trkpt>
      <trkpt lat="45.75966" lon="4.38305">
        <ele>583.644</ele>
        <time>2019-02-25T15:13:43Z</time>
      </trkpt>
      <trkpt lat="45.75966" lon="4.38299">
        <ele>582.491</ele>
        <time>2019-02-25T15:13:48Z</time>
      </trkpt>
      <trkpt lat="45.75971" lon="4.38286">
        <ele>580.939</ele>
        <time>2019-02-25T15:13:54Z</time>
      </trkpt>
      <trkpt lat="45.75979" lon="4.38282">
        <ele>579.911</ele>
        <time>2019-02-25T15:13:59Z</time>
      </trkpt>
      <trkpt lat="45.75984" lon="4.38275">
        <ele>579.202</ele>
        <time>2019-02-25T15:14:05Z</time>
      </trkpt>
      <trkpt lat="45.7599" lon="4.38272">
        <ele>578.825</ele>
        <time>2019-02-25T15:14:10Z</time>
      </trkpt>
      <trkpt lat="45.75996" lon="4.38271">
        <ele>578.676</ele>
        <time>2019-02-25T15:14:16Z</time>
      </trkpt>
      <trkpt lat="45.76005" lon="4.38267">
        <ele>578.386</ele>
        <time>2019-02-25T15:14:22Z</time>
      </trkpt>
      <trkpt lat="45.76015" lon="4.38262">
        <ele>578.198</ele>
        <time>2019-02-25T15:14:28Z</time>
      </trkpt>
      <trkpt lat="45.7602" lon="4.38258">
        <ele>578.089</ele>
        <time>2019-02-25T15:14:33Z</time>
      </trkpt>
      <trkpt lat="45.76024" lon="4.38251">
        <ele>577.609</ele>
        <time>2019-02-25T15:14:39Z</time>
      </trkpt>
      <trkpt lat="45.76025" lon="4.38242">
        <ele>577.209</ele>
        <time>2019-02-25T15:14:44Z</time>
      </trkpt>
      <trkpt lat="45.76025" lon="4.38233">
        <ele>576.971</ele>
        <time>2019-02-25T15:14:50Z</time>
      </trkpt>
      <trkpt lat="45.76026" lon="4.38227">
        <ele>576.615</ele>
        <time>2019-02-25T15:14:55Z</time>
      </trkpt>
      <trkpt lat="45.76027" lon="4.38221">
        <ele>576.32</ele>
        <time>2019-02-25T15:15:01Z</time>
      </trkpt>
      <trkpt lat="45.7603" lon="4.38213">
        <ele>575.991</ele>
        <time>2019-02-25T15:15:06Z</time>
      </trkpt>
      <trkpt lat="45.76031" lon="4.38203">
        <ele>576.226</ele>
        <time>2019-02-25T15:15:12Z</time>
      </trkpt>
      <trkpt lat="45.76033" lon="4.3819">
        <ele>575.962</ele>
        <time>2019-02-25T15:15:18Z</time>
      </trkpt>
      <trkpt lat="45.76036" lon="4.38184">
        <ele>576.027</ele>
        <time>2019-02-25T15:15:23Z</time>
      </trkpt>
      <trkpt lat="45.76038" lon="4.38175">
        <ele>576.241</ele>
        <time>2019-02-25T15:15:29Z</time>
      </trkpt>
      <trkpt lat="45.7604" lon="4.38166">
        <ele>576.589</ele>
        <time>2019-02-25T15:15:35Z</time>
      </trkpt>
      <trkpt lat="45.76045" lon="4.38159">
        <ele>577.254</ele>
        <time>2019-02-25T15:15:41Z</time>
      </trkpt>
      <trkpt lat="45.76047" lon="4.38154">
        <ele>577.461</ele>
        <time>2019-02-25T15:15:46Z</time>
      </trkpt>
      <trkpt lat="45.7605" lon="4.38147">
        <ele>577.417</ele>
        <time>2019-02-25T15:15:52Z</time>
      </trkpt>
      <trkpt lat="45.76054" lon="4.3814">
        <ele>577.66</ele>
        <time>2019-02-25T15:15:58Z</time>
      </trkpt>
      <trkpt lat="45.76058" lon="4.38135">
        <ele>577.982</ele>
        <time>2019-02-25T15:16:03Z</time>
      </trkpt>
      <trkpt lat="45.76062" lon="4.38131">
        <ele>578.358</ele>
        <time>2019-02-25T15:16:09Z</time>
      </trkpt>
      <trkpt lat="45.76067" lon="4.38132">
        <ele>578.702</ele>
        <time>2019-02-25T15:16:15Z</time>
      </trkpt>
      <trkpt lat="45.76068" lon="4.38132">
        <ele>579.183</ele>
        <time>2019-02-25T15:16:21Z</time>
      </trkpt>
      <trkpt lat="45.76068" lon="4.38132">
        <ele>579.825</ele>
        <time>2019-02-25T15:16:26Z</time>
      </trkpt>
      <trkpt lat="45.76068" lon="4.38131">
        <ele>579.925</ele>
        <time>2019-02-25T15:16:31Z</time>
      </trkpt>
      <trkpt lat="45.76069" lon="4.38131">
        <ele>579.847</ele>
        <time>2019-02-25T15:16:37Z</time>
      </trkpt>
      <trkpt lat="45.76069" lon="4.38132">
        <ele>580.625</ele>
        <time>2019-02-25T15:16:42Z</time>
      </trkpt>
      <trkpt lat="45.76072" lon="4.38136">
        <ele>581.419</ele>
        <time>2019-02-25T15:16:48Z</time>
      </trkpt>
      <trkpt lat="45.76072" lon="4.38131">
        <ele>581.593</ele>
        <time>2019-02-25T15:16:54Z</time>
      </trkpt>
      <trkpt lat="45.76069" lon="4.38129">
        <ele>581.365</ele>
        <time>2019-02-25T15:17:00Z</time>
      </trkpt>
      <trkpt lat="45.76069" lon="4.38129">
        <ele>582.008</ele>
        <time>2019-02-25T15:17:06Z</time>
      </trkpt>
      <trkpt lat="45.76068" lon="4.3813">
        <ele>582.84</ele>
        <time>2019-02-25T15:17:12Z</time>
      </trkpt>
      <trkpt lat="45.76066" lon="4.3813">
        <ele>583.32</ele>
        <time>2019-02-25T15:17:18Z</time>
      </trkpt>
      <trkpt lat="45.76067" lon="4.38129">
        <ele>583.464</ele>
        <time>2019-02-25T15:17:24Z</time>
      </trkpt>
      <trkpt lat="45.76066" lon="4.3813">
        <ele>583.176</ele>
        <time>2019-02-25T15:17:30Z</time>
      </trkpt>
      <trkpt lat="45.76067" lon="4.38129">
        <ele>583.369</ele>
        <time>2019-02-25T15:17:36Z</time>
      </trkpt>
      <trkpt lat="45.76067" lon="4.38129">
        <ele>583.415</ele>
        <time>2019-02-25T15:17:42Z</time>
      </trkpt>
      <trkpt lat="45.76065" lon="4.38129">
        <ele>583.682</ele>
        <time>2019-02-25T15:17:48Z</time>
      </trkpt>
      <trkpt lat="45.76065" lon="4.38127">
        <ele>583.663</ele>
        <time>2019-02-25T15:17:54Z</time>
      </trkpt>
      <trkpt lat="45.76067" lon="4.38128">
        <ele>583.711</ele>
        <time>2019-02-25T15:18:00Z</time>
      </trkpt>
      <trkpt lat="45.76068" lon="4.38129">
        <ele>583.96</ele>
        <time>2019-02-25T15:18:06Z</time>
      </trkpt>
      <trkpt lat="45.76068" lon="4.3813">
        <ele>584.062</ele>
        <time>2019-02-25T15:18:11Z</time>
      </trkpt>
      <trkpt lat="45.76068" lon="4.38132">
        <ele>584.092</ele>
        <time>2019-02-25T15:18:17Z</time>
      </trkpt>
      <trkpt lat="45.76067" lon="4.38132">
        <ele>584.216</ele>
        <time>2019-02-25T15:18:22Z</time>
      </trkpt>
      <trkpt lat="45.7607" lon="4.38132">
        <ele>584.347</ele>
        <time>2019-02-25T15:18:28Z</time>
      </trkpt>
      <trkpt lat="45.76072" lon="4.38131">
        <ele>584.414</ele>
        <time>2019-02-25T15:18:34Z</time>
      </trkpt>
      <trkpt lat="45.76072" lon="4.38134">
        <ele>584.896</ele>
        <time>2019-02-25T15:18:39Z</time>
      </trkpt>
      <trkpt lat="45.76076" lon="4.38139">
        <ele>585.29</ele>
        <time>2019-02-25T15:18:44Z</time>
      </trkpt>
      <trkpt lat="45.76079" lon="4.38144">
        <ele>585.764</ele>
        <time>2019-02-25T15:18:50Z</time>
      </trkpt>
      <trkpt lat="45.76081" lon="4.38148">
        <ele>586.184</ele>
        <time>2019-02-25T15:18:55Z</time>
      </trkpt>
      <trkpt lat="45.76086" lon="4.38155">
        <ele>586.378</ele>
        <time>2019-02-25T15:19:01Z</time>
      </trkpt>
      <trkpt lat="45.7609" lon="4.3816">
        <ele>586.61</ele>
        <time>2019-02-25T15:19:06Z</time>
      </trkpt>
      <trkpt lat="45.76094" lon="4.38165">
        <ele>587.165</ele>
        <time>2019-02-25T15:19:12Z</time>
      </trkpt>
      <trkpt lat="45.76098" lon="4.38169">
        <ele>587.526</ele>
        <time>2019-02-25T15:19:17Z</time>
      </trkpt>
      <trkpt lat="45.76103" lon="4.38175">
        <ele>587.967</ele>
        <time>2019-02-25T15:19:23Z</time>
      </trkpt>
      <trkpt lat="45.76107" lon="4.38183">
        <ele>588.518</ele>
        <time>2019-02-25T15:19:29Z</time>
      </trkpt>
      <trkpt lat="45.7611" lon="4.38186">
        <ele>589.501</ele>
        <time>2019-02-25T15:19:35Z</time>
      </trkpt>
      <trkpt lat="45.76114" lon="4.3819">
        <ele>590.698</ele>
        <time>2019-02-25T15:19:41Z</time>
      </trkpt>
      <trkpt lat="45.76116" lon="4.38194">
        <ele>592.185</ele>
        <time>2019-02-25T15:19:47Z</time>
      </trkpt>
      <trkpt lat="45.76119" lon="4.382">
        <ele>593.047</ele>
        <time>2019-02-25T15:19:53Z</time>
      </trkpt>
      <trkpt lat="45.76124" lon="4.38205">
        <ele>593.507</ele>
        <time>2019-02-25T15:19:59Z</time>
      </trkpt>
      <trkpt lat="45.7613" lon="4.38213">
        <ele>593.983</ele>
        <time>2019-02-25T15:20:05Z</time>
      </trkpt>
      <trkpt lat="45.76135" lon="4.38217">
        <ele>594.634</ele>
        <time>2019-02-25T15:20:11Z</time>
      </trkpt>
      <trkpt lat="45.76139" lon="4.38222">
        <ele>595.176</ele>
        <time>2019-02-25T15:20:16Z</time>
      </trkpt>
      <trkpt lat="45.76144" lon="4.38228">
        <ele>595.806</ele>
        <time>2019-02-25T15:20:22Z</time>
      </trkpt>
      <trkpt lat="45.76147" lon="4.3823">
        <ele>596.659</ele>
        <time>2019-02-25T15:20:27Z</time>
      </trkpt>
      <trkpt lat="45.76153" lon="4.38235">
        <ele>597.298</ele>
        <time>2019-02-25T15:20:33Z</time>
      </trkpt>
      <trkpt lat="45.76158" lon="4.38239">
        <ele>597.764</ele>
        <time>2019-02-25T15:20:39Z</time>
      </trkpt>
      <trkpt lat="45.76163" lon="4.38241">
        <ele>598.461</ele>
        <time>2019-02-25T15:20:45Z</time>
      </trkpt>
      <trkpt lat="45.76165" lon="4.38241">
        <ele>598.896</ele>
        <time>2019-02-25T15:20:51Z</time>
      </trkpt>
      <trkpt lat="45.76167" lon="4.38237">
        <ele>599.216</ele>
        <time>2019-02-25T15:20:56Z</time>
      </trkpt>
      <trkpt lat="45.76169" lon="4.38233">
        <ele>599.988</ele>
        <time>2019-02-25T15:21:02Z</time>
      </trkpt>
      <trkpt lat="45.76172" lon="4.38232">
        <ele>600.82</ele>
        <time>2019-02-25T15:21:08Z</time>
      </trkpt>
      <trkpt lat="45.76178" lon="4.38229">
        <ele>601.239</ele>
        <time>2019-02-25T15:21:13Z</time>
      </trkpt>
      <trkpt lat="45.76185" lon="4.38227">
        <ele>601.765</ele>
        <time>2019-02-25T15:21:19Z</time>
      </trkpt>
      <trkpt lat="45.76189" lon="4.38227">
        <ele>602.513</ele>
        <time>2019-02-25T15:21:24Z</time>
      </trkpt>
      <trkpt lat="45.76195" lon="4.38224">
        <ele>603.052</ele>
        <time>2019-02-25T15:21:30Z</time>
      </trkpt>
      <trkpt lat="45.76201" lon="4.38224">
        <ele>603.742</ele>
        <time>2019-02-25T15:21:35Z</time>
      </trkpt>
      <trkpt lat="45.76207" lon="4.38224">
        <ele>604.279</ele>
        <time>2019-02-25T15:21:40Z</time>
      </trkpt>
      <trkpt lat="45.76214" lon="4.38224">
        <ele>604.754</ele>
        <time>2019-02-25T15:21:45Z</time>
      </trkpt>
      <trkpt lat="45.76219" lon="4.38223">
        <ele>605.478</ele>
        <time>2019-02-25T15:21:51Z</time>
      </trkpt>
      <trkpt lat="45.76226" lon="4.38224">
        <ele>605.976</ele>
        <time>2019-02-25T15:21:56Z</time>
      </trkpt>
      <trkpt lat="45.76233" lon="4.38222">
        <ele>606.447</ele>
        <time>2019-02-25T15:22:02Z</time>
      </trkpt>
      <trkpt lat="45.76238" lon="4.3822">
        <ele>607.321</ele>
        <time>2019-02-25T15:22:07Z</time>
      </trkpt>
      <trkpt lat="45.76245" lon="4.38218">
        <ele>608.504</ele>
        <time>2019-02-25T15:22:13Z</time>
      </trkpt>
      <trkpt lat="45.7625" lon="4.38218">
        <ele>609.106</ele>
        <time>2019-02-25T15:22:18Z</time>
      </trkpt>
      <trkpt lat="45.76257" lon="4.38219">
        <ele>609.537</ele>
        <time>2019-02-25T15:22:23Z</time>
      </trkpt>
      <trkpt lat="45.76262" lon="4.38221">
        <ele>610.154</ele>
        <time>2019-02-25T15:22:29Z</time>
      </trkpt>
      <trkpt lat="45.76266" lon="4.38222">
        <ele>610.282</ele>
        <time>2019-02-25T15:22:34Z</time>
      </trkpt>
      <trkpt lat="45.76272" lon="4.38222">
        <ele>610.105</ele>
        <time>2019-02-25T15:22:40Z</time>
      </trkpt>
      <trkpt lat="45.76276" lon="4.38221">
        <ele>610.231</ele>
        <time>2019-02-25T15:22:45Z</time>
      </trkpt>
      <trkpt lat="45.76285" lon="4.38221">
        <ele>610.608</ele>
        <time>2019-02-25T15:22:51Z</time>
      </trkpt>
      <trkpt lat="45.76289" lon="4.38219">
        <ele>610.854</ele>
        <time>2019-02-25T15:22:57Z</time>
      </trkpt>
      <trkpt lat="45.76296" lon="4.38217">
        <ele>611.347</ele>
        <time>2019-02-25T15:23:03Z</time>
      </trkpt>
      <trkpt lat="45.76305" lon="4.38216">
        <ele>612.124</ele>
        <time>2019-02-25T15:23:09Z</time>
      </trkpt>
      <trkpt lat="45.76311" lon="4.38215">
        <ele>612.952</ele>
        <time>2019-02-25T15:23:14Z</time>
      </trkpt>
      <trkpt lat="45.76317" lon="4.38215">
        <ele>613.63</ele>
        <time>2019-02-25T15:23:20Z</time>
      </trkpt>
      <trkpt lat="45.76325" lon="4.38216">
        <ele>614.032</ele>
        <time>2019-02-25T15:23:26Z</time>
      </trkpt>
      <trkpt lat="45.76331" lon="4.38217">
        <ele>614.315</ele>
        <time>2019-02-25T15:23:31Z</time>
      </trkpt>
      <trkpt lat="45.7634" lon="4.38214">
        <ele>614.738</ele>
        <time>2019-02-25T15:23:37Z</time>
      </trkpt>
      <trkpt lat="45.76344" lon="4.38215">
        <ele>614.945</ele>
        <time>2019-02-25T15:23:42Z</time>
      </trkpt>
      <trkpt lat="45.76351" lon="4.38216">
        <ele>615.044</ele>
        <time>2019-02-25T15:23:48Z</time>
      </trkpt>
      <trkpt lat="45.76358" lon="4.38218">
        <ele>615.532</ele>
        <time>2019-02-25T15:23:53Z</time>
      </trkpt>
      <trkpt lat="45.76363" lon="4.38221">
        <ele>616.473</ele>
        <time>2019-02-25T15:23:59Z</time>
      </trkpt>
      <trkpt lat="45.76371" lon="4.38225">
        <ele>616.756</ele>
        <time>2019-02-25T15:24:05Z</time>
      </trkpt>
      <trkpt lat="45.76377" lon="4.38228">
        <ele>616.937</ele>
        <time>2019-02-25T15:24:11Z</time>
      </trkpt>
      <trkpt lat="45.76381" lon="4.3823">
        <ele>617.103</ele>
        <time>2019-02-25T15:24:16Z</time>
      </trkpt>
      <trkpt lat="45.76387" lon="4.38234">
        <ele>617.32</ele>
        <time>2019-02-25T15:24:22Z</time>
      </trkpt>
      <trkpt lat="45.76392" lon="4.38235">
        <ele>617.724</ele>
        <time>2019-02-25T15:24:28Z</time>
      </trkpt>
      <trkpt lat="45.76402" lon="4.3824">
        <ele>618.4</ele>
        <time>2019-02-25T15:24:34Z</time>
      </trkpt>
      <trkpt lat="45.76407" lon="4.38245">
        <ele>618.988</ele>
        <time>2019-02-25T15:24:39Z</time>
      </trkpt>
      <trkpt lat="45.76413" lon="4.38248">
        <ele>619.783</ele>
        <time>2019-02-25T15:24:45Z</time>
      </trkpt>
      <trkpt lat="45.76416" lon="4.38252">
        <ele>620.257</ele>
        <time>2019-02-25T15:24:50Z</time>
      </trkpt>
      <trkpt lat="45.76422" lon="4.38255">
        <ele>621.017</ele>
        <time>2019-02-25T15:24:56Z</time>
      </trkpt>
      <trkpt lat="45.76429" lon="4.38258">
        <ele>621.893</ele>
        <time>2019-02-25T15:25:02Z</time>
      </trkpt>
      <trkpt lat="45.76437" lon="4.38259">
        <ele>622.321</ele>
        <time>2019-02-25T15:25:07Z</time>
      </trkpt>
      <trkpt lat="45.76444" lon="4.38259">
        <ele>622.425</ele>
        <time>2019-02-25T15:25:13Z</time>
      </trkpt>
      <trkpt lat="45.76448" lon="4.38259">
        <ele>622.875</ele>
        <time>2019-02-25T15:25:18Z</time>
      </trkpt>
      <trkpt lat="45.76455" lon="4.3826">
        <ele>623.62</ele>
        <time>2019-02-25T15:25:24Z</time>
      </trkpt>
      <trkpt lat="45.76461" lon="4.3826">
        <ele>624.681</ele>
        <time>2019-02-25T15:25:30Z</time>
      </trkpt>
      <trkpt lat="45.76467" lon="4.38262">
        <ele>625.101</ele>
        <time>2019-02-25T15:25:36Z</time>
      </trkpt>
      <trkpt lat="45.76472" lon="4.38262">
        <ele>625.036</ele>
        <time>2019-02-25T15:25:41Z</time>
      </trkpt>
      <trkpt lat="45.76477" lon="4.3826">
        <ele>625.093</ele>
        <time>2019-02-25T15:25:46Z</time>
      </trkpt>
      <trkpt lat="45.76483" lon="4.38256">
        <ele>625.37</ele>
        <time>2019-02-25T15:25:52Z</time>
      </trkpt>
      <trkpt lat="45.76491" lon="4.38255">
        <ele>625.684</ele>
        <time>2019-02-25T15:25:58Z</time>
      </trkpt>
      <trkpt lat="45.76498" lon="4.38253">
        <ele>626.128</ele>
        <time>2019-02-25T15:26:03Z</time>
      </trkpt>
      <trkpt lat="45.76504" lon="4.38253">
        <ele>626.636</ele>
        <time>2019-02-25T15:26:09Z</time>
      </trkpt>
      <trkpt lat="45.76511" lon="4.38254">
        <ele>627.381</ele>
        <time>2019-02-25T15:26:15Z</time>
      </trkpt>
      <trkpt lat="45.76521" lon="4.38258">
        <ele>628.105</ele>
        <time>2019-02-25T15:26:21Z</time>
      </trkpt>
      <trkpt lat="45.76526" lon="4.38258">
        <ele>628.824</ele>
        <time>2019-02-25T15:26:27Z</time>
      </trkpt>
      <trkpt lat="45.76534" lon="4.38261">
        <ele>629.219</ele>
        <time>2019-02-25T15:26:33Z</time>
      </trkpt>
      <trkpt lat="45.76538" lon="4.38262">
        <ele>629.563</ele>
        <time>2019-02-25T15:26:38Z</time>
      </trkpt>
      <trkpt lat="45.76545" lon="4.38261">
        <ele>629.9</ele>
        <time>2019-02-25T15:26:44Z</time>
      </trkpt>
      <trkpt lat="45.7655" lon="4.38261">
        <ele>630.62</ele>
        <time>2019-02-25T15:26:49Z</time>
      </trkpt>
      <trkpt lat="45.76556" lon="4.38262">
        <ele>630.966</ele>
        <time>2019-02-25T15:26:54Z</time>
      </trkpt>
      <trkpt lat="45.76564" lon="4.38261">
        <ele>631.676</ele>
        <time>2019-02-25T15:27:00Z</time>
      </trkpt>
      <trkpt lat="45.76569" lon="4.38258">
        <ele>632.405</ele>
        <time>2019-02-25T15:27:05Z</time>
      </trkpt>
      <trkpt lat="45.76576" lon="4.38258">
        <ele>633.35</ele>
        <time>2019-02-25T15:27:11Z</time>
      </trkpt>
      <trkpt lat="45.76581" lon="4.38257">
        <ele>633.896</ele>
        <time>2019-02-25T15:27:16Z</time>
      </trkpt>
      <trkpt lat="45.76588" lon="4.38257">
        <ele>634.234</ele>
        <time>2019-02-25T15:27:22Z</time>
      </trkpt>
      <trkpt lat="45.76596" lon="4.38256">
        <ele>634.64</ele>
        <time>2019-02-25T15:27:28Z</time>
      </trkpt>
      <trkpt lat="45.766" lon="4.38255">
        <ele>635.244</ele>
        <time>2019-02-25T15:27:33Z</time>
      </trkpt>
      <trkpt lat="45.76606" lon="4.38255">
        <ele>636.588</ele>
        <time>2019-02-25T15:27:39Z</time>
      </trkpt>
      <trkpt lat="45.76614" lon="4.38252">
        <ele>637.64</ele>
        <time>2019-02-25T15:27:45Z</time>
      </trkpt>
      <trkpt lat="45.76621" lon="4.3825">
        <ele>637.787</ele>
        <time>2019-02-25T15:27:51Z</time>
      </trkpt>
      <trkpt lat="45.76628" lon="4.38244">
        <ele>638.233</ele>
        <time>2019-02-25T15:27:56Z</time>
      </trkpt>
      <trkpt lat="45.76635" lon="4.3824">
        <ele>638.347</ele>
        <time>2019-02-25T15:28:02Z</time>
      </trkpt>
      <trkpt lat="45.7664" lon="4.38236">
        <ele>638.636</ele>
        <time>2019-02-25T15:28:08Z</time>
      </trkpt>
      <trkpt lat="45.76646" lon="4.38231">
        <ele>639.182</ele>
        <time>2019-02-25T15:28:13Z</time>
      </trkpt>
      <trkpt lat="45.7665" lon="4.38229">
        <ele>639.599</ele>
        <time>2019-02-25T15:28:18Z</time>
      </trkpt>
      <trkpt lat="45.76656" lon="4.38225">
        <ele>639.896</ele>
        <time>2019-02-25T15:28:24Z</time>
      </trkpt>
      <trkpt lat="45.76661" lon="4.38223">
        <ele>640.745</ele>
        <time>2019-02-25T15:28:30Z</time>
      </trkpt>
      <trkpt lat="45.76667" lon="4.38222">
        <ele>641.304</ele>
        <time>2019-02-25T15:28:35Z</time>
      </trkpt>
      <trkpt lat="45.76675" lon="4.38223">
        <ele>641.651</ele>
        <time>2019-02-25T15:28:41Z</time>
      </trkpt>
      <trkpt lat="45.76681" lon="4.38224">
        <ele>642.302</ele>
        <time>2019-02-25T15:28:47Z</time>
      </trkpt>
      <trkpt lat="45.76687" lon="4.38223">
        <ele>643.036</ele>
        <time>2019-02-25T15:28:52Z</time>
      </trkpt>
      <trkpt lat="45.76693" lon="4.38221">
        <ele>644.223</ele>
        <time>2019-02-25T15:28:58Z</time>
      </trkpt>
      <trkpt lat="45.76698" lon="4.3822">
        <ele>644.977</ele>
        <time>2019-02-25T15:29:03Z</time>
      </trkpt>
      <trkpt lat="45.76704" lon="4.38219">
        <ele>645.485</ele>
        <time>2019-02-25T15:29:09Z</time>
      </trkpt>
      <trkpt lat="45.76709" lon="4.38219">
        <ele>646.207</ele>
        <time>2019-02-25T15:29:14Z</time>
      </trkpt>
      <trkpt lat="45.76718" lon="4.38217">
        <ele>647.315</ele>
        <time>2019-02-25T15:29:20Z</time>
      </trkpt>
      <trkpt lat="45.76726" lon="4.38217">
        <ele>648.018</ele>
        <time>2019-02-25T15:29:25Z</time>
      </trkpt>
      <trkpt lat="45.76729" lon="4.38217">
        <ele>648.661</ele>
        <time>2019-02-25T15:29:31Z</time>
      </trkpt>
      <trkpt lat="45.76734" lon="4.38215">
        <ele>648.939</ele>
        <time>2019-02-25T15:29:36Z</time>
      </trkpt>
      <trkpt lat="45.76741" lon="4.38213">
        <ele>649.65</ele>
        <time>2019-02-25T15:29:41Z</time>
      </trkpt>
      <trkpt lat="45.76746" lon="4.38209">
        <ele>651.087</ele>
        <time>2019-02-25T15:29:47Z</time>
      </trkpt>
      <trkpt lat="45.76749" lon="4.38207">
        <ele>651.749</ele>
        <time>2019-02-25T15:29:52Z</time>
      </trkpt>
      <trkpt lat="45.76756" lon="4.38203">
        <ele>652.358</ele>
        <time>2019-02-25T15:29:58Z</time>
      </trkpt>
      <trkpt lat="45.7676" lon="4.382">
        <ele>652.77</ele>
        <time>2019-02-25T15:30:03Z</time>
      </trkpt>
      <trkpt lat="45.76765" lon="4.38196">
        <ele>653.496</ele>
        <time>2019-02-25T15:30:09Z</time>
      </trkpt>
      <trkpt lat="45.76769" lon="4.38193">
        <ele>653.873</ele>
        <time>2019-02-25T15:30:14Z</time>
      </trkpt>
      <trkpt lat="45.76773" lon="4.38189">
        <ele>654.073</ele>
        <time>2019-02-25T15:30:20Z</time>
      </trkpt>
      <trkpt lat="45.76775" lon="4.38186">
        <ele>654.347</ele>
        <time>2019-02-25T15:30:26Z</time>
      </trkpt>
      <trkpt lat="45.76776" lon="4.38186">
        <ele>654.265</ele>
        <time>2019-02-25T15:30:32Z</time>
      </trkpt>
      <trkpt lat="45.76776" lon="4.38188">
        <ele>654.484</ele>
        <time>2019-02-25T15:30:37Z</time>
      </trkpt>
      <trkpt lat="45.76776" lon="4.38191">
        <ele>655.074</ele>
        <time>2019-02-25T15:30:43Z</time>
      </trkpt>
      <trkpt lat="45.76776" lon="4.38192">
        <ele>655.595</ele>
        <time>2019-02-25T15:30:48Z</time>
      </trkpt>
      <trkpt lat="45.76778" lon="4.3819">
        <ele>655.831</ele>
        <time>2019-02-25T15:30:53Z</time>
      </trkpt>
      <trkpt lat="45.76778" lon="4.38189">
        <ele>655.867</ele>
        <time>2019-02-25T15:30:59Z</time>
      </trkpt>
      <trkpt lat="45.76778" lon="4.3819">
        <ele>656.085</ele>
        <time>2019-02-25T15:31:05Z</time>
      </trkpt>
      <trkpt lat="45.76779" lon="4.38189">
        <ele>656.435</ele>
        <time>2019-02-25T15:31:10Z</time>
      </trkpt>
      <trkpt lat="45.76779" lon="4.38188">
        <ele>656.649</ele>
        <time>2019-02-25T15:31:16Z</time>
      </trkpt>
      <trkpt lat="45.76778" lon="4.38187">
        <ele>656.951</ele>
        <time>2019-02-25T15:31:22Z</time>
      </trkpt>
      <trkpt lat="45.76778" lon="4.38186">
        <ele>657.101</ele>
        <time>2019-02-25T15:31:27Z</time>
      </trkpt>
      <trkpt lat="45.76778" lon="4.38186">
        <ele>657.172</ele>
        <time>2019-02-25T15:31:32Z</time>
      </trkpt>
      <trkpt lat="45.76778" lon="4.38188">
        <ele>657.153</ele>
        <time>2019-02-25T15:31:38Z</time>
      </trkpt>
      <trkpt lat="45.76778" lon="4.38189">
        <ele>657.105</ele>
        <time>2019-02-25T15:31:43Z</time>
      </trkpt>
      <trkpt lat="45.76778" lon="4.38189">
        <ele>657.218</ele>
        <time>2019-02-25T15:31:49Z</time>
      </trkpt>
      <trkpt lat="45.76778" lon="4.38189">
        <ele>657.208</ele>
        <time>2019-02-25T15:31:54Z</time>
      </trkpt>
      <trkpt lat="45.76779" lon="4.38189">
        <ele>657.034</ele>
        <time>2019-02-25T15:32:00Z</time>
      </trkpt>
      <trkpt lat="45.76778" lon="4.38189">
        <ele>656.712</ele>
        <time>2019-02-25T15:32:05Z</time>
      </trkpt>
      <trkpt lat="45.76778" lon="4.38189">
        <ele>656.647</ele>
        <time>2019-02-25T15:32:11Z</time>
      </trkpt>
      <trkpt lat="45.76777" lon="4.3819">
        <ele>656.726</ele>
        <time>2019-02-25T15:32:16Z</time>
      </trkpt>
      <trkpt lat="45.76778" lon="4.38189">
        <ele>656.919</ele>
        <time>2019-02-25T15:32:22Z</time>
      </trkpt>
      <trkpt lat="45.76778" lon="4.38189">
        <ele>656.908</ele>
        <time>2019-02-25T15:32:27Z</time>
      </trkpt>
      <trkpt lat="45.76778" lon="4.3819">
        <ele>656.898</ele>
        <time>2019-02-25T15:32:33Z</time>
      </trkpt>
      <trkpt lat="45.76777" lon="4.38191">
        <ele>656.888</ele>
        <time>2019-02-25T15:32:39Z</time>
      </trkpt>
      <trkpt lat="45.76778" lon="4.38191">
        <ele>656.848</ele>
        <time>2019-02-25T15:32:44Z</time>
      </trkpt>
      <trkpt lat="45.76778" lon="4.3819">
        <ele>656.996</ele>
        <time>2019-02-25T15:32:49Z</time>
      </trkpt>
      <trkpt lat="45.76779" lon="4.38189">
        <ele>657.268</ele>
        <time>2019-02-25T15:32:55Z</time>
      </trkpt>
      <trkpt lat="45.76779" lon="4.38187">
        <ele>657.307</ele>
        <time>2019-02-25T15:33:01Z</time>
      </trkpt>
      <trkpt lat="45.76778" lon="4.38189">
        <ele>657.492</ele>
        <time>2019-02-25T15:33:07Z</time>
      </trkpt>
      <trkpt lat="45.76778" lon="4.38188">
        <ele>657.711</ele>
        <time>2019-02-25T15:33:12Z</time>
      </trkpt>
      <trkpt lat="45.7678" lon="4.38189">
        <ele>658.425</ele>
        <time>2019-02-25T15:33:18Z</time>
      </trkpt>
      <trkpt lat="45.7678" lon="4.38188">
        <ele>658.714</ele>
        <time>2019-02-25T15:33:24Z</time>
      </trkpt>
      <trkpt lat="45.76781" lon="4.38187">
        <ele>658.749</ele>
        <time>2019-02-25T15:33:30Z</time>
      </trkpt>
      <trkpt lat="45.76783" lon="4.38187">
        <ele>658.562</ele>
        <time>2019-02-25T15:33:36Z</time>
      </trkpt>
      <trkpt lat="45.76783" lon="4.38187">
        <ele>658.433</ele>
        <time>2019-02-25T15:33:42Z</time>
      </trkpt>
      <trkpt lat="45.76783" lon="4.38186">
        <ele>658.41</ele>
        <time>2019-02-25T15:33:48Z</time>
      </trkpt>
      <trkpt lat="45.76785" lon="4.38186">
        <ele>658.723</ele>
        <time>2019-02-25T15:33:54Z</time>
      </trkpt>
      <trkpt lat="45.76785" lon="4.38187">
        <ele>658.695</ele>
        <time>2019-02-25T15:34:00Z</time>
      </trkpt>
      <trkpt lat="45.76786" lon="4.38185">
        <ele>658.298</ele>
        <time>2019-02-25T15:34:05Z</time>
      </trkpt>
      <trkpt lat="45.76788" lon="4.38181">
        <ele>657.946</ele>
        <time>2019-02-25T15:34:11Z</time>
      </trkpt>
      <trkpt lat="45.76787" lon="4.38176">
        <ele>657.48</ele>
        <time>2019-02-25T15:34:16Z</time>
      </trkpt>
      <trkpt lat="45.76789" lon="4.38176">
        <ele>656.945</ele>
        <time>2019-02-25T15:34:21Z</time>
      </trkpt>
      <trkpt lat="45.7679" lon="4.38176">
        <ele>656.349</ele>
        <time>2019-02-25T15:34:27Z</time>
      </trkpt>
      <trkpt lat="45.7679" lon="4.38175">
        <ele>655.754</ele>
        <time>2019-02-25T15:34:33Z</time>
      </trkpt>
      <trkpt lat="45.7679" lon="4.38174">
        <ele>655.528</ele>
        <time>2019-02-25T15:34:38Z</time>
      </trkpt>
      <trkpt lat="45.7679" lon="4.38174">
        <ele>654.973</ele>
        <time>2019-02-25T15:34:43Z</time>
      </trkpt>
      <trkpt lat="45.7679" lon="4.38172">
        <ele>654.81</ele>
        <time>2019-02-25T15:34:49Z</time>
      </trkpt>
      <trkpt lat="45.76789" lon="4.38174">
        <ele>654.792</ele>
        <time>2019-02-25T15:34:55Z</time>
      </trkpt>
      <trkpt lat="45.7679" lon="4.38174">
        <ele>654.972</ele>
        <time>2019-02-25T15:35:01Z</time>
      </trkpt>
      <trkpt lat="45.7679" lon="4.38173">
        <ele>655.284</ele>
        <time>2019-02-25T15:35:06Z</time>
      </trkpt>
      <trkpt lat="45.7679" lon="4.38172">
        <ele>655.416</ele>
        <time>2019-02-25T15:35:12Z</time>
      </trkpt>
      <trkpt lat="45.76791" lon="4.38171">
        <ele>655.703</ele>
        <time>2019-02-25T15:35:17Z</time>
      </trkpt>
      <trkpt lat="45.76791" lon="4.38173">
        <ele>656.164</ele>
        <time>2019-02-25T15:35:22Z</time>
      </trkpt>
      <trkpt lat="45.76791" lon="4.38174">
        <ele>656.504</ele>
        <time>2019-02-25T15:35:28Z</time>
      </trkpt>
      <trkpt lat="45.7679" lon="4.38173">
        <ele>656.534</ele>
        <time>2019-02-25T15:35:33Z</time>
      </trkpt>
      <trkpt lat="45.76791" lon="4.38172">
        <ele>656.615</ele>
        <time>2019-02-25T15:35:38Z</time>
      </trkpt>
      <trkpt lat="45.76791" lon="4.38174">
        <ele>656.835</ele>
        <time>2019-02-25T15:35:44Z</time>
      </trkpt>
      <trkpt lat="45.76792" lon="4.38174">
        <ele>656.896</ele>
        <time>2019-02-25T15:35:50Z</time>
      </trkpt>
      <trkpt lat="45.76792" lon="4.38176">
        <ele>656.947</ele>
        <time>2019-02-25T15:35:56Z</time>
      </trkpt>
      <trkpt lat="45.76793" lon="4.38177">
        <ele>656.956</ele>
        <time>2019-02-25T15:36:01Z</time>
      </trkpt>
      <trkpt lat="45.76793" lon="4.38178">
        <ele>656.958</ele>
        <time>2019-02-25T15:36:07Z</time>
      </trkpt>
      <trkpt lat="45.76793" lon="4.38177">
        <ele>656.937</ele>
        <time>2019-02-25T15:36:12Z</time>
      </trkpt>
      <trkpt lat="45.76792" lon="4.38174">
        <ele>656.939</ele>
        <time>2019-02-25T15:36:18Z</time>
      </trkpt>
      <trkpt lat="45.76793" lon="4.38173">
        <ele>656.95</ele>
        <time>2019-02-25T15:36:24Z</time>
      </trkpt>
      <trkpt lat="45.76792" lon="4.38173">
        <ele>656.701</ele>
        <time>2019-02-25T15:36:29Z</time>
      </trkpt>
      <trkpt lat="45.7679" lon="4.38174">
        <ele>656.427</ele>
        <time>2019-02-25T15:36:35Z</time>
      </trkpt>
      <trkpt lat="45.76789" lon="4.38174">
        <ele>656.344</ele>
        <time>2019-02-25T15:36:40Z</time>
      </trkpt>
      <trkpt lat="45.7679" lon="4.38174">
        <ele>656.487</ele>
        <time>2019-02-25T15:36:46Z</time>
      </trkpt>
      <trkpt lat="45.7679" lon="4.38174">
        <ele>656.568</ele>
        <time>2019-02-25T15:36:52Z</time>
      </trkpt>
      <trkpt lat="45.7679" lon="4.38174">
        <ele>656.399</ele>
        <time>2019-02-25T15:36:58Z</time>
      </trkpt>
      <trkpt lat="45.7679" lon="4.38174">
        <ele>656.298</ele>
        <time>2019-02-25T15:37:03Z</time>
      </trkpt>
      <trkpt lat="45.7679" lon="4.38174">
        <ele>656.476</ele>
        <time>2019-02-25T15:37:08Z</time>
      </trkpt>
      <trkpt lat="45.76791" lon="4.38175">
        <ele>657.078</ele>
        <time>2019-02-25T15:37:14Z</time>
      </trkpt>
      <trkpt lat="45.76792" lon="4.38175">
        <ele>657.379</ele>
        <time>2019-02-25T15:37:19Z</time>
      </trkpt>
      <trkpt lat="45.76793" lon="4.38176">
        <ele>658.026</ele>
        <time>2019-02-25T15:37:24Z</time>
      </trkpt>
      <trkpt lat="45.76793" lon="4.38176">
        <ele>658.39</ele>
        <time>2019-02-25T15:37:30Z</time>
      </trkpt>
      <trkpt lat="45.76791" lon="4.38176">
        <ele>658.138</ele>
        <time>2019-02-25T15:37:36Z</time>
      </trkpt>
      <trkpt lat="45.7679" lon="4.38173">
        <ele>657.802</ele>
        <time>2019-02-25T15:37:41Z</time>
      </trkpt>
      <trkpt lat="45.7679" lon="4.38172">
        <ele>657.675</ele>
        <time>2019-02-25T15:37:46Z</time>
      </trkpt>
      <trkpt lat="45.7679" lon="4.38173">
        <ele>657.294</ele>
        <time>2019-02-25T15:37:52Z</time>
      </trkpt>
      <trkpt lat="45.76791" lon="4.38174">
        <ele>656.879</ele>
        <time>2019-02-25T15:37:57Z</time>
      </trkpt>
      <trkpt lat="45.76791" lon="4.38171">
        <ele>656.146</ele>
        <time>2019-02-25T15:38:03Z</time>
      </trkpt>
      <trkpt lat="45.76794" lon="4.38168">
        <ele>655.562</ele>
        <time>2019-02-25T15:38:09Z</time>
      </trkpt>
      <trkpt lat="45.76795" lon="4.38169">
        <ele>655.21</ele>
        <time>2019-02-25T15:38:15Z</time>
      </trkpt>
      <trkpt lat="45.76796" lon="4.3817">
        <ele>655.143</ele>
        <time>2019-02-25T15:38:20Z</time>
      </trkpt>
      <trkpt lat="45.76796" lon="4.38175">
        <ele>655.247</ele>
        <time>2019-02-25T15:38:26Z</time>
      </trkpt>
      <trkpt lat="45.76798" lon="4.38173">
        <ele>655.713</ele>
        <time>2019-02-25T15:38:31Z</time>
      </trkpt>
      <trkpt lat="45.76801" lon="4.38171">
        <ele>656.152</ele>
        <time>2019-02-25T15:38:36Z</time>
      </trkpt>
      <trkpt lat="45.76804" lon="4.38167">
        <ele>656.759</ele>
        <time>2019-02-25T15:38:42Z</time>
      </trkpt>
      <trkpt lat="45.76807" lon="4.38162">
        <ele>656.746</ele>
        <time>2019-02-25T15:38:48Z</time>
      </trkpt>
      <trkpt lat="45.76811" lon="4.38156">
        <ele>656.732</ele>
        <time>2019-02-25T15:38:54Z</time>
      </trkpt>
      <trkpt lat="45.76815" lon="4.38152">
        <ele>656.854</ele>
        <time>2019-02-25T15:39:00Z</time>
      </trkpt>
      <trkpt lat="45.76818" lon="4.38148">
        <ele>657</ele>
        <time>2019-02-25T15:39:05Z</time>
      </trkpt>
      <trkpt lat="45.76822" lon="4.38141">
        <ele>657.03</ele>
        <time>2019-02-25T15:39:11Z</time>
      </trkpt>
      <trkpt lat="45.76828" lon="4.38133">
        <ele>657.218</ele>
        <time>2019-02-25T15:39:17Z</time>
      </trkpt>
      <trkpt lat="45.76832" lon="4.38127">
        <ele>657.507</ele>
        <time>2019-02-25T15:39:23Z</time>
      </trkpt>
      <trkpt lat="45.76833" lon="4.38121">
        <ele>657.472</ele>
        <time>2019-02-25T15:39:28Z</time>
      </trkpt>
      <trkpt lat="45.76836" lon="4.38116">
        <ele>657.217</ele>
        <time>2019-02-25T15:39:33Z</time>
      </trkpt>
      <trkpt lat="45.76839" lon="4.38111">
        <ele>657.103</ele>
        <time>2019-02-25T15:39:39Z</time>
      </trkpt>
      <trkpt lat="45.76845" lon="4.38108">
        <ele>657.227</ele>
        <time>2019-02-25T15:39:45Z</time>
      </trkpt>
      <trkpt lat="45.76849" lon="4.38107">
        <ele>657.134</ele>
        <time>2019-02-25T15:39:51Z</time>
      </trkpt>
      <trkpt lat="45.7685" lon="4.38107">
        <ele>657.204</ele>
        <time>2019-02-25T15:39:56Z</time>
      </trkpt>
      <trkpt lat="45.76852" lon="4.38106">
        <ele>657.567</ele>
        <time>2019-02-25T15:40:02Z</time>
      </trkpt>
      <trkpt lat="45.76852" lon="4.38103">
        <ele>658.009</ele>
        <time>2019-02-25T15:40:08Z</time>
      </trkpt>
      <trkpt lat="45.76853" lon="4.38105">
        <ele>657.914</ele>
        <time>2019-02-25T15:40:14Z</time>
      </trkpt>
      <trkpt lat="45.76854" lon="4.38105">
        <ele>658</ele>
        <time>2019-02-25T15:40:19Z</time>
      </trkpt>
      <trkpt lat="45.76854" lon="4.38105">
        <ele>658.033</ele>
        <time>2019-02-25T15:40:25Z</time>
      </trkpt>
      <trkpt lat="45.76854" lon="4.38105">
        <ele>657.983</ele>
        <time>2019-02-25T15:40:30Z</time>
      </trkpt>
      <trkpt lat="45.76854" lon="4.38105">
        <ele>657.554</ele>
        <time>2019-02-25T15:40:36Z</time>
      </trkpt>
      <trkpt lat="45.76853" lon="4.38106">
        <ele>657.705</ele>
        <time>2019-02-25T15:40:42Z</time>
      </trkpt>
      <trkpt lat="45.76854" lon="4.38105">
        <ele>657.767</ele>
        <time>2019-02-25T15:40:47Z</time>
      </trkpt>
      <trkpt lat="45.76855" lon="4.38105">
        <ele>658.045</ele>
        <time>2019-02-25T15:40:52Z</time>
      </trkpt>
      <trkpt lat="45.76855" lon="4.38105">
        <ele>657.89</ele>
        <time>2019-02-25T15:40:57Z</time>
      </trkpt>
      <trkpt lat="45.76855" lon="4.38104">
        <ele>657.426</ele>
        <time>2019-02-25T15:41:03Z</time>
      </trkpt>
      <trkpt lat="45.76855" lon="4.38104">
        <ele>657.377</ele>
        <time>2019-02-25T15:41:08Z</time>
      </trkpt>
      <trkpt lat="45.76856" lon="4.38103">
        <ele>657.469</ele>
        <time>2019-02-25T15:41:13Z</time>
      </trkpt>
      <trkpt lat="45.76856" lon="4.38103">
        <ele>657.634</ele>
        <time>2019-02-25T15:41:19Z</time>
      </trkpt>
      <trkpt lat="45.76856" lon="4.38102">
        <ele>657.651</ele>
        <time>2019-02-25T15:41:25Z</time>
      </trkpt>
      <trkpt lat="45.76855" lon="4.38102">
        <ele>657.665</ele>
        <time>2019-02-25T15:41:31Z</time>
      </trkpt>
      <trkpt lat="45.76854" lon="4.38102">
        <ele>657.686</ele>
        <time>2019-02-25T15:41:36Z</time>
      </trkpt>
      <trkpt lat="45.76855" lon="4.38103">
        <ele>657.723</ele>
        <time>2019-02-25T15:41:42Z</time>
      </trkpt>
      <trkpt lat="45.76856" lon="4.38102">
        <ele>657.818</ele>
        <time>2019-02-25T15:41:47Z</time>
      </trkpt>
      <trkpt lat="45.76857" lon="4.38102">
        <ele>657.888</ele>
        <time>2019-02-25T15:41:52Z</time>
      </trkpt>
      <trkpt lat="45.76856" lon="4.38102">
        <ele>657.889</ele>
        <time>2019-02-25T15:41:57Z</time>
      </trkpt>
      <trkpt lat="45.76856" lon="4.38102">
        <ele>657.434</ele>
        <time>2019-02-25T15:42:03Z</time>
      </trkpt>
      <trkpt lat="45.76857" lon="4.38103">
        <ele>657.312</ele>
        <time>2019-02-25T15:42:09Z</time>
      </trkpt>
      <trkpt lat="45.76857" lon="4.38103">
        <ele>657.272</ele>
        <time>2019-02-25T15:42:14Z</time>
      </trkpt>
      <trkpt lat="45.76856" lon="4.38103">
        <ele>657.247</ele>
        <time>2019-02-25T15:42:20Z</time>
      </trkpt>
      <trkpt lat="45.76856" lon="4.38103">
        <ele>656.947</ele>
        <time>2019-02-25T15:42:26Z</time>
      </trkpt>
      <trkpt lat="45.76859" lon="4.38101">
        <ele>656.548</ele>
        <time>2019-02-25T15:42:32Z</time>
      </trkpt>
      <trkpt lat="45.76863" lon="4.38098">
        <ele>656.061</ele>
        <time>2019-02-25T15:42:38Z</time>
      </trkpt>
      <trkpt lat="45.76867" lon="4.38097">
        <ele>655.656</ele>
        <time>2019-02-25T15:42:44Z</time>
      </trkpt>
      <trkpt lat="45.76872" lon="4.38096">
        <ele>655.535</ele>
        <time>2019-02-25T15:42:50Z</time>
      </trkpt>
      <trkpt lat="45.76878" lon="4.38092">
        <ele>655.342</ele>
        <time>2019-02-25T15:42:56Z</time>
      </trkpt>
      <trkpt lat="45.76883" lon="4.38089">
        <ele>655.226</ele>
        <time>2019-02-25T15:43:01Z</time>
      </trkpt>
      <trkpt lat="45.7689" lon="4.38089">
        <ele>655.021</ele>
        <time>2019-02-25T15:43:07Z</time>
      </trkpt>
      <trkpt lat="45.76896" lon="4.38086">
        <ele>654.426</ele>
        <time>2019-02-25T15:43:13Z</time>
      </trkpt>
      <trkpt lat="45.76901" lon="4.38083">
        <ele>653.883</ele>
        <time>2019-02-25T15:43:18Z</time>
      </trkpt>
      <trkpt lat="45.7691" lon="4.38081">
        <ele>653.686</ele>
        <time>2019-02-25T15:43:24Z</time>
      </trkpt>
      <trkpt lat="45.76916" lon="4.3808">
        <ele>653.425</ele>
        <time>2019-02-25T15:43:30Z</time>
      </trkpt>
      <trkpt lat="45.76923" lon="4.38077">
        <ele>652.706</ele>
        <time>2019-02-25T15:43:36Z</time>
      </trkpt>
      <trkpt lat="45.76928" lon="4.38075">
        <ele>651.963</ele>
        <time>2019-02-25T15:43:41Z</time>
      </trkpt>
      <trkpt lat="45.76934" lon="4.38074">
        <ele>651.529</ele>
        <time>2019-02-25T15:43:46Z</time>
      </trkpt>
      <trkpt lat="45.7694" lon="4.38071">
        <ele>650.787</ele>
        <time>2019-02-25T15:43:52Z</time>
      </trkpt>
      <trkpt lat="45.76946" lon="4.38067">
        <ele>650.294</ele>
        <time>2019-02-25T15:43:57Z</time>
      </trkpt>
      <trkpt lat="45.76953" lon="4.38065">
        <ele>649.305</ele>
        <time>2019-02-25T15:44:03Z</time>
      </trkpt>
      <trkpt lat="45.76958" lon="4.38062">
        <ele>648.34</ele>
        <time>2019-02-25T15:44:08Z</time>
      </trkpt>
      <trkpt lat="45.76964" lon="4.38058">
        <ele>647.465</ele>
        <time>2019-02-25T15:44:14Z</time>
      </trkpt>
      <trkpt lat="45.7697" lon="4.38055">
        <ele>646.822</ele>
        <time>2019-02-25T15:44:19Z</time>
      </trkpt>
      <trkpt lat="45.76976" lon="4.38051">
        <ele>646.04</ele>
        <time>2019-02-25T15:44:25Z</time>
      </trkpt>
      <trkpt lat="45.76981" lon="4.3805">
        <ele>645.733</ele>
        <time>2019-02-25T15:44:30Z</time>
      </trkpt>
      <trkpt lat="45.76989" lon="4.38046">
        <ele>645.152</ele>
        <time>2019-02-25T15:44:36Z</time>
      </trkpt>
      <trkpt lat="45.76993" lon="4.38041">
        <ele>644.681</ele>
        <time>2019-02-25T15:44:41Z</time>
      </trkpt>
      <trkpt lat="45.77" lon="4.38037">
        <ele>643.88</ele>
        <time>2019-02-25T15:44:47Z</time>
      </trkpt>
      <trkpt lat="45.77007" lon="4.38032">
        <ele>643.068</ele>
        <time>2019-02-25T15:44:53Z</time>
      </trkpt>
      <trkpt lat="45.77012" lon="4.38028">
        <ele>642.486</ele>
        <time>2019-02-25T15:44:58Z</time>
      </trkpt>
      <trkpt lat="45.77018" lon="4.38023">
        <ele>641.562</ele>
        <time>2019-02-25T15:45:04Z</time>
      </trkpt>
      <trkpt lat="45.77022" lon="4.38018">
        <ele>640.786</ele>
        <time>2019-02-25T15:45:10Z</time>
      </trkpt>
      <trkpt lat="45.77029" lon="4.38014">
        <ele>639.984</ele>
        <time>2019-02-25T15:45:15Z</time>
      </trkpt>
      <trkpt lat="45.77034" lon="4.38009">
        <ele>639.159</ele>
        <time>2019-02-25T15:45:20Z</time>
      </trkpt>
      <trkpt lat="45.7704" lon="4.38002">
        <ele>638.368</ele>
        <time>2019-02-25T15:45:26Z</time>
      </trkpt>
      <trkpt lat="45.77044" lon="4.37998">
        <ele>637.802</ele>
        <time>2019-02-25T15:45:31Z</time>
      </trkpt>
      <trkpt lat="45.7705" lon="4.37993">
        <ele>637.049</ele>
        <time>2019-02-25T15:45:37Z</time>
      </trkpt>
      <trkpt lat="45.77056" lon="4.3799">
        <ele>635.864</ele>
        <time>2019-02-25T15:45:43Z</time>
      </trkpt>
      <trkpt lat="45.7706" lon="4.37988">
        <ele>634.763</ele>
        <time>2019-02-25T15:45:48Z</time>
      </trkpt>
      <trkpt lat="45.77066" lon="4.37985">
        <ele>633.502</ele>
        <time>2019-02-25T15:45:54Z</time>
      </trkpt>
      <trkpt lat="45.77072" lon="4.37979">
        <ele>632.244</ele>
        <time>2019-02-25T15:46:00Z</time>
      </trkpt>
      <trkpt lat="45.77077" lon="4.37974">
        <ele>630.905</ele>
        <time>2019-02-25T15:46:05Z</time>
      </trkpt>
      <trkpt lat="45.7708" lon="4.37972">
        <ele>629.647</ele>
        <time>2019-02-25T15:46:11Z</time>
      </trkpt>
      <trkpt lat="45.77085" lon="4.37967">
        <ele>628.255</ele>
        <time>2019-02-25T15:46:17Z</time>
      </trkpt>
      <trkpt lat="45.77093" lon="4.37962">
        <ele>626.923</ele>
        <time>2019-02-25T15:46:23Z</time>
      </trkpt>
      <trkpt lat="45.77098" lon="4.37958">
        <ele>625.608</ele>
        <time>2019-02-25T15:46:28Z</time>
      </trkpt>
      <trkpt lat="45.77105" lon="4.37951">
        <ele>623.588</ele>
        <time>2019-02-25T15:46:34Z</time>
      </trkpt>
      <trkpt lat="45.77111" lon="4.37946">
        <ele>621.966</ele>
        <time>2019-02-25T15:46:39Z</time>
      </trkpt>
      <trkpt lat="45.77118" lon="4.37942">
        <ele>620.14</ele>
        <time>2019-02-25T15:46:45Z</time>
      </trkpt>
      <trkpt lat="45.77124" lon="4.37937">
        <ele>618.684</ele>
        <time>2019-02-25T15:46:51Z</time>
      </trkpt>
      <trkpt lat="45.77131" lon="4.37935">
        <ele>617.578</ele>
        <time>2019-02-25T15:46:56Z</time>
      </trkpt>
      <trkpt lat="45.77136" lon="4.37932">
        <ele>615.989</ele>
        <time>2019-02-25T15:47:02Z</time>
      </trkpt>
      <trkpt lat="45.77144" lon="4.37928">
        <ele>614.846</ele>
        <time>2019-02-25T15:47:08Z</time>
      </trkpt>
      <trkpt lat="45.77151" lon="4.37921">
        <ele>614.275</ele>
        <time>2019-02-25T15:47:14Z</time>
      </trkpt>
      <trkpt lat="45.77159" lon="4.37914">
        <ele>613.416</ele>
        <time>2019-02-25T15:47:20Z</time>
      </trkpt>
      <trkpt lat="45.77165" lon="4.37909">
        <ele>611.969</ele>
        <time>2019-02-25T15:47:26Z</time>
      </trkpt>
      <trkpt lat="45.7717" lon="4.379">
        <ele>610.396</ele>
        <time>2019-02-25T15:47:32Z</time>
      </trkpt>
      <trkpt lat="45.77173" lon="4.37891">
        <ele>608.783</ele>
        <time>2019-02-25T15:47:38Z</time>
      </trkpt>
      <trkpt lat="45.77179" lon="4.37884">
        <ele>607.274</ele>
        <time>2019-02-25T15:47:44Z</time>
      </trkpt>
      <trkpt lat="45.77183" lon="4.37876">
        <ele>605.828</ele>
        <time>2019-02-25T15:47:50Z</time>
      </trkpt>
      <trkpt lat="45.77189" lon="4.37873">
        <ele>604.461</ele>
        <time>2019-02-25T15:47:55Z</time>
      </trkpt>
      <trkpt lat="45.77194" lon="4.37867">
        <ele>603.181</ele>
        <time>2019-02-25T15:48:00Z</time>
      </trkpt>
      <trkpt lat="45.77199" lon="4.3786">
        <ele>601.98</ele>
        <time>2019-02-25T15:48:06Z</time>
      </trkpt>
      <trkpt lat="45.77203" lon="4.37855">
        <ele>601.168</ele>
        <time>2019-02-25T15:48:11Z</time>
      </trkpt>
      <trkpt lat="45.77209" lon="4.37851">
        <ele>600.51</ele>
        <time>2019-02-25T15:48:16Z</time>
      </trkpt>
      <trkpt lat="45.77216" lon="4.37846">
        <ele>599.227</ele>
        <time>2019-02-25T15:48:22Z</time>
      </trkpt>
      <trkpt lat="45.77214" lon="4.37836">
        <ele>597.798</ele>
        <time>2019-02-25T15:48:27Z</time>
      </trkpt>
      <trkpt lat="45.77212" lon="4.37832">
        <ele>596.302</ele>
        <time>2019-02-25T15:48:33Z</time>
      </trkpt>
      <trkpt lat="45.77209" lon="4.37832">
        <ele>595.196</ele>
        <time>2019-02-25T15:48:38Z</time>
      </trkpt>
      <trkpt lat="45.77207" lon="4.37831">
        <ele>593.53</ele>
        <time>2019-02-25T15:48:43Z</time>
      </trkpt>
      <trkpt lat="45.77208" lon="4.37829">
        <ele>592.982</ele>
        <time>2019-02-25T15:48:49Z</time>
      </trkpt>
      <trkpt lat="45.77209" lon="4.37825">
        <ele>592.468</ele>
        <time>2019-02-25T15:48:54Z</time>
      </trkpt>
      <trkpt lat="45.77208" lon="4.37821">
        <ele>592.139</ele>
        <time>2019-02-25T15:49:00Z</time>
      </trkpt>
      <trkpt lat="45.77208" lon="4.37819">
        <ele>591.276</ele>
        <time>2019-02-25T15:49:05Z</time>
      </trkpt>
      <trkpt lat="45.77207" lon="4.37815">
        <ele>589.787</ele>
        <time>2019-02-25T15:49:11Z</time>
      </trkpt>
      <trkpt lat="45.77206" lon="4.37812">
        <ele>588.357</ele>
        <time>2019-02-25T15:49:17Z</time>
      </trkpt>
      <trkpt lat="45.77205" lon="4.37806">
        <ele>586.886</ele>
        <time>2019-02-25T15:49:22Z</time>
      </trkpt>
      <trkpt lat="45.77207" lon="4.37801">
        <ele>584.926</ele>
        <time>2019-02-25T15:49:28Z</time>
      </trkpt>
      <trkpt lat="45.77209" lon="4.37798">
        <ele>582.407</ele>
        <time>2019-02-25T15:49:34Z</time>
      </trkpt>
      <trkpt lat="45.77212" lon="4.37789">
        <ele>580.601</ele>
        <time>2019-02-25T15:49:39Z</time>
      </trkpt>
      <trkpt lat="45.77215" lon="4.37781">
        <ele>578.863</ele>
        <time>2019-02-25T15:49:45Z</time>
      </trkpt>
      <trkpt lat="45.77217" lon="4.37779">
        <ele>578.183</ele>
        <time>2019-02-25T15:49:50Z</time>
      </trkpt>
      <trkpt lat="45.7722" lon="4.37778">
        <ele>577.878</ele>
        <time>2019-02-25T15:49:56Z</time>
      </trkpt>
      <trkpt lat="45.77222" lon="4.37776">
        <ele>577.349</ele>
        <time>2019-02-25T15:50:01Z</time>
      </trkpt>
      <trkpt lat="45.77226" lon="4.37771">
        <ele>576.87</ele>
        <time>2019-02-25T15:50:07Z</time>
      </trkpt>
      <trkpt lat="45.77232" lon="4.37765">
        <ele>576.391</ele>
        <time>2019-02-25T15:50:13Z</time>
      </trkpt>
      <trkpt lat="45.77233" lon="4.37761">
        <ele>575.855</ele>
        <time>2019-02-25T15:50:18Z</time>
      </trkpt>
      <trkpt lat="45.77236" lon="4.37756">
        <ele>574.745</ele>
        <time>2019-02-25T15:50:24Z</time>
      </trkpt>
      <trkpt lat="45.77241" lon="4.37742">
        <ele>574.919</ele>
        <time>2019-02-25T15:50:30Z</time>
      </trkpt>
      <trkpt lat="45.77245" lon="4.37737">
        <ele>575.219</ele>
        <time>2019-02-25T15:50:35Z</time>
      </trkpt>
      <trkpt lat="45.77252" lon="4.37732">
        <ele>574.767</ele>
        <time>2019-02-25T15:50:41Z</time>
      </trkpt>
      <trkpt lat="45.77259" lon="4.37729">
        <ele>574.142</ele>
        <time>2019-02-25T15:50:47Z</time>
      </trkpt>
      <trkpt lat="45.77264" lon="4.37728">
        <ele>573.653</ele>
        <time>2019-02-25T15:50:52Z</time>
      </trkpt>
      <trkpt lat="45.77269" lon="4.37728">
        <ele>573.409</ele>
        <time>2019-02-25T15:50:58Z</time>
      </trkpt>
      <trkpt lat="45.77274" lon="4.37724">
        <ele>573.244</ele>
        <time>2019-02-25T15:51:03Z</time>
      </trkpt>
      <trkpt lat="45.77273" lon="4.37718">
        <ele>573.027</ele>
        <time>2019-02-25T15:51:09Z</time>
      </trkpt>
      <trkpt lat="45.77273" lon="4.3771">
        <ele>573.236</ele>
        <time>2019-02-25T15:51:15Z</time>
      </trkpt>
      <trkpt lat="45.77271" lon="4.37708">
        <ele>573.311</ele>
        <time>2019-02-25T15:51:21Z</time>
      </trkpt>
      <trkpt lat="45.77269" lon="4.37703">
        <ele>573.69</ele>
        <time>2019-02-25T15:51:26Z</time>
      </trkpt>
      <trkpt lat="45.77268" lon="4.37699">
        <ele>573.386</ele>
        <time>2019-02-25T15:51:31Z</time>
      </trkpt>
      <trkpt lat="45.77268" lon="4.3769">
        <ele>573.721</ele>
        <time>2019-02-25T15:51:37Z</time>
      </trkpt>
      <trkpt lat="45.77265" lon="4.37682">
        <ele>573.64</ele>
        <time>2019-02-25T15:51:43Z</time>
      </trkpt>
      <trkpt lat="45.77264" lon="4.37672">
        <ele>573.275</ele>
        <time>2019-02-25T15:51:49Z</time>
      </trkpt>
      <trkpt lat="45.77262" lon="4.37667">
        <ele>573.565</ele>
        <time>2019-02-25T15:51:54Z</time>
      </trkpt>
      <trkpt lat="45.77261" lon="4.37656">
        <ele>573.872</ele>
        <time>2019-02-25T15:52:00Z</time>
      </trkpt>
      <trkpt lat="45.77262" lon="4.3765">
        <ele>573.706</ele>
        <time>2019-02-25T15:52:05Z</time>
      </trkpt>
      <trkpt lat="45.77261" lon="4.37639">
        <ele>573.884</ele>
        <time>2019-02-25T15:52:11Z</time>
      </trkpt>
      <trkpt lat="45.77262" lon="4.37631">
        <ele>573.58</ele>
        <time>2019-02-25T15:52:17Z</time>
      </trkpt>
      <trkpt lat="45.77262" lon="4.37622">
        <ele>573.494</ele>
        <time>2019-02-25T15:52:22Z</time>
      </trkpt>
      <trkpt lat="45.7726" lon="4.37613">
        <ele>573.355</ele>
        <time>2019-02-25T15:52:28Z</time>
      </trkpt>
      <trkpt lat="45.77258" lon="4.37601">
        <ele>573.257</ele>
        <time>2019-02-25T15:52:34Z</time>
      </trkpt>
      <trkpt lat="45.77256" lon="4.37593">
        <ele>572.993</ele>
        <time>2019-02-25T15:52:40Z</time>
      </trkpt>
      <trkpt lat="45.77255" lon="4.37584">
        <ele>572.811</ele>
        <time>2019-02-25T15:52:46Z</time>
      </trkpt>
      <trkpt lat="45.77252" lon="4.37572">
        <ele>572.526</ele>
        <time>2019-02-25T15:52:52Z</time>
      </trkpt>
      <trkpt lat="45.77253" lon="4.37564">
        <ele>572.539</ele>
        <time>2019-02-25T15:52:58Z</time>
      </trkpt>
      <trkpt lat="45.77251" lon="4.37553">
        <ele>572.434</ele>
        <time>2019-02-25T15:53:04Z</time>
      </trkpt>
      <trkpt lat="45.7725" lon="4.37542">
        <ele>572.266</ele>
        <time>2019-02-25T15:53:10Z</time>
      </trkpt>
      <trkpt lat="45.77247" lon="4.37533">
        <ele>572.174</ele>
        <time>2019-02-25T15:53:16Z</time>
      </trkpt>
      <trkpt lat="45.77246" lon="4.37523">
        <ele>572.593</ele>
        <time>2019-02-25T15:53:22Z</time>
      </trkpt>
      <trkpt lat="45.77245" lon="4.37511">
        <ele>572.611</ele>
        <time>2019-02-25T15:53:28Z</time>
      </trkpt>
      <trkpt lat="45.77243" lon="4.37502">
        <ele>572.51</ele>
        <time>2019-02-25T15:53:34Z</time>
      </trkpt>
      <trkpt lat="45.77246" lon="4.37488">
        <ele>572.504</ele>
        <time>2019-02-25T15:53:40Z</time>
      </trkpt>
      <trkpt lat="45.77245" lon="4.37483">
        <ele>571.974</ele>
        <time>2019-02-25T15:53:46Z</time>
      </trkpt>
      <trkpt lat="45.77244" lon="4.37473">
        <ele>572.03</ele>
        <time>2019-02-25T15:53:52Z</time>
      </trkpt>
      <trkpt lat="45.77245" lon="4.37461">
        <ele>572.328</ele>
        <time>2019-02-25T15:53:58Z</time>
      </trkpt>
      <trkpt lat="45.77243" lon="4.37454">
        <ele>572.879</ele>
        <time>2019-02-25T15:54:03Z</time>
      </trkpt>
      <trkpt lat="45.77243" lon="4.37447">
        <ele>572.8</ele>
        <time>2019-02-25T15:54:08Z</time>
      </trkpt>
      <trkpt lat="45.77243" lon="4.3744">
        <ele>573.094</ele>
        <time>2019-02-25T15:54:13Z</time>
      </trkpt>
      <trkpt lat="45.77242" lon="4.37431">
        <ele>573.823</ele>
        <time>2019-02-25T15:54:19Z</time>
      </trkpt>
      <trkpt lat="45.77242" lon="4.37422">
        <ele>573.68</ele>
        <time>2019-02-25T15:54:24Z</time>
      </trkpt>
      <trkpt lat="45.77243" lon="4.37411">
        <ele>573.596</ele>
        <time>2019-02-25T15:54:30Z</time>
      </trkpt>
      <trkpt lat="45.77247" lon="4.37397">
        <ele>573.429</ele>
        <time>2019-02-25T15:54:36Z</time>
      </trkpt>
      <trkpt lat="45.77249" lon="4.37393">
        <ele>573.4</ele>
        <time>2019-02-25T15:54:42Z</time>
      </trkpt>
      <trkpt lat="45.7725" lon="4.37387">
        <ele>572.84</ele>
        <time>2019-02-25T15:54:48Z</time>
      </trkpt>
      <trkpt lat="45.77249" lon="4.37382">
        <ele>572.835</ele>
        <time>2019-02-25T15:54:53Z</time>
      </trkpt>
      <trkpt lat="45.77247" lon="4.37375">
        <ele>572.901</ele>
        <time>2019-02-25T15:54:58Z</time>
      </trkpt>
      <trkpt lat="45.77244" lon="4.37368">
        <ele>572.358</ele>
        <time>2019-02-25T15:55:04Z</time>
      </trkpt>
      <trkpt lat="45.77241" lon="4.37359">
        <ele>571.649</ele>
        <time>2019-02-25T15:55:10Z</time>
      </trkpt>
      <trkpt lat="45.77242" lon="4.37351">
        <ele>570.828</ele>
        <time>2019-02-25T15:55:15Z</time>
      </trkpt>
      <trkpt lat="45.77241" lon="4.37337">
        <ele>570.628</ele>
        <time>2019-02-25T15:55:21Z</time>
      </trkpt>
      <trkpt lat="45.77243" lon="4.37337">
        <ele>570.484</ele>
        <time>2019-02-25T15:55:26Z</time>
      </trkpt>
      <trkpt lat="45.77243" lon="4.37331">
        <ele>570.19</ele>
        <time>2019-02-25T15:55:32Z</time>
      </trkpt>
      <trkpt lat="45.77242" lon="4.37327">
        <ele>570.12</ele>
        <time>2019-02-25T15:55:37Z</time>
      </trkpt>
      <trkpt lat="45.77242" lon="4.37322">
        <ele>569.828</ele>
        <time>2019-02-25T15:55:43Z</time>
      </trkpt>
      <trkpt lat="45.77241" lon="4.37317">
        <ele>569.782</ele>
        <time>2019-02-25T15:55:48Z</time>
      </trkpt>
      <trkpt lat="45.77242" lon="4.37309">
        <ele>569.766</ele>
        <time>2019-02-25T15:55:54Z</time>
      </trkpt>
      <trkpt lat="45.77242" lon="4.37303">
        <ele>570.019</ele>
        <time>2019-02-25T15:56:00Z</time>
      </trkpt>
      <trkpt lat="45.77243" lon="4.37291">
        <ele>570.34</ele>
        <time>2019-02-25T15:56:06Z</time>
      </trkpt>
      <trkpt lat="45.77243" lon="4.37286">
        <ele>570.508</ele>
        <time>2019-02-25T15:56:12Z</time>
      </trkpt>
      <trkpt lat="45.77243" lon="4.37278">
        <ele>570.352</ele>
        <time>2019-02-25T15:56:18Z</time>
      </trkpt>
      <trkpt lat="45.77245" lon="4.37269">
        <ele>570.051</ele>
        <time>2019-02-25T15:56:23Z</time>
      </trkpt>
      <trkpt lat="45.77246" lon="4.37263">
        <ele>570.617</ele>
        <time>2019-02-25T15:56:29Z</time>
      </trkpt>
      <trkpt lat="45.77245" lon="4.37259">
        <ele>570.917</ele>
        <time>2019-02-25T15:56:35Z</time>
      </trkpt>
      <trkpt lat="45.77244" lon="4.37252">
        <ele>571.301</ele>
        <time>2019-02-25T15:56:41Z</time>
      </trkpt>
      <trkpt lat="45.77244" lon="4.37248">
        <ele>571.396</ele>
        <time>2019-02-25T15:56:47Z</time>
      </trkpt>
      <trkpt lat="45.77245" lon="4.37249">
        <ele>570.852</ele>
        <time>2019-02-25T15:56:52Z</time>
      </trkpt>
      <trkpt lat="45.77243" lon="4.37254">
        <ele>570.544</ele>
        <time>2019-02-25T15:56:57Z</time>
      </trkpt>
      <trkpt lat="45.77242" lon="4.37259">
        <ele>570.267</ele>
        <time>2019-02-25T15:57:03Z</time>
      </trkpt>
      <trkpt lat="45.77241" lon="4.3726">
        <ele>569.911</ele>
        <time>2019-02-25T15:57:08Z</time>
      </trkpt>
      <trkpt lat="45.77241" lon="4.37258">
        <ele>570.263</ele>
        <time>2019-02-25T15:57:14Z</time>
      </trkpt>
      <trkpt lat="45.77241" lon="4.37256">
        <ele>570.546</ele>
        <time>2019-02-25T15:57:19Z</time>
      </trkpt>
      <trkpt lat="45.77241" lon="4.37255">
        <ele>570.366</ele>
        <time>2019-02-25T15:57:25Z</time>
      </trkpt>
      <trkpt lat="45.77242" lon="4.37249">
        <ele>570.279</ele>
        <time>2019-02-25T15:57:30Z</time>
      </trkpt>
      <trkpt lat="45.77244" lon="4.37243">
        <ele>570.009</ele>
        <time>2019-02-25T15:57:36Z</time>
      </trkpt>
      <trkpt lat="45.77244" lon="4.37237">
        <ele>569.971</ele>
        <time>2019-02-25T15:57:41Z</time>
      </trkpt>
      <trkpt lat="45.77245" lon="4.37228">
        <ele>570.371</ele>
        <time>2019-02-25T15:57:46Z</time>
      </trkpt>
      <trkpt lat="45.77248" lon="4.37219">
        <ele>570.456</ele>
        <time>2019-02-25T15:57:52Z</time>
      </trkpt>
      <trkpt lat="45.77248" lon="4.37213">
        <ele>570.475</ele>
        <time>2019-02-25T15:57:58Z</time>
      </trkpt>
      <trkpt lat="45.77249" lon="4.37209">
        <ele>570.27</ele>
        <time>2019-02-25T15:58:03Z</time>
      </trkpt>
      <trkpt lat="45.7725" lon="4.37202">
        <ele>569.833</ele>
        <time>2019-02-25T15:58:09Z</time>
      </trkpt>
      <trkpt lat="45.77251" lon="4.37199">
        <ele>569.906</ele>
        <time>2019-02-25T15:58:14Z</time>
      </trkpt>
      <trkpt lat="45.77251" lon="4.37197">
        <ele>569.677</ele>
        <time>2019-02-25T15:58:20Z</time>
      </trkpt>
      <trkpt lat="45.7725" lon="4.37184">
        <ele>569.122</ele>
        <time>2019-02-25T15:58:26Z</time>
      </trkpt>
      <trkpt lat="45.77249" lon="4.37174">
        <ele>569.234</ele>
        <time>2019-02-25T15:58:32Z</time>
      </trkpt>
      <trkpt lat="45.7725" lon="4.37164">
        <ele>569.292</ele>
        <time>2019-02-25T15:58:37Z</time>
      </trkpt>
      <trkpt lat="45.7725" lon="4.37157">
        <ele>569.446</ele>
        <time>2019-02-25T15:58:42Z</time>
      </trkpt>
      <trkpt lat="45.77249" lon="4.37147">
        <ele>569.675</ele>
        <time>2019-02-25T15:58:48Z</time>
      </trkpt>
      <trkpt lat="45.77247" lon="4.3714">
        <ele>570.035</ele>
        <time>2019-02-25T15:58:53Z</time>
      </trkpt>
      <trkpt lat="45.77248" lon="4.37129">
        <ele>571.156</ele>
        <time>2019-02-25T15:58:59Z</time>
      </trkpt>
      <trkpt lat="45.77248" lon="4.3712">
        <ele>571.976</ele>
        <time>2019-02-25T15:59:05Z</time>
      </trkpt>
      <trkpt lat="45.77249" lon="4.37113">
        <ele>572.313</ele>
        <time>2019-02-25T15:59:11Z</time>
      </trkpt>
      <trkpt lat="45.77248" lon="4.37105">
        <ele>572.616</ele>
        <time>2019-02-25T15:59:16Z</time>
      </trkpt>
      <trkpt lat="45.77248" lon="4.37097">
        <ele>572.618</ele>
        <time>2019-02-25T15:59:22Z</time>
      </trkpt>
      <trkpt lat="45.77249" lon="4.37087">
        <ele>573.297</ele>
        <time>2019-02-25T15:59:28Z</time>
      </trkpt>
      <trkpt lat="45.7725" lon="4.37076">
        <ele>574.057</ele>
        <time>2019-02-25T15:59:34Z</time>
      </trkpt>
      <trkpt lat="45.77247" lon="4.3707">
        <ele>574.583</ele>
        <time>2019-02-25T15:59:40Z</time>
      </trkpt>
      <trkpt lat="45.77246" lon="4.37061">
        <ele>575.249</ele>
        <time>2019-02-25T15:59:46Z</time>
      </trkpt>
      <trkpt lat="45.77247" lon="4.37051">
        <ele>576.208</ele>
        <time>2019-02-25T15:59:52Z</time>
      </trkpt>
      <trkpt lat="45.77247" lon="4.37045">
        <ele>576.834</ele>
        <time>2019-02-25T15:59:58Z</time>
      </trkpt>
      <trkpt lat="45.77247" lon="4.37034">
        <ele>577.379</ele>
        <time>2019-02-25T16:00:04Z</time>
      </trkpt>
      <trkpt lat="45.77244" lon="4.37025">
        <ele>577.766</ele>
        <time>2019-02-25T16:00:10Z</time>
      </trkpt>
      <trkpt lat="45.77243" lon="4.37016">
        <ele>577.862</ele>
        <time>2019-02-25T16:00:15Z</time>
      </trkpt>
      <trkpt lat="45.77244" lon="4.37008">
        <ele>577.819</ele>
        <time>2019-02-25T16:00:21Z</time>
      </trkpt>
      <trkpt lat="45.77245" lon="4.37003">
        <ele>578.11</ele>
        <time>2019-02-25T16:00:26Z</time>
      </trkpt>
      <trkpt lat="45.77246" lon="4.36994">
        <ele>578.493</ele>
        <time>2019-02-25T16:00:32Z</time>
      </trkpt>
      <trkpt lat="45.77245" lon="4.36985">
        <ele>578.961</ele>
        <time>2019-02-25T16:00:37Z</time>
      </trkpt>
      <trkpt lat="45.77245" lon="4.36976">
        <ele>579.293</ele>
        <time>2019-02-25T16:00:43Z</time>
      </trkpt>
      <trkpt lat="45.77247" lon="4.3697">
        <ele>579.68</ele>
        <time>2019-02-25T16:00:48Z</time>
      </trkpt>
      <trkpt lat="45.77247" lon="4.36959">
        <ele>579.904</ele>
        <time>2019-02-25T16:00:54Z</time>
      </trkpt>
      <trkpt lat="45.77245" lon="4.36951">
        <ele>580.138</ele>
        <time>2019-02-25T16:01:00Z</time>
      </trkpt>
      <trkpt lat="45.77245" lon="4.36943">
        <ele>580.467</ele>
        <time>2019-02-25T16:01:05Z</time>
      </trkpt>
      <trkpt lat="45.77246" lon="4.36937">
        <ele>581.102</ele>
        <time>2019-02-25T16:01:11Z</time>
      </trkpt>
      <trkpt lat="45.77245" lon="4.36929">
        <ele>581.872</ele>
        <time>2019-02-25T16:01:17Z</time>
      </trkpt>
      <trkpt lat="45.77243" lon="4.36921">
        <ele>582.921</ele>
        <time>2019-02-25T16:01:23Z</time>
      </trkpt>
      <trkpt lat="45.77241" lon="4.36912">
        <ele>583.966</ele>
        <time>2019-02-25T16:01:29Z</time>
      </trkpt>
      <trkpt lat="45.77239" lon="4.36906">
        <ele>584.75</ele>
        <time>2019-02-25T16:01:34Z</time>
      </trkpt>
      <trkpt lat="45.77238" lon="4.369">
        <ele>585.762</ele>
        <time>2019-02-25T16:01:40Z</time>
      </trkpt>
      <trkpt lat="45.7724" lon="4.36894">
        <ele>586.848</ele>
        <time>2019-02-25T16:01:46Z</time>
      </trkpt>
      <trkpt lat="45.7724" lon="4.36888">
        <ele>587.915</ele>
        <time>2019-02-25T16:01:52Z</time>
      </trkpt>
      <trkpt lat="45.77241" lon="4.36879">
        <ele>588.903</ele>
        <time>2019-02-25T16:01:58Z</time>
      </trkpt>
      <trkpt lat="45.77242" lon="4.36874">
        <ele>589.721</ele>
        <time>2019-02-25T16:02:03Z</time>
      </trkpt>
      <trkpt lat="45.77245" lon="4.36867">
        <ele>590.819</ele>
        <time>2019-02-25T16:02:09Z</time>
      </trkpt>
      <trkpt lat="45.77248" lon="4.3686">
        <ele>591.542</ele>
        <time>2019-02-25T16:02:14Z</time>
      </trkpt>
      <trkpt lat="45.77249" lon="4.36853">
        <ele>592.225</ele>
        <time>2019-02-25T16:02:19Z</time>
      </trkpt>
      <trkpt lat="45.77253" lon="4.36846">
        <ele>593.07</ele>
        <time>2019-02-25T16:02:24Z</time>
      </trkpt>
      <trkpt lat="45.77256" lon="4.36842">
        <ele>593.789</ele>
        <time>2019-02-25T16:02:30Z</time>
      </trkpt>
      <trkpt lat="45.77258" lon="4.36838">
        <ele>594.472</ele>
        <time>2019-02-25T16:02:35Z</time>
      </trkpt>
      <trkpt lat="45.77259" lon="4.36833">
        <ele>595.57</ele>
        <time>2019-02-25T16:02:41Z</time>
      </trkpt>
      <trkpt lat="45.77265" lon="4.36831">
        <ele>596.373</ele>
        <time>2019-02-25T16:02:47Z</time>
      </trkpt>
      <trkpt lat="45.77272" lon="4.36828">
        <ele>597.19</ele>
        <time>2019-02-25T16:02:52Z</time>
      </trkpt>
      <trkpt lat="45.77276" lon="4.36821">
        <ele>597.611</ele>
        <time>2019-02-25T16:02:59Z</time>
      </trkpt>
      <trkpt lat="45.7728" lon="4.36818">
        <ele>597.659</ele>
        <time>2019-02-25T16:03:05Z</time>
      </trkpt>
      <trkpt lat="45.77283" lon="4.36813">
        <ele>597.496</ele>
        <time>2019-02-25T16:03:10Z</time>
      </trkpt>
      <trkpt lat="45.77288" lon="4.36804">
        <ele>597.57</ele>
        <time>2019-02-25T16:03:15Z</time>
      </trkpt>
      <trkpt lat="45.77291" lon="4.36798">
        <ele>597.267</ele>
        <time>2019-02-25T16:03:20Z</time>
      </trkpt>
      <trkpt lat="45.77295" lon="4.36792">
        <ele>597.233</ele>
        <time>2019-02-25T16:03:25Z</time>
      </trkpt>
      <trkpt lat="45.77297" lon="4.36787">
        <ele>597.147</ele>
        <time>2019-02-25T16:03:30Z</time>
      </trkpt>
      <trkpt lat="45.77298" lon="4.36782">
        <ele>597.071</ele>
        <time>2019-02-25T16:03:36Z</time>
      </trkpt>
      <trkpt lat="45.77301" lon="4.36777">
        <ele>596.82</ele>
        <time>2019-02-25T16:03:41Z</time>
      </trkpt>
      <trkpt lat="45.77304" lon="4.36769">
        <ele>596.389</ele>
        <time>2019-02-25T16:03:46Z</time>
      </trkpt>
      <trkpt lat="45.77306" lon="4.36764">
        <ele>596.071</ele>
        <time>2019-02-25T16:03:51Z</time>
      </trkpt>
      <trkpt lat="45.7731" lon="4.36759">
        <ele>596.12</ele>
        <time>2019-02-25T16:03:57Z</time>
      </trkpt>
      <trkpt lat="45.7731" lon="4.36758">
        <ele>596.263</ele>
        <time>2019-02-25T16:04:03Z</time>
      </trkpt>
    </trkseg>
  </trk>
</gpx>